[[{"header":{"parameterUnit":"m.s-1","parameterCategory":1,"la1":31.0,"la2":29.5877,"lo1":-88.7671,"lo2":-86.6584,"dy":0.0162,"dx":0.0185,"nx":115,"ny":88,"refTime":"2024-02-13T18:00:00:Z","depth":0,"parameterNumber":2,"parameterNumberName":"U-component_of_WINDS"},"data":[0.0,0.0,0.0,0.0,0.0,0.0,0.0,0.0,0.0,0.0,0.0,0.0,0.0,0.0,0.0,0.0,0.0,0.0,0.0,0.0,0.0,0.0,0.0,0.0,0.0,0.0,0.0,0.0,0.0,0.0,0.0,0.0,0.0,0.0,0.0,0.0,0.0,0.0,0.0,0.0,0.0,0.0,0.0,0.0,0.0,0.0,0.0,0.0,0.0,0.0,0.0,0.0,0.0,0.0,0.0,0.0,0.0,0.0,0.0,0.0,0.0,0.0,0.0,0.0,0.0,0.0,0.0,0.0,0.0,0.0,0.0,0.0,0.0,0.0,0.0,0.0,0.0,0.0,0.0,0.0,0.0,0.0,0.0,0.0,0.0,0.0,0.0,0.0,0.0,0.0,0.0,0.0,0.0,0.0,0.0,0.0,0.0,0.0,0.0,0.0,0.0,0.0,0.0,0.0,0.0,0.0,0.0,0.0,0.0,0.0,0.0,0.0,0.0,0.0,0.0,0.0,0.0,0.0,0.0,0.0,0.0,0.0,0.0,0.0,0.0,0.0,0.0,0.0,0.0,0.0,0.0,0.0,0.0,0.0,0.0,0.0,0.0,0.0,0.0,0.0,0.0,0.0,0.0,0.0,0.0,0.0,0.0,0.0,0.0,0.0,0.0,0.0,0.0,0.0,0.0,0.0,0.0,0.0,0.0,0.0,0.0,0.0,0.0,0.0,0.0,0.0,0.0,0.0,0.0,0.0,0.0,0.0,0.0,0.0,0.0,0.0,0.0,0.0,0.0,0.0,0.0,0.0,0.0,0.0,0.0,0.0,0.0,0.0,0.0,0.0,0.0,0.0,0.0,0.0,0.0,0.0,0.0,0.0,0.0,0.0,0.0,0.0,0.0,0.0,0.0,0.0,0.0,0.0,0.0,0.0,0.0,0.0,0.0,0.0,0.0,0.0,0.0,0.0,0.0,0.0,0.0,0.0,0.0,0.0,0.0,0.0,0.0,0.0,0.0,0.0,0.0,0.0,0.0,0.0,0.0,0.0,0.0,0.0,0.0,0.0,0.0,0.0,0.0,0.0,0.0,0.0,0.0,0.0,0.0,0.0,0.0,0.0,0.0,0.0,0.0,0.0,0.0,0.0,0.0,0.0,0.0,0.0,0.0,0.0,0.0,0.0,0.0,0.0,0.0,0.0,0.0,0.0,0.0,0.0,0.0,0.0,0.0,0.0,0.0,0.0,0.0,0.0,0.0,0.0,0.0,0.0,0.0,0.0,0.0,0.0,0.0,0.0,0.0,0.0,0.0,0.0,0.0,0.0,0.0,0.0,0.0,0.0,0.0,0.0,0.0,0.0,0.0,0.0,0.0,0.0,0.0,0.0,0.0,0.0,0.0,0.0,0.0,0.0,0.0,0.0,0.0,0.0,0.0,0.0,0.0,0.0,0.0,0.0,0.0,0.0,0.0,0.0,0.0,0.0,0.0,0.0,0.0,0.0,0.0,0.0,0.0,0.0,0.0,0.0,0.0,0.0,0.0,0.0,0.0,0.0,0.0,0.0,0.0,0.0,0.0,0.0,0.0,0.0,0.0,0.0,0.0,0.0,0.0,0.0,0.0,0.0,0.0,0.0,0.0,0.0,0.0,0.0,0.0,0.0,0.0,0.0,0.0,0.0,0.0,0.0,0.0,0.0,0.0,0.0,0.0,0.0,0.0,0.0,0.0,0.0,0.0,0.0,0.0,0.0,0.0,0.0,0.0,0.0,0.0,0.0,0.0,0.0,0.0,0.0,0.0,0.0,0.0,0.0,0.0,0.0,0.0,0.0,0.0,0.0,0.0,0.0,0.0,0.0,0.0,0.0,0.0,0.0,0.0,0.0,0.0,0.0,0.0,0.0,0.0,0.0,0.0,0.0,0.0,0.0,0.0,0.0,0.0,0.0,0.0,0.0,0.0,0.0,0.0,0.0,0.0,0.0,0.0,0.0,0.0,0.0,0.0,0.0,0.0,0.0,0.0,0.0,0.0,0.0,0.0,0.0,0.0,0.0,0.0,0.0,0.0,0.0,0.0,0.0,0.0,0.0,0.0,0.0,0.0,0.0,0.0,0.0,0.0,0.0,0.0,0.0,0.0,0.0,0.0,0.0,0.0,0.0,0.0,0.0,0.0,0.0,0.0,0.0,0.0,0.0,0.0,0.0,0.0,0.0,0.0,0.0,0.0,0.0,0.0,0.0,0.0,0.0,0.0,0.0,0.0,0.0,0.0,0.0,0.0,0.0,0.0,0.0,0.0,0.0,0.0,0.0,0.0,0.0,0.0,0.0,0.0,0.0,0.0,0.0,0.0,0.0,0.0,0.0,0.0,0.0,0.0,0.0,0.0,0.0,0.0,0.0,0.0,0.0,0.0,0.0,0.0,0.0,0.0,0.0,0.0,0.0,0.0,0.0,0.0,0.0,0.0,0.0,0.0,0.0,0.0,0.0,0.0,0.0,0.0,0.0,0.0,0.0,0.0,0.0,0.0,0.0,0.0,0.0,0.0,0.0,0.0,0.0,0.0,0.0,0.0,0.0,0.0,0.0,0.0,0.0,0.0,0.0,0.0,0.0,0.0,0.0,0.0,0.0,0.0,0.0,0.0,0.0,0.0,0.0,0.0,0.0,0.0,0.0,0.0,0.0,0.0,0.0,0.0,0.0,0.0,0.0,0.0,0.0,0.0,0.0,0.0,0.0,0.0,0.0,0.0,0.0,0.0,0.0,0.0,0.0,0.0,0.0,0.0,0.0,0.0,0.0,0.0,0.0,0.0,0.0,0.0,0.0,0.0,0.0,0.0,0.0,0.0,0.0,0.0,0.0,0.0,0.0,0.0,0.0,0.0,0.0,0.0,0.0,0.0,0.0,0.0,0.0,0.0,0.0,0.0,0.0,0.0,0.0,0.0,0.0,0.0,0.0,0.0,0.0,0.0,0.0,0.0,0.0,0.0,0.0,0.0,0.0,0.0,0.0,0.0,0.0,0.0,0.0,0.0,0.0,0.0,0.0,0.0,0.0,0.0,0.0,0.0,0.0,0.0,0.0,0.0,0.0,0.0,0.0,0.0,0.0,0.0,0.0,0.0,0.0,0.0,0.0,0.0,0.0,0.0,0.0,0.0,0.0,0.0,0.0,0.0,0.0,0.0,0.0,0.0,0.0,0.0,0.0,0.0,0.0,0.0,0.0,0.0,0.0,0.0,0.0,0.0,0.0,0.0,0.0,0.0,0.0,0.0,0.0,0.0,0.0,0.0,0.0,0.0,0.0,0.0,0.0,0.0,0.0,0.0,0.0,0.0,0.0,0.0,0.0,0.0,0.0,0.0,0.0,0.0,0.0,0.0,0.0,0.0,0.0,0.0,0.0,0.0,0.0,0.0,0.0,0.0,0.0,0.0,0.0,0.0,0.0,0.0,0.0,0.0,0.0,0.0,0.0,0.0,0.0,0.0,0.0,0.0,0.0,0.0,0.0,0.0,0.0,0.0,0.0,0.0,0.0,0.0,0.0,0.0,0.0,0.0,0.0,0.0,0.0,0.0,0.0,0.0,0.0,0.0,0.0,0.0,0.0,0.0,0.0,0.0,0.0,0.0,0.0,0.0,0.0,0.0,0.0,0.0,0.0,0.0,0.0,0.0,0.0,0.0,0.0,0.0,0.0,0.0,0.0,0.0,0.0,0.0,0.0,0.0,0.0,0.0,0.0,0.0,0.0,0.0,0.0,0.0,0.0,0.0,0.0,0.0,0.0,0.0,0.0,0.0,0.0,0.0,0.0,0.0,0.0,0.0,0.0,0.0,0.0,0.0,0.0,0.0,0.0,0.0,0.0,0.0,0.0,0.0,0.0,0.0,0.0,0.0,0.0,0.0,0.0,0.0,0.0,0.0,0.0,0.0,0.0,0.0,0.0,0.0,0.0,0.0,0.0,0.0,0.0,0.0,0.0,0.0,0.0,0.0,0.0,0.0,0.0,0.0,0.0,0.0,0.0,0.0,0.0,0.0,0.0,0.0,0.0,0.0,0.0,0.0,0.0,0.0,0.0,0.0,0.0,0.0,0.0,0.0,0.0,0.0,0.0,0.0,0.0,0.0,0.0,0.0,0.0,0.0,0.0,0.0,0.0,0.0,0.0,0.0,0.0,0.0,0.0,0.0,0.0,0.0,0.0,0.0,0.0,0.0,0.0,0.0,0.0,0.0,0.0,0.0,0.0,0.0,0.0,0.0,0.0,0.0,0.0,0.0,0.0,0.0,0.0,-2.4821,0.0,0.0,0.0,0.0,0.0,0.0,0.0,0.0,0.0,0.0,0.0,0.0,0.0,0.0,0.0,0.0,0.0,0.0,0.0,0.0,0.0,0.0,0.0,0.0,0.0,0.0,0.0,0.0,0.0,0.0,0.0,0.0,0.0,0.0,0.0,0.0,0.0,0.0,0.0,0.0,0.0,0.0,0.0,0.0,0.0,0.0,0.0,0.0,0.0,0.0,0.0,0.0,0.0,0.0,0.0,0.0,0.0,0.0,0.0,0.0,0.0,0.0,0.0,0.0,0.0,0.0,0.0,0.0,0.0,0.0,0.0,0.0,0.0,0.0,0.0,0.0,0.0,0.0,0.0,0.0,0.0,0.0,0.0,0.0,0.0,0.0,0.0,0.0,0.0,0.0,0.0,0.0,0.0,0.0,0.0,0.0,0.0,0.0,0.0,0.0,0.0,0.0,0.0,0.0,0.0,0.0,0.0,0.0,0.0,0.0,-2.4637,-2.4645,-2.4631,-2.4631,-2.4679,0.0,0.0,0.0,0.0,0.0,0.0,0.0,0.0,0.0,0.0,0.0,0.0,0.0,0.0,0.0,0.0,0.0,0.0,0.0,0.0,0.0,0.0,0.0,0.0,0.0,0.0,0.0,0.0,0.0,0.0,0.0,0.0,0.0,0.0,0.0,0.0,0.0,0.0,0.0,0.0,0.0,0.0,0.0,0.0,0.0,0.0,0.0,0.0,0.0,0.0,0.0,0.0,0.0,0.0,0.0,0.0,0.0,0.0,0.0,0.0,0.0,0.0,0.0,0.0,0.0,0.0,0.0,0.0,0.0,0.0,0.0,0.0,0.0,0.0,0.0,0.0,0.0,0.0,0.0,0.0,0.0,0.0,0.0,0.0,0.0,0.0,0.0,0.0,0.0,0.0,0.0,0.0,0.0,0.0,0.0,0.0,0.0,0.0,0.0,0.0,0.0,0.0,0.0,0.0,0.0,0.0,0.0,0.0,0.0,0.0,0.0,0.0,-2.459,-2.4532,-2.4557,0.0,0.0,0.0,0.0,0.0,0.0,0.0,0.0,0.0,0.0,0.0,0.0,0.0,0.0,0.0,0.0,0.0,0.0,0.0,0.0,0.0,0.0,0.0,0.0,0.0,0.0,0.0,0.0,0.0,0.0,0.0,0.0,0.0,0.0,0.0,0.0,0.0,0.0,0.0,0.0,0.0,0.0,0.0,0.0,0.0,0.0,0.0,0.0,0.0,0.0,0.0,0.0,0.0,0.0,0.0,0.0,0.0,0.0,0.0,0.0,0.0,0.0,0.0,0.0,0.0,0.0,0.0,0.0,0.0,0.0,0.0,0.0,0.0,0.0,0.0,0.0,0.0,0.0,0.0,0.0,0.0,0.0,0.0,0.0,0.0,0.0,0.0,0.0,0.0,0.0,0.0,0.0,0.0,0.0,0.0,0.0,0.0,0.0,0.0,0.0,0.0,0.0,0.0,0.0,0.0,0.0,0.0,0.0,0.0,0.0,-2.4587,-2.5286,-2.4624,0.0,-2.4402,0.0,0.0,0.0,0.0,0.0,0.0,0.0,0.0,0.0,0.0,0.0,0.0,0.0,0.0,0.0,0.0,0.0,0.0,0.0,0.0,0.0,0.0,0.0,0.0,0.0,0.0,0.0,0.0,0.0,0.0,0.0,0.0,0.0,0.0,0.0,0.0,0.0,0.0,0.0,0.0,0.0,0.0,0.0,0.0,0.0,0.0,0.0,0.0,0.0,0.0,0.0,0.0,0.0,0.0,0.0,0.0,0.0,0.0,0.0,0.0,0.0,0.0,0.0,0.0,0.0,0.0,0.0,0.0,0.0,0.0,0.0,0.0,0.0,0.0,0.0,0.0,0.0,0.0,0.0,0.0,0.0,0.0,0.0,0.0,0.0,0.0,0.0,0.0,0.0,0.0,0.0,0.0,0.0,0.0,0.0,0.0,0.0,0.0,0.0,0.0,0.0,0.0,0.0,0.0,0.0,0.0,0.0,0.0,0.0,0.0,-2.4585,-2.5384,-2.5081,-2.4724,0.0,0.0,0.0,0.0,0.0,0.0,0.0,0.0,0.0,0.0,0.0,0.0,0.0,0.0,0.0,0.0,0.0,0.0,0.0,0.0,0.0,0.0,0.0,0.0,0.0,0.0,0.0,0.0,0.0,0.0,0.0,0.0,0.0,0.0,0.0,0.0,0.0,0.0,0.0,0.0,0.0,0.0,0.0,0.0,0.0,0.0,0.0,0.0,0.0,0.0,0.0,0.0,0.0,0.0,0.0,0.0,0.0,0.0,0.0,0.0,0.0,0.0,0.0,0.0,0.0,0.0,0.0,0.0,0.0,0.0,0.0,0.0,0.0,0.0,0.0,0.0,0.0,0.0,0.0,0.0,0.0,0.0,0.0,0.0,0.0,0.0,0.0,0.0,0.0,0.0,0.0,0.0,0.0,0.0,0.0,0.0,0.0,0.0,0.0,0.0,0.0,0.0,0.0,0.0,0.0,0.0,0.0,0.0,0.0,0.0,-2.463,-2.4805,-2.5338,-2.5172,-2.4787,-2.4218,0.0,0.0,0.0,0.0,0.0,0.0,0.0,0.0,0.0,0.0,0.0,0.0,0.0,0.0,0.0,0.0,0.0,0.0,0.0,0.0,0.0,0.0,0.0,0.0,0.0,0.0,0.0,0.0,0.0,0.0,0.0,0.0,0.0,0.0,0.0,0.0,0.0,0.0,0.0,0.0,0.0,0.0,0.0,0.0,0.0,0.0,0.0,0.0,0.0,0.0,0.0,0.0,0.0,0.0,0.0,0.0,0.0,0.0,0.0,0.0,0.0,0.0,0.0,0.0,0.0,0.0,0.0,0.0,0.0,0.0,0.0,0.0,0.0,0.0,0.0,0.0,0.0,0.0,0.0,0.0,0.0,0.0,0.0,0.0,0.0,0.0,0.0,0.0,0.0,0.0,0.0,0.0,0.0,0.0,0.0,0.0,0.0,0.0,0.0,0.0,0.0,0.0,0.0,0.0,0.0,0.0,0.0,0.0,-2.6374,-2.5705,-2.5348,-2.5356,-2.4658,-2.4226,0.0,0.0,0.0,0.0,0.0,0.0,0.0,0.0,0.0,0.0,0.0,0.0,0.0,0.0,0.0,0.0,0.0,0.0,0.0,0.0,0.0,0.0,0.0,0.0,0.0,0.0,0.0,0.0,0.0,0.0,0.0,0.0,0.0,0.0,0.0,0.0,0.0,0.0,0.0,0.0,0.0,0.0,0.0,0.0,0.0,0.0,0.0,0.0,0.0,0.0,0.0,0.0,0.0,0.0,0.0,0.0,0.0,0.0,0.0,0.0,0.0,0.0,0.0,0.0,0.0,0.0,0.0,0.0,0.0,0.0,0.0,0.0,0.0,0.0,0.0,0.0,0.0,0.0,0.0,0.0,0.0,0.0,0.0,0.0,0.0,0.0,0.0,0.0,0.0,0.0,0.0,0.0,0.0,0.0,0.0,0.0,0.0,0.0,0.0,0.0,0.0,0.0,0.0,0.0,0.0,0.0,0.0,0.0,0.0,-2.5034,-2.5264,-2.5116,-2.4551,-2.4784,-2.4454,0.0,0.0,0.0,0.0,0.0,0.0,0.0,0.0,0.0,0.0,0.0,0.0,0.0,0.0,0.0,0.0,0.0,0.0,0.0,0.0,0.0,0.0,0.0,0.0,0.0,0.0,0.0,0.0,0.0,0.0,0.0,0.0,0.0,0.0,0.0,0.0,0.0,0.0,0.0,0.0,0.0,0.0,0.0,0.0,0.0,0.0,0.0,0.0,0.0,0.0,0.0,0.0,0.0,0.0,0.0,0.0,0.0,0.0,0.0,0.0,0.0,0.0,0.0,0.0,0.0,0.0,0.0,0.0,0.0,0.0,0.0,0.0,0.0,0.0,0.0,0.0,0.0,0.0,0.0,0.0,0.0,0.0,0.0,0.0,0.0,0.0,0.0,0.0,0.0,0.0,0.0,0.0,0.0,0.0,0.0,0.0,0.0,0.0,0.0,0.0,0.0,0.0,0.0,0.0,0.0,0.0,0.0,0.0,0.0,-2.3984,0.0,-2.4675,-2.3899,-2.4486,-2.4198,0.0,0.0,0.0,0.0,0.0,0.0,0.0,0.0,0.0,0.0,0.0,0.0,0.0,0.0,0.0,0.0,0.0,0.0,0.0,0.0,0.0,0.0,0.0,0.0,0.0,0.0,0.0,0.0,0.0,0.0,0.0,0.0,0.0,0.0,0.0,0.0,0.0,0.0,0.0,0.0,0.0,0.0,0.0,0.0,0.0,0.0,0.0,0.0,0.0,0.0,0.0,0.0,0.0,0.0,0.0,0.0,0.0,0.0,0.0,0.0,0.0,0.0,0.0,0.0,0.0,0.0,0.0,0.0,0.0,0.0,0.0,0.0,0.0,0.0,0.0,0.0,0.0,0.0,0.0,0.0,0.0,0.0,0.0,0.0,0.0,0.0,0.0,0.0,0.0,0.0,0.0,0.0,0.0,0.0,0.0,0.0,0.0,0.0,0.0,0.0,0.0,0.0,0.0,0.0,0.0,0.0,0.0,0.0,-2.3022,-2.3477,-2.407,-2.41,-2.352,-2.3664,-2.343,0.0,0.0,0.0,0.0,0.0,0.0,0.0,0.0,0.0,0.0,0.0,0.0,0.0,0.0,0.0,0.0,0.0,0.0,0.0,0.0,0.0,0.0,0.0,0.0,0.0,0.0,0.0,0.0,0.0,0.0,0.0,0.0,0.0,0.0,0.0,0.0,0.0,0.0,0.0,0.0,0.0,0.0,0.0,0.0,0.0,0.0,0.0,0.0,0.0,0.0,0.0,0.0,0.0,0.0,0.0,0.0,0.0,0.0,0.0,0.0,0.0,0.0,0.0,0.0,0.0,0.0,0.0,0.0,0.0,0.0,0.0,0.0,0.0,0.0,0.0,0.0,0.0,0.0,0.0,0.0,0.0,0.0,0.0,0.0,0.0,0.0,0.0,0.0,0.0,0.0,0.0,0.0,0.0,0.0,0.0,0.0,0.0,0.0,0.0,0.0,0.0,0.0,0.0,0.0,0.0,0.0,0.0,0.0,0.0,-2.2689,-2.3253,-2.3454,-2.3236,-2.3529,-2.331,0.0,0.0,0.0,0.0,0.0,0.0,0.0,0.0,0.0,0.0,0.0,0.0,0.0,0.0,0.0,0.0,0.0,0.0,0.0,0.0,0.0,0.0,0.0,0.0,0.0,0.0,0.0,0.0,0.0,0.0,0.0,0.0,0.0,0.0,0.0,0.0,0.0,0.0,0.0,0.0,0.0,0.0,0.0,0.0,0.0,0.0,0.0,0.0,0.0,0.0,0.0,0.0,0.0,0.0,0.0,0.0,0.0,0.0,0.0,0.0,0.0,0.0,0.0,0.0,0.0,0.0,0.0,0.0,0.0,0.0,0.0,0.0,0.0,0.0,0.0,0.0,0.0,0.0,0.0,0.0,0.0,0.0,0.0,0.0,0.0,0.0,0.0,0.0,0.0,0.0,0.0,0.0,0.0,0.0,0.0,0.0,0.0,0.0,0.0,0.0,0.0,0.0,0.0,0.0,0.0,0.0,0.0,0.0,0.0,-2.237,-2.2955,-2.3141,-2.2824,-2.3212,-2.2888,-2.185,0.0,0.0,0.0,0.0,0.0,0.0,0.0,0.0,0.0,0.0,0.0,0.0,0.0,0.0,0.0,0.0,0.0,0.0,0.0,0.0,0.0,0.0,0.0,0.0,0.0,0.0,0.0,0.0,0.0,0.0,0.0,0.0,0.0,0.0,0.0,0.0,0.0,0.0,0.0,0.0,0.0,0.0,0.0,0.0,0.0,0.0,0.0,0.0,0.0,0.0,0.0,0.0,0.0,0.0,0.0,0.0,0.0,0.0,0.0,0.0,0.0,0.0,0.0,0.0,0.0,0.0,0.0,0.0,0.0,0.0,0.0,0.0,0.0,0.0,0.0,0.0,0.0,0.0,0.0,0.0,0.0,0.0,0.0,0.0,0.0,0.0,0.0,0.0,0.0,0.0,0.0,0.0,0.0,0.0,0.0,0.0,0.0,0.0,0.0,0.0,0.0,0.0,0.0,0.0,0.0,0.0,0.0,0.0,-2.2525,-2.3129,-2.3163,-2.2593,-2.2821,-2.2357,0.0,0.0,0.0,0.0,0.0,0.0,0.0,0.0,0.0,0.0,0.0,0.0,0.0,0.0,0.0,0.0,0.0,0.0,0.0,0.0,0.0,0.0,0.0,0.0,0.0,0.0,0.0,0.0,0.0,0.0,0.0,0.0,0.0,0.0,0.0,0.0,0.0,0.0,0.0,0.0,0.0,0.0,0.0,0.0,0.0,0.0,0.0,0.0,0.0,0.0,0.0,0.0,0.0,0.0,0.0,0.0,0.0,0.0,0.0,0.0,0.0,0.0,0.0,0.0,0.0,0.0,0.0,0.0,0.0,0.0,0.0,0.0,0.0,0.0,0.0,0.0,0.0,0.0,0.0,0.0,0.0,0.0,0.0,0.0,0.0,0.0,0.0,0.0,0.0,0.0,0.0,0.0,0.0,0.0,0.0,0.0,0.0,0.0,0.0,0.0,0.0,0.0,0.0,0.0,0.0,0.0,0.0,0.0,0.0,-2.3926,-2.4117,-2.4133,-2.3958,-2.3743,-2.3563,0.0,0.0,0.0,0.0,0.0,0.0,0.0,0.0,0.0,0.0,0.0,0.0,0.0,0.0,0.0,0.0,0.0,0.0,0.0,0.0,0.0,0.0,0.0,0.0,0.0,0.0,0.0,0.0,0.0,0.0,0.0,0.0,0.0,0.0,0.0,0.0,0.0,0.0,0.0,0.0,0.0,0.0,0.0,0.0,0.0,0.0,0.0,0.0,0.0,0.0,0.0,0.0,0.0,0.0,0.0,0.0,0.0,0.0,0.0,0.0,0.0,0.0,0.0,0.0,0.0,0.0,0.0,0.0,0.0,0.0,0.0,0.0,0.0,0.0,0.0,0.0,0.0,0.0,0.0,0.0,0.0,0.0,0.0,0.0,0.0,0.0,0.0,0.0,0.0,0.0,0.0,0.0,0.0,0.0,0.0,0.0,0.0,0.0,0.0,0.0,0.0,0.0,0.0,0.0,0.0,0.0,0.0,0.0,-2.3748,-2.3804,-2.4742,-2.5229,-2.5212,-2.365,-2.2872,0.0,0.0,0.0,0.0,0.0,0.0,0.0,0.0,0.0,0.0,0.0,0.0,0.0,0.0,0.0,0.0,0.0,0.0,0.0,0.0,0.0,0.0,0.0,0.0,0.0,0.0,0.0,0.0,0.0,0.0,0.0,0.0,0.0,0.0,0.0,0.0,0.0,0.0,0.0,0.0,0.0,0.0,0.0,0.0,0.0,0.0,0.0,0.0,0.0,0.0,0.0,0.0,0.0,0.0,0.0,0.0,0.0,0.0,0.0,0.0,0.0,0.0,0.0,0.0,0.0,0.0,0.0,0.0,0.0,0.0,0.0,0.0,0.0,0.0,0.0,0.0,0.0,0.0,0.0,0.0,0.0,0.0,0.0,0.0,0.0,0.0,0.0,0.0,0.0,0.0,0.0,0.0,0.0,0.0,0.0,0.0,0.0,0.0,0.0,0.0,0.0,0.0,0.0,0.0,0.0,0.0,0.0,0.0,-2.3731,-2.3076,-2.501,-2.6022,-2.5891,-2.3121,-2.1629,0.0,0.0,0.0,0.0,0.0,0.0,0.0,0.0,0.0,0.0,0.0,0.0,0.0,0.0,0.0,0.0,0.0,0.0,0.0,0.0,0.0,0.0,0.0,0.0,0.0,0.0,0.0,0.0,0.0,0.0,0.0,0.0,0.0,0.0,0.0,0.0,0.0,0.0,0.0,0.0,0.0,0.0,0.0,0.0,0.0,0.0,0.0,0.0,0.0,0.0,0.0,0.0,0.0,0.0,0.0,0.0,0.0,0.0,0.0,0.0,0.0,0.0,0.0,0.0,0.0,0.0,0.0,0.0,0.0,0.0,0.0,0.0,0.0,0.0,0.0,0.0,0.0,0.0,0.0,0.0,0.0,0.0,0.0,0.0,0.0,0.0,0.0,0.0,0.0,0.0,0.0,0.0,0.0,0.0,0.0,0.0,0.0,0.0,0.0,0.0,0.0,0.0,0.0,0.0,0.0,0.0,0.0,0.0,-2.357,-2.453,-2.4993,-2.4976,-2.4413,-2.3862,-2.3686,0.0,0.0,0.0,0.0,0.0,0.0,0.0,0.0,0.0,0.0,0.0,0.0,0.0,0.0,0.0,0.0,0.0,0.0,0.0,0.0,0.0,0.0,0.0,0.0,0.0,0.0,0.0,0.0,0.0,0.0,0.0,0.0,0.0,0.0,0.0,0.0,0.0,0.0,0.0,0.0,0.0,0.0,0.0,0.0,0.0,0.0,0.0,0.0,-2.6048,0.0,0.0,0.0,0.0,0.0,0.0,0.0,0.0,0.0,0.0,0.0,0.0,0.0,0.0,0.0,0.0,0.0,0.0,0.0,0.0,0.0,0.0,0.0,0.0,0.0,0.0,0.0,0.0,0.0,0.0,0.0,0.0,0.0,0.0,0.0,0.0,0.0,0.0,0.0,0.0,0.0,0.0,0.0,0.0,0.0,0.0,0.0,0.0,0.0,0.0,0.0,0.0,0.0,0.0,0.0,0.0,0.0,0.0,0.0,-2.3194,-2.4225,-2.4928,-2.5092,-2.4714,-2.4181,-2.3748,0.0,0.0,0.0,0.0,0.0,0.0,0.0,0.0,0.0,0.0,0.0,0.0,0.0,0.0,0.0,0.0,0.0,0.0,0.0,0.0,0.0,0.0,0.0,0.0,0.0,0.0,0.0,0.0,0.0,0.0,0.0,0.0,0.0,0.0,0.0,0.0,0.0,0.0,0.0,0.0,0.0,0.0,0.0,0.0,0.0,0.0,0.0,0.0,0.0,0.0,0.0,0.0,0.0,0.0,0.0,0.0,0.0,0.0,0.0,0.0,0.0,0.0,0.0,0.0,0.0,0.0,0.0,0.0,0.0,0.0,0.0,0.0,0.0,0.0,0.0,0.0,0.0,0.0,0.0,0.0,0.0,0.0,0.0,0.0,0.0,0.0,0.0,0.0,0.0,0.0,0.0,0.0,0.0,0.0,0.0,0.0,0.0,0.0,0.0,0.0,0.0,0.0,0.0,0.0,0.0,0.0,0.0,-2.1617,-2.2633,-2.359,-2.4687,-2.5271,-2.5252,-2.3992,-2.29,-2.1996,0.0,0.0,0.0,0.0,0.0,0.0,0.0,0.0,0.0,0.0,0.0,0.0,0.0,0.0,0.0,0.0,0.0,0.0,0.0,0.0,0.0,0.0,0.0,0.0,0.0,0.0,0.0,0.0,0.0,0.0,0.0,0.0,0.0,0.0,0.0,0.0,0.0,0.0,-2.5964,-2.6454,0.0,0.0,0.0,0.0,0.0,0.0,0.0,0.0,-2.813,0.0,0.0,0.0,0.0,0.0,0.0,0.0,0.0,0.0,0.0,0.0,0.0,0.0,0.0,0.0,0.0,0.0,0.0,0.0,0.0,0.0,0.0,0.0,0.0,0.0,0.0,0.0,0.0,0.0,0.0,0.0,0.0,0.0,0.0,0.0,0.0,0.0,0.0,0.0,0.0,0.0,0.0,0.0,0.0,0.0,0.0,0.0,0.0,0.0,0.0,0.0,0.0,0.0,0.0,0.0,0.0,-2.1526,-2.1025,-2.1943,-2.4323,-2.4084,-2.3877,-2.3745,-2.2629,-2.2073,-2.2216,0.0,0.0,0.0,0.0,0.0,0.0,0.0,0.0,0.0,0.0,0.0,0.0,0.0,0.0,0.0,0.0,0.0,0.0,0.0,0.0,0.0,0.0,0.0,0.0,0.0,0.0,0.0,0.0,0.0,0.0,0.0,0.0,0.0,0.0,0.0,0.0,0.0,0.0,0.0,-2.7435,-2.7215,0.0,0.0,0.0,0.0,0.0,0.0,0.0,0.0,-2.9297,0.0,0.0,0.0,0.0,0.0,0.0,0.0,0.0,0.0,0.0,0.0,0.0,0.0,0.0,0.0,0.0,0.0,0.0,0.0,0.0,0.0,0.0,0.0,0.0,0.0,0.0,0.0,0.0,0.0,0.0,0.0,0.0,0.0,0.0,0.0,0.0,0.0,0.0,0.0,0.0,0.0,0.0,0.0,0.0,0.0,0.0,0.0,0.0,0.0,0.0,0.0,0.0,0.0,0.0,0.0,-2.1547,-2.1483,-2.2459,-2.4496,-2.4302,-2.4095,-2.4,-2.2767,-2.2323,0.0,0.0,0.0,0.0,0.0,0.0,0.0,0.0,0.0,0.0,0.0,0.0,0.0,0.0,0.0,0.0,0.0,0.0,0.0,0.0,0.0,0.0,0.0,0.0,0.0,0.0,0.0,0.0,0.0,0.0,0.0,0.0,0.0,0.0,0.0,0.0,0.0,0.0,0.0,0.0,-2.8416,-2.8738,-2.9465,0.0,0.0,0.0,0.0,0.0,0.0,-2.9687,-2.9365,0.0,0.0,0.0,0.0,0.0,0.0,0.0,0.0,0.0,0.0,0.0,0.0,0.0,0.0,0.0,0.0,0.0,0.0,0.0,0.0,0.0,0.0,0.0,0.0,0.0,0.0,0.0,0.0,0.0,0.0,0.0,0.0,0.0,0.0,0.0,0.0,0.0,0.0,0.0,0.0,0.0,0.0,0.0,0.0,0.0,0.0,0.0,0.0,0.0,0.0,0.0,0.0,0.0,0.0,0.0,-2.153,-2.2009,-2.2948,-2.4313,-2.4287,-2.4266,-2.4359,-2.2898,-2.2439,0.0,0.0,0.0,0.0,0.0,0.0,0.0,0.0,0.0,0.0,0.0,0.0,0.0,0.0,0.0,0.0,0.0,0.0,0.0,0.0,0.0,0.0,0.0,0.0,0.0,0.0,0.0,0.0,0.0,0.0,0.0,0.0,0.0,0.0,0.0,0.0,0.0,0.0,0.0,0.0,0.0,-2.9914,-3.0101,-2.9964,0.0,0.0,0.0,0.0,-2.9515,-2.9939,0.0,0.0,0.0,0.0,0.0,0.0,0.0,0.0,0.0,0.0,0.0,0.0,0.0,0.0,0.0,0.0,0.0,0.0,0.0,0.0,0.0,0.0,0.0,0.0,0.0,0.0,0.0,0.0,0.0,0.0,0.0,0.0,0.0,0.0,0.0,0.0,0.0,0.0,0.0,0.0,0.0,0.0,0.0,0.0,0.0,0.0,0.0,0.0,0.0,0.0,0.0,0.0,0.0,0.0,0.0,0.0,-2.1999,-2.187,-2.241,-2.3634,-2.3197,-2.3182,-2.3679,-2.2002,-2.1565,0.0,0.0,0.0,0.0,0.0,0.0,0.0,0.0,0.0,0.0,0.0,0.0,0.0,0.0,0.0,0.0,0.0,0.0,0.0,0.0,0.0,0.0,0.0,0.0,0.0,0.0,0.0,0.0,0.0,0.0,0.0,0.0,0.0,0.0,0.0,0.0,0.0,0.0,0.0,0.0,0.0,-2.9313,-3.0074,-2.9535,-2.8641,0.0,0.0,-3.1599,-3.1248,-3.3095,0.0,0.0,0.0,0.0,0.0,0.0,0.0,0.0,0.0,0.0,0.0,0.0,0.0,0.0,0.0,0.0,0.0,0.0,0.0,0.0,0.0,0.0,0.0,0.0,0.0,0.0,0.0,0.0,0.0,0.0,0.0,0.0,0.0,0.0,0.0,0.0,0.0,0.0,0.0,0.0,0.0,0.0,0.0,0.0,0.0,0.0,0.0,0.0,0.0,0.0,0.0,0.0,0.0,0.0,0.0,-2.1972,-2.1907,-2.2849,-2.3445,-2.358,-2.334,-2.3325,-2.3595,-2.2129,-2.1694,0.0,0.0,0.0,0.0,0.0,0.0,0.0,0.0,0.0,0.0,0.0,0.0,0.0,0.0,0.0,0.0,0.0,0.0,0.0,0.0,0.0,0.0,0.0,0.0,0.0,0.0,0.0,0.0,0.0,0.0,0.0,0.0,0.0,0.0,0.0,0.0,0.0,0.0,0.0,0.0,0.0,0.0,-3.0325,-3.0335,0.0,0.0,0.0,-3.134,-3.0289,0.0,0.0,0.0,0.0,0.0,0.0,0.0,0.0,0.0,0.0,0.0,0.0,0.0,0.0,0.0,0.0,0.0,0.0,0.0,0.0,0.0,0.0,0.0,0.0,0.0,0.0,0.0,0.0,0.0,0.0,0.0,0.0,0.0,0.0,0.0,0.0,0.0,0.0,0.0,0.0,0.0,0.0,0.0,0.0,0.0,0.0,0.0,0.0,0.0,0.0,0.0,0.0,0.0,0.0,0.0,0.0,0.0,-2.164,-2.3436,-2.4104,-2.3538,-2.3545,-2.3566,-2.358,-2.2517,0.0,0.0,0.0,0.0,0.0,0.0,0.0,0.0,0.0,0.0,0.0,0.0,0.0,0.0,0.0,0.0,0.0,0.0,0.0,0.0,0.0,0.0,0.0,0.0,0.0,0.0,0.0,-1.9353,0.0,0.0,0.0,0.0,0.0,0.0,0.0,0.0,0.0,0.0,0.0,0.0,0.0,0.0,-3.0941,-3.0236,-3.0869,-3.1422,0.0,0.0,-3.1234,-3.0132,-3.2393,-3.2962,0.0,0.0,0.0,0.0,0.0,0.0,0.0,0.0,0.0,0.0,0.0,0.0,0.0,0.0,0.0,0.0,0.0,0.0,0.0,0.0,0.0,0.0,0.0,0.0,0.0,0.0,0.0,0.0,0.0,0.0,0.0,0.0,0.0,0.0,0.0,0.0,0.0,0.0,0.0,0.0,0.0,0.0,0.0,0.0,0.0,0.0,0.0,0.0,0.0,0.0,0.0,0.0,0.0,0.0,-2.1951,-2.1412,-2.2987,-2.3681,-2.3327,-2.3341,-2.3414,-2.3595,-2.2972,-2.243,0.0,0.0,0.0,0.0,0.0,0.0,0.0,0.0,0.0,0.0,0.0,0.0,0.0,0.0,0.0,0.0,0.0,0.0,0.0,0.0,0.0,0.0,0.0,0.0,0.0,0.0,0.0,0.0,0.0,0.0,0.0,0.0,0.0,0.0,0.0,0.0,0.0,0.0,0.0,0.0,0.0,-3.0135,-2.9471,-3.049,-3.1355,0.0,-3.1926,-3.2234,-3.2238,-3.4973,-3.5264,-2.9829,0.0,0.0,0.0,0.0,0.0,0.0,0.0,0.0,0.0,0.0,0.0,0.0,0.0,0.0,0.0,0.0,0.0,0.0,0.0,0.0,0.0,0.0,0.0,0.0,0.0,0.0,0.0,0.0,0.0,0.0,0.0,0.0,0.0,0.0,0.0,0.0,0.0,0.0,0.0,0.0,0.0,0.0,0.0,0.0,0.0,0.0,0.0,0.0,0.0,0.0,0.0,0.0,0.0,-2.1808,-2.074,-2.2649,-2.3362,-2.2706,-2.2672,-2.2844,-2.3143,-2.254,-2.1768,0.0,0.0,0.0,0.0,0.0,0.0,0.0,0.0,0.0,0.0,0.0,0.0,0.0,0.0,0.0,0.0,0.0,0.0,0.0,0.0,0.0,0.0,0.0,0.0,0.0,0.0,0.0,0.0,-2.1006,-2.1036,-2.1291,0.0,0.0,0.0,0.0,0.0,0.0,0.0,0.0,0.0,0.0,-3.0189,-3.1129,-3.1704,0.0,0.0,-3.3261,-3.3216,-3.2048,-3.3618,-3.3575,-2.9425,-2.837,0.0,0.0,0.0,0.0,0.0,0.0,0.0,0.0,0.0,0.0,0.0,0.0,0.0,0.0,0.0,0.0,0.0,0.0,0.0,0.0,0.0,0.0,0.0,0.0,0.0,0.0,0.0,0.0,0.0,0.0,0.0,0.0,0.0,0.0,0.0,0.0,0.0,0.0,0.0,0.0,0.0,0.0,0.0,0.0,0.0,0.0,0.0,0.0,0.0,0.0,0.0,0.0,-2.1659,-2.043,-2.2512,-2.3183,-2.2281,-2.2267,-2.2358,-2.2529,-2.2069,-2.1377,0.0,0.0,0.0,0.0,0.0,0.0,0.0,0.0,0.0,0.0,0.0,0.0,0.0,0.0,0.0,0.0,0.0,0.0,0.0,0.0,0.0,0.0,0.0,0.0,0.0,0.0,0.0,0.0,-2.1859,-2.1769,-2.1979,0.0,0.0,0.0,0.0,0.0,0.0,0.0,0.0,0.0,0.0,-3.0806,-3.1779,-3.2078,-3.2407,-3.311,-3.3126,-3.2736,-3.1914,-3.2602,-3.2287,-2.9609,0.0,0.0,0.0,0.0,0.0,0.0,0.0,0.0,0.0,0.0,0.0,0.0,0.0,0.0,0.0,0.0,0.0,0.0,0.0,0.0,0.0,0.0,0.0,0.0,0.0,0.0,0.0,-1.9654,0.0,0.0,-1.9169,0.0,0.0,0.0,0.0,0.0,0.0,0.0,0.0,0.0,0.0,0.0,0.0,0.0,0.0,0.0,0.0,0.0,0.0,0.0,0.0,0.0,0.0,-2.1358,-2.0708,-2.2561,-2.3111,-2.2227,-2.2187,-2.2024,-2.1748,-2.1706,-2.1532,-2.124,0.0,0.0,0.0,0.0,0.0,0.0,0.0,0.0,0.0,0.0,0.0,0.0,0.0,0.0,0.0,0.0,0.0,0.0,0.0,0.0,0.0,0.0,0.0,0.0,0.0,0.0,-2.0784,-2.1316,-2.1929,0.0,0.0,0.0,0.0,0.0,0.0,0.0,0.0,0.0,0.0,-2.9941,-3.1929,-3.0718,-3.1078,-3.1766,-3.2437,-3.1002,-3.0389,-3.2154,-3.2467,-3.2048,0.0,0.0,0.0,0.0,0.0,0.0,0.0,0.0,0.0,0.0,0.0,0.0,0.0,0.0,0.0,0.0,0.0,0.0,0.0,0.0,0.0,0.0,0.0,0.0,0.0,0.0,0.0,-1.9231,-1.9157,0.0,0.0,0.0,0.0,0.0,0.0,0.0,0.0,0.0,0.0,0.0,-2.0409,-2.0695,0.0,0.0,0.0,0.0,0.0,0.0,0.0,0.0,0.0,0.0,0.0,0.0,-2.0567,-1.9891,-2.1712,-2.2373,-2.1642,-2.1602,-2.1479,-2.1224,-2.1234,-2.106,-2.0708,0.0,0.0,0.0,0.0,0.0,0.0,0.0,0.0,0.0,0.0,0.0,0.0,0.0,0.0,0.0,0.0,0.0,0.0,0.0,0.0,0.0,0.0,0.0,0.0,0.0,-2.0323,0.0,0.0,0.0,0.0,0.0,0.0,0.0,0.0,0.0,0.0,0.0,-2.5505,-2.6833,-2.7812,-2.8611,-2.91,-2.9968,-3.0934,0.0,0.0,0.0,0.0,0.0,0.0,0.0,0.0,0.0,0.0,0.0,0.0,0.0,0.0,-3.0114,-2.8238,-2.7953,-2.7953,-2.7533,0.0,0.0,0.0,0.0,0.0,0.0,0.0,0.0,0.0,0.0,0.0,0.0,0.0,0.0,-1.9845,-1.9746,-1.9358,0.0,0.0,0.0,0.0,0.0,0.0,0.0,0.0,-2.0445,-2.0675,-2.0338,-2.0724,-2.0545,0.0,-1.997,-1.9651,0.0,0.0,0.0,0.0,0.0,0.0,0.0,0.0,-2.0166,-1.971,-2.139,-2.2012,-2.141,-2.1194,-2.094,-2.0598,-2.0721,-2.0779,-2.0729,-1.9774,-1.9459,0.0,0.0,0.0,0.0,0.0,0.0,0.0,0.0,0.0,0.0,0.0,0.0,0.0,0.0,0.0,0.0,0.0,0.0,0.0,0.0,0.0,0.0,0.0,-2.074,0.0,0.0,0.0,0.0,0.0,0.0,0.0,0.0,0.0,-2.415,-2.497,-2.5986,-2.7299,-2.7778,-2.8107,-2.8351,0.0,0.0,0.0,0.0,0.0,0.0,0.0,-2.9163,-2.8316,-2.8701,-2.9352,-3.0156,-3.1034,-3.1558,-3.1367,0.0,0.0,-2.9885,-2.9766,-2.9876,-2.9481,-2.9232,-2.8982,-2.8662,-2.8589,-2.8602,0.0,0.0,0.0,0.0,0.0,0.0,0.0,0.0,-2.1095,-2.108,0.0,-2.0158,0.0,0.0,0.0,0.0,-1.8199,-1.9706,0.0,0.0,-2.1392,-2.1854,-2.1332,-2.132,-2.1332,-2.129,-2.1308,-2.0763,-1.9797,-1.9752,0.0,0.0,0.0,0.0,0.0,0.0,-2.0195,-2.0297,-2.1617,-2.2058,-2.1521,-2.1018,-2.0478,-1.9937,-2.022,-2.0668,-2.1276,-2.0923,-2.0871,-2.1164,-1.9934,0.0,0.0,0.0,0.0,0.0,0.0,0.0,0.0,0.0,0.0,0.0,0.0,0.0,0.0,0.0,0.0,0.0,0.0,0.0,0.0,-2.1256,0.0,0.0,0.0,0.0,0.0,0.0,0.0,0.0,0.0,0.0,-2.4122,-2.6282,-2.7865,-2.7865,0.0,0.0,0.0,0.0,-2.9292,-2.8246,-2.7533,-2.7393,-2.8085,-2.9027,-2.9884,-3.0418,0.0,0.0,-3.3311,-3.2691,-3.2128,-3.1507,-3.2634,-3.3389,-3.2454,-3.1787,-3.139,-3.1327,-3.0842,-3.0125,-2.938,-2.9382,-2.9289,-2.5024,0.0,0.0,0.0,0.0,-2.16,-2.1577,-2.2251,-2.1129,-2.06,-2.0521,-1.9959,0.0,0.0,0.0,0.0,0.0,0.0,-2.0234,-2.0864,-2.1332,-2.1698,-2.1926,-2.1945,-2.1761,-2.1397,-2.1521,-2.1367,-2.0932,-2.1081,-2.0105,-1.8153,0.0,0.0,0.0,0.0,-2.0067,-2.1123,-2.2288,-2.2418,-2.1534,-2.1732,-2.1581,-2.1016,-2.0318,-2.0447,-2.1409,-2.0589,-2.0374,-2.1004,-1.9808,0.0,0.0,0.0,0.0,0.0,0.0,0.0,0.0,0.0,0.0,0.0,0.0,0.0,0.0,0.0,0.0,0.0,0.0,0.0,-2.0035,-2.063,-2.0862,0.0,0.0,0.0,0.0,0.0,0.0,0.0,0.0,0.0,-2.5108,-2.5143,-2.5296,0.0,0.0,-2.533,-2.5203,-2.6492,-2.7704,-2.8537,-2.8836,0.0,-3.0228,-3.0128,-2.9909,-2.9879,-3.1188,-3.2171,-3.199,-3.2452,-3.281,-3.2577,-3.2947,-3.3165,-3.2952,-3.3112,-3.3077,-3.2686,-3.2395,-3.2213,-3.2005,-3.1913,-3.1875,-2.505,-2.3095,-2.3854,-2.3865,-2.3288,-2.2097,-2.2051,-2.2708,-2.1646,-2.1105,-2.0949,-2.0531,-2.0117,-1.9697,-1.9381,0.0,0.0,0.0,-2.0115,-2.0625,-2.0614,-2.0828,-2.1146,-2.1158,-2.0987,-2.0711,-2.0988,-2.0997,-2.0688,-2.0538,-1.9654,-1.8039,0.0,0.0,-1.8995,-1.9668,-2.0407,-2.1297,-2.2272,-2.2426,-2.1633,-2.1863,-2.1832,-2.1481,-2.0828,-2.0891,-2.1757,-2.1154,-2.0934,-2.1183,-2.0228,-1.9535,0.0,0.0,0.0,0.0,0.0,0.0,0.0,0.0,0.0,0.0,0.0,-1.9109,-1.8214,0.0,0.0,0.0,-1.9714,-1.9887,-2.0415,-2.0616,0.0,0.0,0.0,0.0,0.0,0.0,0.0,-2.2089,-2.359,-2.4785,-2.508,-2.4739,-2.4884,-2.5945,-2.5502,-2.5114,-2.5285,0.0,-2.8072,-2.8787,-2.9415,-3.0008,-3.0597,-3.0625,-3.0625,-3.0955,-3.1564,-3.2068,-3.2089,-3.2654,-3.3099,-3.3124,-3.3124,-3.3124,-3.3124,-3.3454,-3.3624,-3.321,-3.3124,-3.3124,-3.3124,-3.3124,-3.3061,-2.4687,-2.4297,-2.4665,-2.4462,-2.3772,-2.265,-2.2455,-2.2863,-2.2371,-2.2154,-2.2106,-2.1505,-2.0944,-2.041,-1.9918,0.0,-1.9261,-1.977,-1.984,-1.9583,-1.9583,-1.9584,-1.9541,-1.9552,-1.953,-1.9531,-1.9979,-1.9979,-1.9541,-1.8997,-1.8606,-1.8466,-1.9725,-2.0248,-2.0055,-2.0526,-2.0831,-2.0945,-2.1753,-2.2022,-2.1832,-2.1555,-2.1462,-2.1575,-2.1447,-2.1672,-2.226,-2.2226,-2.2001,-2.1603,-2.1054,-2.0489,-1.9898,0.0,0.0,0.0,0.0,0.0,0.0,0.0,0.0,0.0,0.0,0.0,0.0,0.0,0.0,0.0,-2.0451,0.0,-2.1597,-2.1219,0.0,0.0,0.0,-2.2163,-2.366,-2.3477,-2.3409,-2.3916,0.0,0.0,-2.4374,-2.4826,-2.5817,-2.7742,-2.7925,-2.7784,-2.7406,-2.8624,-2.9541,-2.9038,-2.9541,-2.993,-3.0145,-3.0851,-3.1732,-3.2558,-3.3048,-3.2935,-3.2817,-3.2898,-3.296,-3.2867,-3.2973,-3.2905,-3.2887,-3.2782,-3.2857,-3.2764,-3.2963,-3.3099,-3.298,-3.2998,-3.2792,-2.3962,-2.3917,-2.3597,-2.385,-2.4299,-2.3244,-2.2855,-2.2927,-2.217,-2.1808,-2.1776,-2.0977,-2.0314,-1.9811,-1.968,-1.9574,-1.9533,-1.9641,-1.9651,-1.9605,-1.9583,-1.9403,-1.9073,-1.9062,-1.8913,-1.8656,-1.903,-1.9169,-1.9084,-1.9275,-1.9179,-1.8795,-1.9127,-1.9037,-1.8553,-1.8799,-1.9507,-2.0632,-2.081,-2.1311,-2.2055,-2.1214,-2.1146,-2.2019,-2.1183,-2.1195,-2.2189,-2.1599,-2.1646,-2.2355,-2.169,-2.1119,-2.0708,-1.9369,0.0,0.0,0.0,0.0,0.0,0.0,0.0,0.0,0.0,-1.9029,-1.7687,0.0,-1.9535,0.0,-2.1468,-2.2581,-2.2706,-2.3012,0.0,0.0,-2.2424,-2.2141,-2.2238,-2.253,-2.2463,-2.181,-2.2525,-2.3411,-2.4161,-2.4365,-2.5009,-2.6622,-2.6559,-2.6714,-2.7723,-2.8586,-2.9252,-2.9591,-3.0369,-3.0997,-3.1009,-3.1574,-3.2077,-3.2365,-3.2416,-3.2277,-3.1876,-3.1829,-3.1788,-3.18,-3.1788,-3.1622,-3.1146,-3.1026,-3.0924,-3.0804,-3.1914,-3.2943,-3.2528,-3.2416,-3.2252,-2.2862,-2.2485,-2.2262,-2.2262,-2.2442,-2.247,-2.2524,-2.2456,-2.1513,-2.1135,-2.1071,-2.0366,-1.9857,-1.9615,-1.9583,-1.9473,-1.9241,-1.9241,-1.8994,-1.8611,-1.8611,-1.8477,-1.8211,-1.8243,-1.8212,-1.8191,-1.8385,-1.8508,-1.8518,-1.8775,-1.8765,-1.8508,-1.8726,-1.8427,-1.7639,-1.8132,-1.8864,-1.9804,-2.0138,-2.1003,-2.2407,-2.1686,-2.1326,-2.1422,-2.092,-2.0629,-2.0691,-2.0308,-2.0261,-2.0524,-2.0308,-1.9892,-1.9342,-1.8386,-1.7678,0.0,0.0,0.0,0.0,0.0,0.0,0.0,0.0,0.0,0.0,0.0,-1.9712,-1.99,-2.111,-2.1959,-2.2063,-2.2233,-2.2504,-2.3026,-2.2503,-2.2404,-2.3093,-2.306,-2.2914,-2.2595,-2.2959,-2.3421,-2.3996,-2.422,-2.4704,-2.5772,-2.5841,-2.6358,-2.782,-2.8574,-2.9209,-3.0052,-3.0859,-3.1386,-3.1386,-3.1637,-3.1838,-3.1838,-3.1685,-3.1448,-3.1149,-3.0704,-3.0401,-3.036,-3.0139,-2.9834,-2.9466,-2.9393,-2.9296,-2.9293,-3.0024,-3.0876,-3.122,-3.1243,-3.1041,-2.154,-2.0729,-2.0841,-2.0423,-1.9801,-2.1073,-2.1526,-2.1367,-2.0528,-2.0147,-2.0084,-1.9671,-1.944,-1.9374,-1.9374,-1.9142,-1.8707,-1.8707,-1.8208,-1.7425,-1.7441,-1.7402,-1.7305,-1.7363,-1.7539,-1.7842,-1.79,-1.793,-1.793,-1.7978,-1.7978,-1.793,-1.8392,-1.8112,-1.719,-1.7889,-1.8395,-1.8771,-1.9466,-2.0649,-2.2297,-2.192,-2.1188,-2.0262,-2.0292,-1.9843,-1.8787,-1.8851,-1.8626,-1.8072,-1.8402,-1.825,-1.7458,-1.6857,-1.6618,0.0,-1.5879,0.0,0.0,0.0,0.0,0.0,0.0,0.0,0.0,-1.9736,-1.9576,-1.9936,-2.0248,-2.0571,-2.0899,-2.0717,-2.124,-2.2889,-2.2467,-2.2693,-2.4343,-2.3884,-2.3524,-2.3963,-2.3702,-2.3475,-2.3488,-2.3859,-2.4225,-2.4626,-2.4882,-2.565,-2.7244,-2.8051,-2.8812,-2.9952,-3.0456,-3.0384,-3.0589,-3.0745,-3.0758,-3.077,-3.0482,-3.0333,-3.0141,-2.9386,-2.8765,-2.8711,-2.8336,-2.792,-2.7803,-2.777,-2.7738,-2.765,-2.7738,-2.8214,-2.9348,-2.972,-2.9374,-2.0218,-1.9843,-1.9711,-1.9625,-1.9648,-1.9921,-1.9619,-1.8977,-1.8787,-1.8669,-1.8644,-1.8854,-1.8707,-1.8303,-1.8313,-1.8236,-1.8144,-1.8144,-1.7884,-1.7435,-1.7734,-1.7519,-1.6894,-1.7217,-1.7236,-1.697,-1.7334,-1.75,-1.7519,-1.7842,-1.7842,-1.751,-1.7599,-1.7506,-1.72,0.0,0.0,0.0,-1.8466,-1.9121,-1.9457,-1.903,-1.8695,-1.8487,-1.835,0.0,-1.84,-1.8378,-1.8427,-1.8628,-1.897,0.0,0.0,0.0,0.0,0.0,0.0,0.0,0.0,0.0,0.0,0.0,-1.6902,-1.702,-1.8009,-1.8646,-1.9245,-1.9783,-2.0286,-2.0872,-2.1688,-2.2182,-2.2653,-2.3311,-2.2893,-2.2572,-2.2558,-2.2053,-2.1588,-2.1367,-2.1271,-2.1381,-2.173,-2.1779,-2.2059,-2.2552,-2.26,-2.3268,-2.4766,-2.6129,-2.7008,-2.7259,-2.7602,-2.7681,-2.7996,-2.8149,-2.8275,-2.8065,-2.8023,-2.7843,-2.7522,-2.7254,-2.6982,-2.7005,-2.6888,-2.6576,-2.6114,-2.6018,-2.5903,-2.5584,-2.5509,-2.5968,-2.7479,-2.7824,-2.7622,-1.9561,-1.9208,-1.9088,-1.8841,0.0,-1.8524,-1.8025,-1.7266,-1.7937,-1.8079,-1.7828,-1.8225,-1.8279,-1.7998,-1.7793,-1.7705,-1.7686,-1.748,-1.7233,-1.708,-1.7252,-1.7266,-1.7061,-1.7275,-1.7383,-1.734,-1.7588,-1.7803,-1.8008,-1.8213,-1.8311,-1.8355,-1.832,-1.8316,-1.8226,-1.7757,-1.7634,-1.7883,-1.8149,-1.8599,-1.9123,-1.8691,-1.8078,-1.7334,-1.7313,0.0,0.0,0.0,0.0,0.0,0.0,0.0,0.0,-1.6429,0.0,-1.5823,-1.5556,-1.5592,-1.6019,-1.6061,-1.6334,-1.7061,-1.7111,-1.7413,-1.8013,-1.8881,-1.9533,-1.9825,-1.9933,-2.0239,-2.0903,-2.1216,-2.168,-2.2256,-2.197,-2.1603,-2.1586,-2.1175,-2.0838,-2.0644,-2.0615,-2.0703,-2.0879,-2.1064,-2.1268,-2.1533,-2.1758,-2.2192,-2.3021,-2.4385,-2.5565,-2.6356,-2.6483,-2.6603,-2.6827,-2.6895,-2.6895,-2.6895,-2.6727,-2.6459,-2.6196,-2.5694,-2.5358,-2.5326,-2.5105,-2.4691,-2.4445,-2.4307,-2.4231,-2.4079,-2.4003,-2.4227,-2.5123,-2.5754,-2.6093,-1.9114,-1.864,-1.864,-1.8215,-1.75,-1.749,-1.7041,-1.64,-1.7461,0.0,0.0,-1.7822,-1.8008,-1.7988,-1.7646,-1.7523,-1.7504,-1.7087,-1.6882,-1.6824,-1.6892,-1.7109,-1.7383,-1.7461,-1.7676,-1.8008,-1.8086,-1.8266,-1.8598,-1.8685,-1.8926,-1.9248,-1.9277,-1.9277,-1.9258,-1.8926,-1.8661,-1.8577,-1.804,-1.8249,-1.9167,-1.8659,-1.7734,-1.6477,-1.6506,-1.6053,-1.5052,-1.5079,-1.5099,-1.4985,-1.5273,-1.5107,-1.4486,-1.4886,-1.5012,-1.471,-1.4887,-1.5351,-1.6036,-1.6173,-1.6437,-1.6892,-1.7642,-1.8208,-1.8488,-1.9285,-1.9796,-1.9796,-1.9483,-1.9452,-1.9849,-1.991,-2.0214,-2.1025,-2.0783,-2.076,-2.1012,-2.0809,-2.0605,-2.0615,-2.0615,-2.0615,-2.0635,-2.0879,-2.1113,-2.1112,-2.1377,-2.1699,-2.194,-2.3052,-2.4325,-2.5288,-2.5512,-2.5777,-2.5861,-2.5799,-2.5902,-2.5737,-2.5516,-2.5316,-2.52,-2.4616,-2.4069,-2.4069,-2.3484,-2.3266,-2.3135,-2.3222,-2.3101,-2.3101,-2.3101,-2.3101,-2.3178,-2.4003,-2.4605,-1.8503,-1.811,-1.811,-1.8046,-1.792,-1.792,-1.7646,-1.721,-1.6998,-1.7096,-1.7412,-1.7822,-1.8008,-1.8008,-1.7949,-1.792,-1.792,-1.7828,-1.7637,-1.7324,-1.7666,-1.7676,-1.7412,-1.7754,-1.7949,-1.8037,-1.8344,-1.8539,-1.8637,-1.9014,-1.9238,-1.9287,-1.9277,-1.9287,-1.9277,-1.9219,-1.9027,-1.8567,-1.7686,-1.7293,-1.7435,-1.6668,-1.6133,-1.5923,-1.5393,-1.522,-1.533,-1.5036,-1.5016,-1.5291,-1.5368,-1.5339,-1.5242,-1.53,-1.5339,-1.5311,-1.5674,-1.5968,-1.6095,-1.6416,-1.695,-1.7754,-1.8247,-1.8409,-1.8137,-1.8863,-1.9407,-1.937,-1.933,-1.948,-1.985,-1.9911,-2.0096,-2.0583,-2.0634,-2.0644,-2.0693,-2.0644,-2.0615,-2.0615,-2.0615,-2.0615,-2.0625,-2.0674,-2.0742,-2.0684,-2.083,-2.0948,-2.1348,-2.2126,-2.2757,-2.3043,-2.3365,-2.3521,-2.381,-2.3594,-2.3767,-2.356,-2.3691,-2.3681,-2.3734,-2.3517,-2.3343,-2.3266,-2.3178,-2.3135,-2.3101,-2.3101,-2.3101,-2.3101,-2.3101,-2.3101,-2.3101,-2.3363,-2.344,-1.8184,-1.8018,-1.8008,-1.8008,-1.7988,-1.7764,-1.7695,-1.7676,-1.7266,-1.7187,-1.7412,-1.7822,-1.8008,-1.7988,-1.7773,-1.7666,-1.7656,-1.7422,-1.7334,-1.7393,-1.7578,-1.7695,-1.7744,-1.792,-1.8008,-1.8037,-1.8403,-1.8724,-1.9014,-1.9424,-1.9746,-1.9999,-2.0018,-2.0018,-2.0008,-1.9746,-1.9424,-1.8984,-1.8277,-1.7695,-1.7273,-1.6878,-1.6444,-1.5999,-1.5664,-1.5449,-1.542,-1.5225,-1.5215,-1.5371,-1.542,-1.5518,-1.5752,-1.5791,-1.5869,-1.6083,-1.6309,-1.6523,-1.6809,-1.7402,-1.7896,-1.833,-1.8919,-1.9212,-1.9053,-1.9404,-1.9531,-1.9326,-1.9492,-1.9609,-1.959,-1.9785,-2.0,-2.0195,-2.0458,-2.0605,-2.0615,-2.0615,-2.0615,-2.0615,-2.0615,-2.0615,-2.0615,-2.0615,-2.0615,-2.0615,-2.0615,-2.0654,-2.0859,-2.1375,-2.2002,-2.2441,-2.2861,-2.3062,-2.3091,-2.3101,-2.3101,-2.3101,-2.3101,-2.3101,-2.3101,-2.3091,-2.3081,-2.3101,-2.3091,-2.3101,-2.3101,-2.3101,-2.3101,-2.3101,-2.3101,-2.3101,-2.3101,-2.3101,-2.3101,-1.812,-1.8154,-1.812,-1.811,-1.8081,-1.7705,-1.7715,-1.7969,-1.7666,-1.7529,-1.7578,-1.7871,-1.8008,-1.7969,-1.7666,-1.7529,-1.7471,-1.7145,-1.7174,-1.75,-1.7529,-1.7695,-1.7978,-1.8008,-1.8008,-1.8076,-1.85,-1.8955,-1.9316,-1.9805,-2.0225,-2.0576,-2.0615,-2.0615,-2.0595,-2.0234,-1.9805,-1.9307,-1.8919,-1.8334,-1.7568,-1.7441,-1.7093,-1.6447,-1.629,-1.6045,-1.5732,-1.5713,-1.5713,-1.5713,-1.5713,-1.5859,-1.6212,-1.6211,-1.6377,-1.6668,-1.6794,-1.7109,-1.7637,-1.8227,-1.8685,-1.889,-1.9494,-1.9961,-2.0049,-2.0068,-1.9941,-1.9668,-1.992,-1.9932,-1.9774,-1.9873,-2.0059,-2.0088,-2.0352,-2.0595,-2.0615,-2.0615,-2.0615,-2.0615,-2.0615,-2.0615,-2.0615,-2.0615,-2.0615,-2.0615,-2.0615,-2.0615,-2.0644,-2.0947,-2.1523,-2.2038,-2.2613,-2.2916,-2.2964,-2.3042,-2.3081,-2.3091,-2.3003,-2.2935,-2.2906,-2.2877,-2.2877,-2.2877,-2.2935,-2.2984,-2.3052,-2.3101,-2.3101,-2.3101,-2.3101,-2.3101,-2.3101,-2.3101,-2.3101,-1.8549,-1.8539,-1.8539,-1.8539,-1.8481,-1.8125,-1.7969,-1.7998,-1.7959,-1.7959,-1.7939,-1.7988,-1.8018,-1.8008,-1.7969,-1.793,-1.7939,-1.791,-1.7891,-1.793,-1.7949,-1.7978,-1.8027,-1.8018,-1.8008,-1.8125,-1.8818,-1.918,-1.9287,-2.0116,-2.0556,-2.0605,-2.0615,-2.0605,-2.0586,-2.0546,-2.0126,-1.9297,-1.9248,-1.8809,-1.7988,-1.7588,-1.7344,-1.7298,-1.6875,-1.6629,-1.6531,-1.657,-1.657,-1.658,-1.6551,-1.659,-1.6629,-1.6638,-1.6668,-1.6736,-1.7109,-1.7666,-1.8383,-1.8549,-1.8948,-1.9697,-1.9816,-2.0088,-2.0478,-2.0537,-2.0527,-2.0449,-2.0498,-2.0488,-2.0498,-2.0507,-2.0498,-2.0488,-2.0566,-2.0615,-2.0615,-2.0615,-2.0615,-2.0615,-2.0615,-2.0615,-2.0615,-2.0615,-2.0615,-2.0615,-2.0615,-2.0615,-2.0635,-2.0889,-2.1132,-2.1424,-2.2021,-2.25,-2.2588,-2.29,-2.2945,-2.2994,-2.276,-2.2617,-2.2519,-2.2324,-2.2109,-2.2519,-2.2578,-2.2685,-2.2935,-2.3091,-2.3071,-2.3091,-2.3101,-2.3101,-2.3101,-2.3101,-2.3101,-1.9023,-1.8987,-1.9023,-1.8831,-1.8559,-1.8149,-1.8008,-1.8008,-1.8008,-1.8008,-1.8008,-1.8008,-1.8144,-1.8315,-1.8091,-1.811,-1.8325,-1.8091,-1.8008,-1.8008,-1.8008,-1.81,-1.8305,-1.8081,-1.8125,-1.8334,-1.8705,-1.887,-1.9043,-1.9766,-2.0312,-2.0586,-2.0615,-2.0488,-2.0205,-2.0176,-1.9756,-1.889,-1.8861,-1.8613,-1.8066,-1.7852,-1.7637,-1.7425,-1.7207,-1.6982,-1.6726,-1.6697,-1.6697,-1.6697,-1.6697,-1.6824,-1.71,-1.7119,-1.7236,-1.7447,-1.7881,-1.8237,-1.8588,-1.9065,-1.9504,-1.9893,-2.0156,-2.0419,-2.0576,-2.0615,-2.0615,-2.0615,-2.0615,-2.0615,-2.0615,-2.0615,-2.0615,-2.0615,-2.0615,-2.0615,-2.0615,-2.0615,-2.0615,-2.0615,-2.0615,-2.0615,-2.0615,-2.0615,-2.0615,-2.0615,-2.0615,-2.0615,-2.0625,-2.0772,-2.081,-2.0908,-2.1367,-2.1826,-2.209,-2.2266,-2.2402,-2.2383,-2.2266,-2.2148,-2.2109,-2.2041,-2.1973,-2.2119,-2.2129,-2.2295,-2.2685,-2.2783,-2.2769,-2.2945,-2.3101,-2.3101,-2.3101,-2.3101,-2.3101,-1.9463,-1.9424,-1.9219,-1.9004,-1.8734,-1.8232,-1.8008,-1.8008,-1.8008,-1.8008,-1.8008,-1.8008,-1.8208,-1.852,-1.8286,-1.8325,-1.8549,-1.8447,-1.8291,-1.8203,-1.8184,-1.8305,-1.8549,-1.8178,-1.8164,-1.8403,-1.8539,-1.8666,-1.8841,-1.9541,-2.0078,-2.039,-2.0429,-2.0331,-2.0098,-2.0,-1.9561,-1.8841,-1.8676,-1.8393,-1.8066,-1.8008,-1.7861,-1.7588,-1.7559,-1.7402,-1.7077,-1.7058,-1.7058,-1.7058,-1.7058,-1.7227,-1.7529,-1.7559,-1.7744,-1.8154,-1.8584,-1.8841,-1.8948,-1.9524,-1.9961,-2.0098,-2.0439,-2.0615,-2.0615,-2.0615,-2.0615,-2.0615,-2.0615,-2.0615,-2.0615,-2.0615,-2.0615,-2.0615,-2.0615,-2.0615,-2.0615,-2.0615,-2.0615,-2.0615,-2.0615,-2.0615,-2.0615,-2.0615,-2.0615,-2.0615,-2.0615,-2.0615,-2.0615,-2.0615,-2.0625,-2.0615,-2.0869,-2.1201,-2.1611,-2.1885,-2.1855,-2.1846,-2.1846,-2.1709,-2.167,-2.1641,-2.165,-2.1602,-2.166,-2.1875,-2.2275,-2.2402,-2.2604,-2.2935,-2.3091,-2.3091,-2.3101,-2.3101,-2.3101,-1.9883,-1.9756,-1.8968,-1.8861,-1.918,-1.8325,-1.7974,-1.7974,-1.7974,-1.7974,-1.7974,-1.7974,-1.8208,-1.8562,-1.8514,-1.8578,-1.8646,-1.8984,-1.887,-1.8494,-1.8559,-1.8588,-1.8559,-1.8213,-1.8037,-1.8174,-1.8451,-1.8822,-1.9268,-1.9697,-1.9884,-1.9971,-2.0019,-2.0166,-2.04,-2.0088,-1.9697,-1.9189,-1.8818,-1.8393,-1.8066,-1.8008,-1.7998,-1.7949,-1.7969,-1.793,-1.791,-1.7939,-1.793,-1.793,-1.7891,-1.7939,-1.7969,-1.7969,-1.8174,-1.8559,-1.9023,-1.9424,-1.9746,-1.9902,-2.0098,-2.0488,-2.0576,-2.0615,-2.0615,-2.0615,-2.0615,-2.0615,-2.0615,-2.0615,-2.0615,-2.0615,-2.0615,-2.0615,-2.0615,-2.0615,-2.0615,-2.0615,-2.0615,-2.0615,-2.0615,-2.0615,-2.0615,-2.0615,-2.0615,-2.0615,-2.0615,-2.0615,-2.0615,-2.0615,-2.0615,-2.0615,-2.0674,-2.0762,-2.1191,-2.1435,-2.1709,-2.167,-2.1387,-2.1229,-2.1113,-2.1016,-2.1064,-2.1113,-2.1211,-2.1445,-2.1846,-2.2236,-2.2574,-2.2867,-2.3042,-2.3081,-2.3091,-2.3101,-2.3101,-2.0166,-1.9796,-1.8742,-1.8385,-1.8407,-1.7653,-1.7426,-1.7676,-1.771,-1.7676,-1.7666,-1.7676,-1.7906,-1.8289,-1.7996,-1.8138,-1.8572,-1.8773,-1.8501,-1.8027,-1.8682,-1.8763,-1.8315,-1.8337,-1.8373,-1.8403,-1.8529,-1.8968,-1.9639,-1.9853,-2.0059,-2.0331,-2.0332,-2.0293,-2.0146,-1.999,-1.958,-1.8926,-1.8666,-1.8393,-1.8086,-1.8008,-1.8008,-1.8008,-1.8008,-1.8008,-1.8008,-1.8008,-1.8008,-1.8008,-1.8008,-1.8008,-1.8037,-1.8227,-1.8568,-1.9023,-1.9453,-1.9756,-1.9912,-2.0185,-2.0429,-2.0576,-2.0615,-2.0615,-2.0615,-2.0615,-2.0615,-2.0615,-2.0615,-2.0615,-2.0615,-2.0615,-2.0615,-2.0615,-2.0615,-2.0615,-2.0615,-2.0615,-2.0615,-2.0615,-2.0615,-2.0615,-2.0615,-2.0615,-2.0615,-2.0615,-2.0615,-2.0615,-2.0615,-2.0615,-2.0615,-2.0615,-2.0615,-2.0654,-2.0742,-2.0898,-2.1025,-2.1006,-2.0879,-2.085,-2.0742,-2.0752,-2.0801,-2.083,-2.0879,-2.1064,-2.1494,-2.209,-2.248,-2.2604,-2.2779,-2.3071,-2.3101,-2.3062,-2.3071,-2.0187,-1.9754,-1.8888,-1.8411,-1.819,-1.7427,-1.7232,-1.7502,-1.7492,-1.7436,-1.7367,-1.7436,-1.7596,-1.7638,-1.7409,-1.7551,-1.8066,-1.84,-1.8282,-1.7802,-1.8688,-1.8822,-1.8393,-1.8368,-1.849,-1.8672,-1.8922,-1.927,-1.9678,-1.9853,-2.0078,-2.0332,-2.039,-2.0293,-2.0117,-2.0,-1.9563,-1.9085,-1.888,-1.8711,-1.8447,-1.8428,-1.8418,-1.8418,-1.8418,-1.8271,-1.8027,-1.8008,-1.8008,-1.8018,-1.8135,-1.8247,-1.8437,-1.8818,-1.9134,-1.9492,-1.9893,-2.0127,-2.0156,-2.0439,-2.0605,-2.0605,-2.0615,-2.0615,-2.0615,-2.0615,-2.0615,-2.0615,-2.0615,-2.0615,-2.0615,-2.0615,-2.0615,-2.0615,-2.0615,-2.0615,-2.0615,-2.0615,-2.0615,-2.0615,-2.0615,-2.0615,-2.0615,-2.0615,-2.0615,-2.0615,-2.0615,-2.0615,-2.0615,-2.0615,-2.0615,-2.0615,-2.0615,-2.0615,-2.0674,-2.0752,-2.0791,-2.0752,-2.0752,-2.0654,-2.0615,-2.0615,-2.0615,-2.0615,-2.0703,-2.083,-2.123,-2.1846,-2.2148,-2.2314,-2.2725,-2.3052,-2.3042,-2.3013,-2.3023,-1.9899,-1.9781,-1.9449,-1.8891,-1.844,-1.7679,-1.7432,-1.743,-1.7451,-1.726,-1.7026,-1.7292,-1.7278,-1.7007,-1.6895,-1.691,-1.7173,-1.7981,-1.8256,-1.8018,-1.8543,-1.8736,-1.8531,-1.8284,-1.8378,-1.8776,-1.9511,-1.9687,-1.9482,-1.9814,-2.001,-1.9971,-2.0039,-2.0215,-2.0576,-2.0156,-1.9932,-1.9746,-1.9453,-1.9258,-1.9268,-1.918,-1.916,-1.9189,-1.9189,-1.8848,-1.8115,-1.8086,-1.8125,-1.8154,-1.8412,-1.8848,-1.9219,-1.959,-1.9835,-1.9951,-2.0312,-2.0556,-2.0576,-2.0586,-2.0615,-2.0615,-2.0615,-2.0615,-2.0615,-2.0615,-2.0615,-2.0615,-2.0615,-2.0615,-2.0615,-2.0615,-2.0615,-2.0615,-2.0615,-2.0615,-2.0615,-2.0615,-2.0615,-2.0615,-2.0615,-2.0615,-2.0615,-2.0615,-2.0615,-2.0615,-2.0615,-2.0615,-2.0615,-2.0615,-2.0615,-2.0615,-2.0615,-2.0615,-2.0615,-2.0615,-2.0625,-2.0625,-2.0635,-2.0615,-2.0615,-2.0615,-2.0615,-2.0615,-2.0615,-2.0732,-2.0937,-2.1494,-2.1738,-2.1982,-2.2477,-2.2828,-2.2764,-2.2705,-2.2935,-1.9735,-1.943,-1.876,-1.8246,-1.7825,-1.7066,-1.6846,-1.709,-1.7099,-1.7027,-1.6956,-1.7027,-1.7018,-1.6813,-1.6413,-1.6281,-1.65,-1.6925,-1.7174,-1.7466,-1.8506,-1.8652,-1.8089,-1.8306,-1.8683,-1.9156,-1.9628,-2.0019,-2.0156,-2.0321,-2.04,-2.0361,-2.0352,-2.0458,-2.0586,-2.0458,-2.0244,-1.9932,-1.9785,-1.959,-1.9316,-1.9287,-1.9287,-1.9277,-1.9277,-1.9141,-1.8916,-1.8887,-1.8887,-1.8877,-1.9014,-1.9277,-1.9658,-1.9796,-2.0049,-2.0322,-2.0517,-2.0615,-2.0615,-2.0615,-2.0615,-2.0615,-2.0615,-2.0615,-2.0615,-2.0615,-2.0615,-2.0615,-2.0615,-2.0615,-2.0615,-2.0615,-2.0615,-2.0615,-2.0615,-2.0615,-2.0615,-2.0615,-2.0615,-2.0615,-2.0615,-2.0615,-2.0615,-2.0615,-2.0615,-2.0615,-2.0615,-2.0615,-2.0615,-2.0615,-2.0615,-2.0615,-2.0615,-2.0615,-2.0615,-2.0615,-2.0615,-2.0615,-2.0615,-2.0615,-2.0615,-2.0615,-2.0615,-2.0615,-2.0615,-2.0683,-2.085,-2.1103,-2.1406,-2.167,-2.2068,-2.2236,-2.2197,-2.2383,-2.2685,-1.9526,-1.9198,-1.8447,-1.7868,-1.7445,-1.6724,-1.6491,-1.6701,-1.6837,-1.6766,-1.6561,-1.6784,-1.6713,-1.6437,-1.6006,-1.5947,-1.6131,-1.6428,-1.6707,-1.7033,-1.803,-1.8222,-1.7781,-1.8381,-1.8905,-1.9293,-1.9707,-2.0139,-2.0595,-2.0615,-2.0605,-2.0605,-2.0615,-2.0605,-2.0615,-2.0605,-2.04,-2.0185,-2.0156,-2.0029,-1.9852,-1.9756,-1.9793,-1.9803,-1.9803,-1.9756,-1.9793,-1.9756,-1.9609,-1.9431,-1.9424,-1.9727,-2.0107,-2.0166,-2.0321,-2.0527,-2.0615,-2.0615,-2.0615,-2.0615,-2.0615,-2.0615,-2.0615,-2.0615,-2.0615,-2.0615,-2.0615,-2.0615,-2.0615,-2.0615,-2.0615,-2.0615,-2.0615,-2.0615,-2.0615,-2.0615,-2.0615,-2.0615,-2.0615,-2.0615,-2.0615,-2.0615,-2.0615,-2.0615,-2.0615,-2.0615,-2.0615,-2.0615,-2.0615,-2.0615,-2.0615,-2.0615,-2.0615,-2.0615,-2.0615,-2.0615,-2.0615,-2.0615,-2.0615,-2.0615,-2.0615,-2.0615,-2.0615,-2.0615,-2.0615,-2.0615,-2.0781,-2.1035,-2.1288,-2.1531,-2.167,-2.1807,-2.1894,-2.2158,-2.2432,-1.9282,-1.9158,-1.8431,-1.793,-1.7493,-1.6802,-1.6527,-1.6504,-1.6814,-1.6612,-1.6223,-1.6727,-1.6577,-1.6005,-1.5968,-1.5995,-1.5959,-1.655,-1.6901,-1.7051,-1.7489,-1.773,-1.8014,-1.8475,-1.893,-1.9286,-1.9689,-2.0148,-2.0566,-2.0615,-2.0615,-2.0615,-2.0615,-2.0615,-2.0615,-2.0615,-2.0595,-2.0546,-2.0566,-2.0537,-2.0517,-2.0546,-2.0537,-2.0527,-2.0507,-2.0498,-2.0468,-2.0458,-2.0165,-1.9578,-1.9785,-2.0127,-2.0507,-2.0605,-2.0576,-2.0615,-2.0615,-2.0615,-2.0615,-2.0615,-2.0615,-2.0615,-2.0615,-2.0615,-2.0615,-2.0615,-2.0615,-2.0615,-2.0615,-2.0615,-2.0615,-2.0615,-2.0615,-2.0615,-2.0615,-2.0615,-2.0615,-2.0615,-2.0615,-2.0615,-2.0615,-2.0615,-2.0615,-2.0615,-2.0615,-2.0615,-2.0615,-2.0615,-2.0615,-2.0615,-2.0615,-2.0615,-2.0615,-2.0615,-2.0615,-2.0615,-2.0615,-2.0615,-2.0615,-2.0615,-2.0615,-2.0615,-2.0615,-2.0615,-2.0615,-2.0615,-2.0683,-2.0908,-2.0967,-2.0967,-2.1152,-2.1416,-2.1641,-2.1826,-2.2051,-1.914,-1.8834,-1.8625,-1.8285,-1.7817,-1.7364,-1.7188,-1.7196,-1.7247,-1.6971,-1.6776,-1.7127,-1.6842,-1.6259,-1.6436,-1.6473,-1.6342,-1.6667,-1.709,-1.7312,-1.7445,-1.7689,-1.806,-1.8491,-1.8922,-1.9301,-1.9706,-2.0137,-2.0566,-2.0615,-2.0615,-2.0615,-2.0615,-2.0615,-2.0615,-2.0615,-2.0615,-2.0615,-2.0615,-2.0615,-2.0615,-2.0615,-2.0615,-2.0615,-2.0615,-2.0615,-2.0615,-2.0615,-2.0537,-2.0321,-2.0361,-2.0458,-2.0586,-2.0615,-2.0615,-2.0615,-2.0615,-2.0615,-2.0615,-2.0615,-2.0615,-2.0615,-2.0615,-2.0615,-2.0615,-2.0615,-2.0615,-2.0615,-2.0615,-2.0615,-2.0615,-2.0615,-2.0615,-2.0615,-2.0615,-2.0615,-2.0615,-2.0615,-2.0615,-2.0615,-2.0615,-2.0615,-2.0615,-2.0615,-2.0615,-2.0615,-2.0615,-2.0615,-2.0615,-2.0615,-2.0615,-2.0615,-2.0615,-2.0615,-2.0615,-2.0615,-2.0615,-2.0615,-2.0615,-2.0615,-2.0615,-2.0615,-2.0615,-2.0615,-2.0615,-2.0615,-2.0615,-2.0693,-2.0625,-2.0615,-2.0869,-2.123,-2.1201,-2.1309,-2.1553,-1.8891,-1.8683,-1.8316,-1.8039,-1.7723,-1.7227,-1.709,-1.7184,-1.7093,-1.693,-1.6756,-1.6884,-1.6747,-1.6342,-1.6567,-1.6653,-1.6599,-1.6978,-1.7252,-1.7497,-1.7646,-1.7843,-1.8046,-1.8331,-1.8714,-1.9301,-1.9548,-2.002,-2.0489,-2.0615,-2.0615,-2.0615,-2.0615,-2.0615,-2.0615,-2.0615,-2.0615,-2.0615,-2.0615,-2.0615,-2.0615,-2.0615,-2.0615,-2.0615,-2.0615,-2.0615,-2.0615,-2.0615,-2.0605,-2.0595,-2.0605,-2.0615,-2.0615,-2.0615,-2.0615,-2.0615,-2.0615,-2.0615,-2.0615,-2.0615,-2.0615,-2.0615,-2.0615,-2.0615,-2.0615,-2.0615,-2.0615,-2.0615,-2.0615,-2.0615,-2.0615,-2.0615,-2.0615,-2.0615,-2.0615,-2.0615,-2.0615,-2.0615,-2.0615,-2.0615,-2.0615,-2.0615,-2.0615,-2.0615,-2.0615,-2.0615,-2.0615,-2.0615,-2.0615,-2.0615,-2.0615,-2.0615,-2.0615,-2.0615,-2.0615,-2.0615,-2.0615,-2.0615,-2.0615,-2.0615,-2.0615,-2.0615,-2.0615,-2.0615,-2.0615,-2.0615,-2.0615,-2.0615,-2.0615,-2.0693,-2.0869,-2.0918,-2.0889,-2.0957,-2.1152,-1.862,-1.8585,-1.7869,-1.7526,-1.7371,-1.6744,-1.6698,-1.6779,-1.667,-1.6544,-1.6536,-1.6473,-1.6576,-1.6368,-1.6713,-1.6739,-1.6957,-1.72,-1.7335,-1.7497,-1.7626,-1.7813,-1.7983,-1.804,-1.8514,-1.9103,-1.9271,-1.9775,-2.0284,-2.0527,-2.0615,-2.0615,-2.0615,-2.0615,-2.0615,-2.0615,-2.0615,-2.0615,-2.0615,-2.0615,-2.0615,-2.0615,-2.0615,-2.0615,-2.0615,-2.0615,-2.0615,-2.0615,-2.0615,-2.0615,-2.0615,-2.0615,-2.0615,-2.0615,-2.0615,-2.0615,-2.0615,-2.0615,-2.0615,-2.0615,-2.0615,-2.0615,-2.0615,-2.0615,-2.0615,-2.0615,-2.0615,-2.0615,-2.0615,-2.0615,-2.0615,-2.0615,-2.0615,-2.0615,-2.0615,-2.0615,-2.0615,-2.0615,-2.0615,-2.0615,-2.0615,-2.0615,-2.0615,-2.0615,-2.0615,-2.0615,-2.0615,-2.0615,-2.0615,-2.0615,-2.0615,-2.0615,-2.0615,-2.0615,-2.0615,-2.0615,-2.0615,-2.0615,-2.0615,-2.0615,-2.0615,-2.0615,-2.0615,-2.0615,-2.0615,-2.0615,-2.0615,-2.0615,-2.0615,-2.0635,-2.0723,-2.0674,-2.0644,-2.0723,-2.085,-1.8161,-1.8112,-1.7954,-1.759,-1.7177,-1.7189,-1.696,-1.662,-1.6725,-1.6735,-1.6858,-1.7072,-1.7021,-1.6824,-1.7269,-1.7578,-1.7272,-1.7181,-1.7122,-1.7187,-1.7188,-1.7538,-1.787,-1.8,-1.8322,-1.8803,-1.9192,-1.9578,-2.002,-2.0372,-2.0605,-2.0566,-2.0527,-2.0615,-2.0615,-2.0566,-2.0615,-2.0615,-2.0615,-2.0615,-2.0615,-2.0615,-2.0615,-2.0615,-2.0615,-2.0615,-2.0615,-2.0615,-2.0615,-2.0615,-2.0615,-2.0615,-2.0615,-2.0615,-2.0615,-2.0615,-2.0615,-2.0615,-2.0615,-2.0615,-2.0615,-2.0615,-2.0615,-2.0615,-2.0615,-2.0615,-2.0615,-2.0615,-2.0615,-2.0615,-2.0615,-2.0615,-2.0615,-2.0615,-2.0615,-2.0615,-2.0615,-2.0615,-2.0615,-2.0615,-2.0615,-2.0615,-2.0615,-2.0615,-2.0615,-2.0615,-2.0615,-2.0615,-2.0615,-2.0615,-2.0615,-2.0615,-2.0615,-2.0615,-2.0615,-2.0566,-2.0489,-2.0489,-2.0527,-2.0615,-2.0615,-2.0615,-2.0615,-2.0615,-2.0615,-2.0615,-2.0615,-2.0615,-2.0615,-2.0615,-2.0615,-2.0615,-2.0615,-2.0615,-2.0713,-1.7991,-1.7951,-1.7668,-1.7375,-1.7025,-1.6717,-1.6612,-1.6676,-1.6478,-1.6737,-1.7103,-1.7235,-1.7192,-1.7184,-1.7385,-1.7369,-1.7199,-1.6814,-1.6583,-1.6665,-1.6837,-1.7212,-1.7546,-1.791,-1.8241,-1.866,-1.8891,-1.924,-1.9627,-2.002,-2.0264,-2.0294,-2.0245,-2.0411,-2.0489,-2.0401,-2.0411,-2.0576,-2.0615,-2.0615,-2.0615,-2.0615,-2.0615,-2.0615,-2.0615,-2.0615,-2.0615,-2.0615,-2.0615,-2.0615,-2.0615,-2.0615,-2.0615,-2.0615,-2.0615,-2.0615,-2.0615,-2.0615,-2.0615,-2.0615,-2.0615,-2.0615,-2.0615,-2.0615,-2.0615,-2.0615,-2.0615,-2.0615,-2.0615,-2.0615,-2.0615,-2.0615,-2.0615,-2.0615,-2.0615,-2.0615,-2.0615,-2.0615,-2.0615,-2.0615,-2.0615,-2.0615,-2.0615,-2.0615,-2.0615,-2.0615,-2.0615,-2.0615,-2.0615,-2.0615,-2.0615,-2.0615,-2.0615,-2.0615,-2.0615,-2.0527,-2.0362,-2.0362,-2.0372,-2.0489,-2.0615,-2.0615,-2.0615,-2.0615,-2.0615,-2.0615,-2.0615,-2.0615,-2.0615,-2.0615,-2.0615,-2.0615,-2.0674,-2.0762,-2.0918,-1.7951,-1.7838,-1.7302,-1.6968,-1.6667,-1.5915,-1.5988,-1.6565,-1.6147,-1.6561,-1.7255,-1.7047,-1.6999,-1.7245,-1.6946,-1.6849,-1.6612,-1.6296,-1.5982,-1.6263,-1.6386,-1.6886,-1.7302,-1.7708,-1.804,-1.854,-1.87,-1.8931,-1.9231,-1.9578,-1.9824,-1.9824,-1.9824,-1.9971,-2.0167,-2.0059,-2.002,-2.0372,-2.0411,-2.0527,-2.0566,-2.0615,-2.0615,-2.0615,-2.0615,-2.0615,-2.0615,-2.0615,-2.0615,-2.0615,-2.0615,-2.0615,-2.0615,-2.0615,-2.0615,-2.0615,-2.0615,-2.0615,-2.0615,-2.0615,-2.0615,-2.0615,-2.0615,-2.0615,-2.0615,-2.0615,-2.0615,-2.0615,-2.0615,-2.0615,-2.0615,-2.0615,-2.0615,-2.0615,-2.0615,-2.0615,-2.0615,-2.0615,-2.0615,-2.0615,-2.0615,-2.0615,-2.0615,-2.0615,-2.0615,-2.0615,-2.0615,-2.0615,-2.0615,-2.0615,-2.0615,-2.045,-2.0362,-1.9971,-1.9893,-1.9932,-1.9844,-2.0118,-2.0128,-2.0372,-2.0527,-2.0615,-2.0615,-2.0615,-2.0615,-2.0615,-2.0615,-2.0615,-2.0615,-2.0615,-2.0615,-2.0615,-2.0732,-2.0967,-2.1162,-1.7716,-1.7261,-1.7139,-1.6484,-1.5523,-1.543,-1.5581,-1.5736,-1.5896,-1.65,-1.7324,-1.6876,-1.6867,-1.6903,-1.6449,-1.5973,-1.564,-1.5345,-1.5526,-1.5775,-1.5824,-1.6154,-1.7343,-1.7424,-1.7627,-1.8121,-1.8451,-1.8692,-1.8843,-1.9192,-1.939,-1.942,-1.942,-1.9499,-1.9539,-1.9469,-1.9618,-1.9981,-2.0059,-2.0206,-2.045,-2.0576,-2.0615,-2.0615,-2.0615,-2.0615,-2.0615,-2.0615,-2.0615,-2.0615,-2.0615,-2.0615,-2.0615,-2.0615,-2.0615,-2.0615,-2.0615,-2.0615,-2.0615,-2.0615,-2.0615,-2.0615,-2.0615,-2.0615,-2.0615,-2.0615,-2.0615,-2.0615,-2.0615,-2.0615,-2.0615,-2.0615,-2.0615,-2.0615,-2.0615,-2.0615,-2.0615,-2.0615,-2.0615,-2.0615,-2.0615,-2.0615,-2.0615,-2.0615,-2.0615,-2.0615,-2.0615,-2.0615,-2.0615,-2.0615,-2.0615,-2.0362,-2.0079,-1.9529,-1.9015,-1.9054,-1.9134,-1.9638,-1.9883,-2.0167,-2.0362,-2.0527,-2.0615,-2.0615,-2.0615,-2.0615,-2.0615,-2.0615,-2.0615,-2.0615,-2.0615,-2.0615,-2.083,-2.1103,-2.1475,-1.7335,-1.6968,-1.6353,-1.5707,-1.5103,-1.4842,-1.5174,-1.5789,-1.5966,-1.666,-1.7397,-1.7416,-1.7162,-1.692,-1.6548,-1.5772,-1.4998,-1.4615,-1.4776,-1.4999,-1.5124,-1.5699,-1.7049,-1.7009,-1.7505,-1.791,-1.825,-1.8379,-1.8371,-1.8812,-1.8953,-1.9002,-1.9002,-1.9073,-1.9192,-1.9112,-1.9222,-1.9499,-1.9784,-1.9981,-2.0255,-2.045,-2.0566,-2.0615,-2.0615,-2.0615,-2.0615,-2.0615,-2.0615,-2.0615,-2.0615,-2.0615,-2.0615,-2.0615,-2.0615,-2.0615,-2.0615,-2.0615,-2.0615,-2.0615,-2.0615,-2.0615,-2.0615,-2.0615,-2.0615,-2.0615,-2.0615,-2.0615,-2.0615,-2.0615,-2.0615,-2.0615,-2.0615,-2.0615,-2.0615,-2.0615,-2.0615,-2.0615,-2.0615,-2.0615,-2.0615,-2.0615,-2.0615,-2.0615,-2.0615,-2.0615,-2.0615,-2.0566,-2.0566,-2.0489,-2.045,-2.0128,-1.9805,-1.9292,-1.8736,-1.8656,-1.8895,-1.9362,-1.952,-1.9805,-2.0235,-2.041,-2.0557,-2.0615,-2.0615,-2.0762,-2.0615,-2.0615,-2.0615,-2.0615,-2.0644,-2.0732,-2.0967,-2.1269,-2.168,-1.6927,-1.655,-1.5533,-1.5048,-1.4838,-1.4341,-1.4783,-1.5726,-1.5876,-1.6478,-1.7505,-1.7367,-1.6992,-1.661,-1.6079,-1.5367,-1.4398,-1.4211,-1.4279,-1.4503,-1.4713,-1.5333,-1.627,-1.6689,-1.7302,-1.8138,-1.8203,-1.8059,-1.8121,-1.8402,-1.8531,-1.8571,-1.8571,-1.8683,-1.8873,-1.8643,-1.8834,-1.9152,-1.9469,-1.9676,-1.9981,-2.0255,-2.0527,-2.0615,-2.0615,-2.0615,-2.0615,-2.0615,-2.0615,-2.0615,-2.0615,-2.0615,-2.0615,-2.0615,-2.0615,-2.0615,-2.0615,-2.0615,-2.0615,-2.0615,-2.0615,-2.0615,-2.0615,-2.0615,-2.0615,-2.0615,-2.0615,-2.0615,-2.0615,-2.0615,-2.0615,-2.0615,-2.0615,-2.0615,-2.0615,-2.0615,-2.0615,-2.0615,-2.0615,-2.0615,-2.0615,-2.0615,-2.0615,-2.0615,-2.0615,-2.0615,-2.0615,-2.0323,-2.0284,-2.0206,-2.0128,-1.9854,-1.949,-1.9054,-1.8656,-1.8425,-1.8816,-1.9441,-1.9283,-1.9244,-1.9813,-2.0312,-2.0419,-2.0564,-2.1006,-2.1103,-2.0889,-2.0586,-2.0615,-2.0635,-2.0683,-2.081,-2.1084,-2.1553,-2.206,-1.6402,-1.5333,-1.5173,-1.4755,-1.425,-1.4124,-1.4503,-1.5208,-1.5291,-1.5616,-1.6468,-1.5816,-1.5624,-1.5345,-1.4789,-1.435,-1.4203,-1.4174,-1.4334,-1.4629,-1.4587,-1.5305,-1.6623,-1.6353,-1.7375,-1.8303,-1.8528,-1.8323,-1.8228,-1.8241,-1.8155,-1.8213,-1.8221,-1.8152,-1.8322,-1.8241,-1.8322,-1.8692,-1.8851,-1.921,-1.9754,-1.9942,-2.0177,-2.0411,-2.0527,-2.0527,-2.0489,-2.0527,-2.0527,-2.0615,-2.0615,-2.0615,-2.0615,-2.0615,-2.0615,-2.0615,-2.0615,-2.0615,-2.0615,-2.0615,-2.0615,-2.0615,-2.0615,-2.0615,-2.0615,-2.0615,-2.0615,-2.0615,-2.0615,-2.0615,-2.0615,-2.0615,-2.0615,-2.0615,-2.0615,-2.0615,-2.0615,-2.0615,-2.0615,-2.0615,-2.0615,-2.0615,-2.0615,-2.0615,-2.0615,-2.0615,-2.0527,-2.0245,-2.0001,-1.9923,-1.9529,-1.9134,-1.921,-1.8851,-1.8623,-1.8363,-1.8739,-1.9439,-1.9297,-1.8977,-1.9536,-2.0136,-2.0323,-2.0535,-2.1041,-2.1215,-2.0785,-2.0584,-2.0576,-2.0801,-2.1016,-2.1113,-2.1151,-2.1758,-2.2383,-1.5624,-1.5082,-1.4713,-1.4377,-1.413,-1.4088,-1.4503,-1.5006,-1.5131,-1.5492,-1.5974,-1.5816,-1.5492,-1.5006,-1.4377,-1.4124,-1.4088,-1.4088,-1.4215,-1.4636,-1.4685,-1.5427,-1.6533,-1.6956,-1.7753,-1.8532,-1.8956,-1.8921,-1.8699,-1.8648,-1.8596,-1.8357,-1.834,-1.8228,-1.8102,-1.8008,-1.8112,-1.8322,-1.858,-1.8962,-1.939,-1.9578,-1.9657,-1.9854,-1.9893,-2.002,-2.0177,-2.0216,-2.0372,-2.0489,-2.0615,-2.0615,-2.0615,-2.0615,-2.0615,-2.0615,-2.0615,-2.0615,-2.0615,-2.0615,-2.0615,-2.0615,-2.0615,-2.0615,-2.0615,-2.0615,-2.0615,-2.0615,-2.0615,-2.0615,-2.0615,-2.0615,-2.0615,-2.0615,-2.0615,-2.0615,-2.0615,-2.0615,-2.0615,-2.0615,-2.0615,-2.0615,-2.0615,-2.0615,-2.045,-2.0167,-2.0177,-2.0108,-1.9775,-1.9569,-1.8966,-1.8296,-1.85,-1.8664,-1.8501,-1.8326,-1.873,-1.9277,-1.959,-1.9383,-1.9558,-1.9897,-2.0085,-2.0463,-2.0938,-2.093,-2.0633,-2.0838,-2.1129,-2.1307,-2.1465,-2.145,-2.1494,-2.1919,-2.2454,-1.4838,-1.4797,-1.4334,-1.4088,-1.4088,-1.4088,-1.4377,-1.4797,-1.4797,-1.5124,-1.5484,-1.5526,-1.5242,-1.488,-1.4334,-1.4088,-1.4088,-1.4088,-1.4088,-1.4348,-1.4888,-1.558,-1.6414,-1.709,-1.8165,-1.9039,-1.9264,-1.9358,-1.9409,-1.9228,-1.8955,-1.8759,-1.8742,-1.8614,-1.8417,-1.8374,-1.8382,-1.8252,-1.8391,-1.8692,-1.9073,-1.9152,-1.9231,-1.9301,-1.9332,-1.942,-1.9706,-1.9745,-1.9971,-2.0294,-2.0372,-2.0411,-2.0566,-2.0615,-2.0615,-2.0615,-2.0615,-2.0615,-2.0615,-2.0615,-2.0615,-2.0615,-2.0615,-2.0615,-2.0615,-2.0615,-2.0615,-2.0615,-2.0615,-2.0615,-2.0615,-2.0615,-2.0615,-2.0615,-2.0615,-2.0615,-2.0615,-2.0615,-2.0615,-2.0615,-2.0615,-2.0615,-2.0615,-2.0615,-2.0333,-1.9883,-1.9784,-1.9831,-1.9571,-1.9177,-1.8728,-1.8069,-1.8112,-1.8535,-1.8854,-1.8776,-1.9032,-1.9008,-1.9316,-1.9384,-1.9314,-1.9571,-1.9814,-2.0267,-2.0813,-2.1113,-2.1113,-2.1436,-2.17,-2.1498,-2.1416,-2.1704,-2.1915,-2.2221,-2.2246,-1.4166,-1.4166,-1.413,-1.4088,-1.4088,-1.4088,-1.413,-1.425,-1.4208,-1.425,-1.4419,-1.4292,-1.4377,-1.4215,-1.4215,-1.4088,-1.4088,-1.4088,-1.4088,-1.4423,-1.5049,-1.554,-1.626,-1.7223,-1.8256,-1.8689,-1.9065,-1.9561,-1.9853,-1.9155,-1.911,-1.9153,-1.8947,-1.9042,-1.9016,-1.8803,-1.8768,-1.8537,-1.8411,-1.84,-1.8656,-1.8798,-1.8882,-1.9143,-1.9262,-1.9301,-1.9341,-1.9341,-1.9578,-1.9981,-2.0059,-2.0255,-2.0527,-2.0576,-2.0615,-2.0615,-2.0615,-2.0615,-2.0615,-2.0615,-2.0615,-2.0615,-2.0615,-2.0615,-2.0615,-2.0615,-2.0615,-2.0615,-2.0615,-2.0615,-2.0615,-2.0615,-2.0615,-2.0615,-2.0615,-2.0615,-2.0615,-2.0615,-2.0615,-2.0615,-2.0625,-2.0654,-2.0732,-2.0771,-2.021,-1.9724,-1.9358,-1.9381,-1.9088,-1.8745,-1.8541,-1.8142,-1.8026,-1.8427,-1.928,-1.9273,-1.8746,-1.8567,-1.8737,-1.875,-1.8686,-1.9045,-1.965,-2.0114,-2.0614,-2.112,-2.1495,-2.1389,-2.1306,-2.1254,-2.1311,-2.1545,-2.1497,-2.1487,-2.1528,-1.4088,-1.4088,-1.4088,-1.4088,-1.4088,-1.4088,-1.4088,-1.4088,-1.4088,-1.4088,-1.4088,-1.4088,-1.4088,-1.4088,-1.4088,-1.4088,-1.4088,-1.4088,-1.4102,-1.4436,-1.4992,-1.559,-1.6235,-1.6995,-1.795,-1.8253,-1.8621,-1.8744,-1.8772,-1.8635,-1.8594,-1.8566,-1.8673,-1.8646,-1.8651,-1.8963,-1.8999,-1.8871,-1.8555,-1.8506,-1.8504,-1.8386,-1.8362,-1.8474,-1.8514,-1.8674,-1.8843,-1.8922,-1.9311,-1.9706,-1.9863,-2.0137,-2.0489,-2.0566,-2.0615,-2.0615,-2.0615,-2.0615,-2.0615,-2.0615,-2.0615,-2.0615,-2.0615,-2.0566,-2.0527,-2.0566,-2.0605,-2.0615,-2.0615,-2.0615,-2.0615,-2.0615,-2.0615,-2.0615,-2.0615,-2.0615,-2.0615,-2.0615,-2.0693,-2.0684,-2.0723,-2.0732,-2.085,-2.1016,-2.0278,-1.9593,-1.9191,-1.891,-1.8735,-1.8548,-1.8389,-1.8338,-1.8253,-1.843,-1.9208,-1.8864,-1.8338,-1.8232,-1.8168,-1.8174,-1.826,-1.9036,-1.9647,-2.0039,-2.0255,-2.0496,-2.0685,-2.0882,-2.1002,-2.1206,-2.128,-2.1359,-2.1149,-2.0721,-2.0594,-1.4088,-1.4088,-1.4088,-1.4088,-1.4088,-1.4088,-1.4088,-1.4088,-1.4088,-1.4088,-1.4088,-1.4088,-1.4088,-1.4088,-1.4088,-1.4168,-1.4215,-1.4249,-1.4302,-1.4715,-1.5348,-1.5758,-1.6274,-1.6949,-1.7789,-1.787,-1.804,-1.8172,-1.8218,-1.7893,-1.7801,-1.7857,-1.8018,-1.7996,-1.8354,-1.8671,-1.8943,-1.8669,-1.8684,-1.8355,-1.8204,-1.8114,-1.7959,-1.7991,-1.8031,-1.8322,-1.8571,-1.8652,-1.8922,-1.939,-1.9745,-1.9942,-2.0255,-2.0489,-2.0566,-2.0615,-2.0615,-2.0615,-2.0615,-2.0615,-2.0489,-2.0284,-2.0235,-2.0235,-2.0313,-2.0313,-2.0245,-2.0615,-2.0615,-2.0615,-2.0576,-2.0615,-2.0615,-2.0615,-2.0615,-2.0615,-2.0615,-2.0615,-2.0713,-2.081,-2.085,-2.0977,-2.1207,-2.132,-2.0828,-1.9998,-1.9289,-1.9042,-1.8962,-1.875,-1.8438,-1.8455,-1.8499,-1.8775,-1.9133,-1.8483,-1.7872,-1.7606,-1.7628,-1.7734,-1.8041,-1.8804,-1.9409,-1.9741,-1.9877,-1.982,-1.9951,-2.021,-2.0748,-2.1346,-2.1096,-2.0603,-1.9827,-1.9327,-1.9343,-1.4088,-1.4088,-1.4088,-1.4088,-1.4115,-1.4095,-1.4095,-1.4088,-1.4088,-1.4122,-1.4168,-1.4148,-1.4122,-1.4128,-1.4162,-1.4235,-1.4355,-1.4442,-1.4563,-1.4947,-1.5569,-1.5864,-1.6207,-1.6807,-1.7299,-1.725,-1.7419,-1.766,-1.7854,-1.7279,-1.7044,-1.6998,-1.7113,-1.7448,-1.8041,-1.8475,-1.8279,-1.7774,-1.8342,-1.811,-1.7826,-1.7904,-1.791,-1.7955,-1.8126,-1.8475,-1.854,-1.8668,-1.8972,-1.9399,-1.9631,-1.986,-2.0108,-2.045,-2.0566,-2.0615,-2.0615,-2.0615,-2.0615,-2.0615,-2.0362,-1.9962,-1.9991,-1.9874,-1.9756,-1.9717,-1.9962,-2.045,-2.0527,-2.0527,-2.0566,-2.0615,-2.0615,-2.0615,-2.0615,-2.0615,-2.0615,-2.0723,-2.0879,-2.1025,-2.1182,-2.1337,-2.1549,-2.1629,-2.1344,-2.0601,-1.9615,-1.9186,-1.9123,-1.8884,-1.8591,-1.855,-1.8675,-1.8776,-1.8811,-1.8072,-1.7475,-1.7192,-1.7232,-1.7606,-1.7746,-1.8156,-1.8773,-1.9296,-1.9379,-1.9271,-1.9417,-1.9592,-2.0011,-2.032,-1.9903,-1.9376,-1.8557,-1.8002,-1.8002,-1.4088,-1.4088,-1.4088,-1.4195,-1.4355,-1.4369,-1.4269,-1.4108,-1.4108,-1.4302,-1.4569,-1.4482,-1.4376,-1.4376,-1.4349,-1.4335,-1.4282,-1.4476,-1.4629,-1.478,-1.5502,-1.5567,-1.5809,-1.614,-1.6527,-1.6339,-1.6534,-1.6676,-1.6487,-1.6386,-1.6251,-1.6204,-1.6386,-1.6951,-1.7909,-1.8531,-1.8637,-1.8109,-1.8342,-1.842,-1.8145,-1.8096,-1.8129,-1.8202,-1.8482,-1.869,-1.8775,-1.8876,-1.9291,-1.9706,-1.99,-2.0167,-2.0312,-2.0596,-2.0605,-2.0615,-2.0615,-2.0615,-2.0615,-2.0566,-2.0527,-2.0196,-1.9795,-1.9756,-2.0118,-1.9371,-1.9736,-2.0167,-2.0167,-2.0245,-2.0479,-2.0566,-2.0615,-2.0615,-2.0615,-2.0615,-2.0664,-2.0908,-2.1083,-2.122,-2.1366,-2.1775,-2.211,-2.2192,-2.195,-2.1383,-2.0447,-1.9443,-1.9138,-1.8985,-1.8722,-1.873,-1.8778,-1.8772,-1.8596,-1.8079,-1.78,-1.766,-1.7707,-1.7986,-1.8025,-1.7978,-1.8118,-1.8635,-1.8673,-1.8719,-1.8812,-1.8912,-1.9004,-1.9042,-1.8804,-1.838,-1.7638,-1.703,-1.6709,-1.4088,-1.4088,-1.4088,-1.4255,-1.4489,-1.4516,-1.4449,-1.4389,-1.4396,-1.4666,-1.4901,-1.4743,-1.4676,-1.4649,-1.4549,-1.4556,-1.4439,-1.4569,-1.479,-1.4863,-1.5311,-1.5524,-1.5638,-1.5712,-1.5947,-1.5825,-1.5825,-1.5872,-1.5967,-1.5872,-1.5872,-1.5872,-1.5825,-1.6339,-1.7225,-1.7723,-1.8041,-1.7749,-1.7984,-1.8289,-1.812,-1.8097,-1.8247,-1.8125,-1.833,-1.8816,-1.9026,-1.9365,-1.9866,-2.0189,-2.0465,-2.0623,-2.0603,-2.0615,-2.0605,-2.0615,-2.0615,-2.0615,-2.0615,-2.0615,-2.0566,-2.0527,-1.9814,-1.945,-1.949,-1.8736,-1.9213,-1.9608,-1.9678,-2.004,-2.0401,-2.0489,-2.0576,-2.0576,-2.0732,-2.0742,-2.0918,-2.1161,-2.1553,-2.167,-2.1814,-2.2223,-2.2555,-2.2683,-2.263,-2.1966,-2.1248,-2.0303,-1.9317,-1.905,-1.8874,-1.8781,-1.8781,-1.8781,-1.8689,-1.8458,-1.8226,-1.8133,-1.8133,-1.8125,-1.8257,-1.8203,-1.8064,-1.8017,-1.835,-1.8488,-1.821,-1.8218,-1.8404,-1.8303,-1.7978,-1.7412,-1.6709,-1.6339,-1.6015,-1.4088,-1.4088,-1.4088,-1.4255,-1.4496,-1.4549,-1.4703,-1.4995,-1.4988,-1.5008,-1.5055,-1.5023,-1.4943,-1.4928,-1.4669,-1.4649,-1.4841,-1.4921,-1.5122,-1.5324,-1.5598,-1.5725,-1.5778,-1.5812,-1.5825,-1.5825,-1.5825,-1.5825,-1.5825,-1.5825,-1.5825,-1.5825,-1.5825,-1.6015,-1.6386,-1.6779,-1.7048,-1.722,-1.7934,-1.8053,-1.7847,-1.8414,-1.8289,-1.8175,-1.8378,-1.9008,-1.9288,-1.962,-2.0108,-2.0523,-2.0866,-2.0733,-2.0644,-2.0623,-2.0635,-2.0644,-2.0674,-2.0615,-2.0566,-2.0566,-2.045,-2.0245,-1.9292,-1.8527,-1.8336,-1.8376,-1.8696,-1.9204,-1.9441,-1.9883,-2.0284,-2.042,-2.0518,-2.0732,-2.1006,-2.1133,-2.1309,-2.1611,-2.2002,-2.2227,-2.235,-2.2633,-2.2867,-2.2994,-2.2906,-2.2501,-2.1828,-2.1069,-2.013,-1.9317,-1.9096,-1.8781,-1.8781,-1.8781,-1.8689,-1.855,-1.8504,-1.8365,-1.8079,-1.8032,-1.821,-1.8342,-1.8156,-1.8164,-1.8357,-1.8311,-1.7839,-1.7753,-1.7893,-1.766,-1.7419,-1.6904,-1.6386,-1.615,-1.5866,-1.4088,-1.4088,-1.4088,-1.4255,-1.4529,-1.4743,-1.5003,-1.5231,-1.5122,-1.5164,-1.5571,-1.5357,-1.5137,-1.5001,-1.4921,-1.477,-1.4783,-1.4877,-1.5176,-1.5404,-1.5691,-1.5785,-1.5825,-1.5825,-1.5825,-1.5784,-1.5791,-1.5865,-1.5845,-1.5838,-1.5845,-1.5825,-1.5865,-1.5852,-1.6014,-1.6272,-1.6511,-1.6935,-1.7902,-1.8034,-1.8041,-1.8638,-1.8522,-1.8608,-1.9196,-1.9722,-1.9669,-2.0662,-2.1104,-2.0756,-2.1332,-2.1387,-2.1041,-2.1024,-2.1035,-2.0996,-2.0801,-2.0605,-2.0527,-2.0157,-1.9923,-1.9766,-1.8807,-1.9085,-1.8935,-1.8656,-1.8336,-1.8807,-1.8966,-1.9283,-1.9882,-2.0195,-2.0428,-2.0768,-2.112,-2.1473,-2.1668,-2.206,-2.2432,-2.2549,-2.2682,-2.2838,-2.3071,-2.3091,-2.296,-2.2731,-2.228,-2.157,-2.0799,-1.9903,-1.9225,-1.8912,-1.8781,-1.8781,-1.8781,-1.8689,-1.8689,-1.8596,-1.8311,-1.8172,-1.8442,-1.8488,-1.8257,-1.8025,-1.7839,-1.7652,-1.7372,-1.7372,-1.7466,-1.7326,-1.7044,-1.6534,-1.6109,-1.592,-1.5825,-1.4088,-1.4088,-1.4088,-1.4255,-1.4543,-1.4881,-1.5122,-1.5177,-1.5089,-1.5244,-1.5591,-1.5337,-1.5184,-1.5182,-1.5068,-1.4943,-1.4943,-1.5084,-1.5264,-1.5411,-1.5698,-1.5785,-1.5825,-1.5832,-1.5825,-1.5804,-1.5898,-1.6039,-1.5992,-1.5985,-1.5985,-1.5791,-1.5864,-1.5992,-1.6189,-1.6565,-1.6884,-1.7277,-1.7753,-1.8285,-1.8613,-1.8822,-1.9004,-1.9011,-1.9834,-1.9937,-2.0018,-2.1332,-2.1342,-2.1254,-2.1974,-2.2021,-2.16,-2.1444,-2.12,-2.1133,-2.081,-2.0654,-2.0489,-2.001,-1.9726,-1.9362,-1.8647,-1.8816,-1.8616,-1.8215,-1.8407,-1.8727,-1.8487,-1.8545,-1.9286,-2.0014,-2.0391,-2.0771,-2.1269,-2.1814,-2.2187,-2.2519,-2.2685,-2.2793,-2.2877,-2.3013,-2.3101,-2.3101,-2.2916,-2.2555,-2.2157,-2.1579,-2.0853,-2.0085,-1.9409,-1.8912,-1.8827,-1.8781,-1.8827,-1.8827,-1.8781,-1.8735,-1.8689,-1.8589,-1.8727,-1.8627,-1.8396,-1.7738,-1.699,-1.6904,-1.6904,-1.7044,-1.7091,-1.6904,-1.6676,-1.6251,-1.5967,-1.5872,-1.5825,-1.4088,-1.4088,-1.4088,-1.4255,-1.4536,-1.477,-1.4948,-1.4995,-1.4928,-1.507,-1.5264,-1.5176,-1.515,-1.519,-1.5162,-1.517,-1.5211,-1.5311,-1.5384,-1.5438,-1.5698,-1.5825,-1.5838,-1.5865,-1.5945,-1.5992,-1.6066,-1.6186,-1.6239,-1.6213,-1.6099,-1.5864,-1.6166,-1.6299,-1.6395,-1.6948,-1.7292,-1.764,-1.7904,-1.8256,-1.8735,-1.9012,-1.9006,-1.8288,-1.8673,-1.9214,-1.9844,-2.0539,-2.1186,-2.1926,-2.2323,-2.2333,-2.2146,-2.1726,-2.1405,-2.1143,-2.0859,-2.0674,-2.045,-1.9962,-1.9687,-1.9402,-1.9006,-1.8656,-1.8215,-1.7893,-1.8095,-1.8256,-1.8055,-1.8247,-1.8883,-1.9699,-2.0236,-2.093,-2.1611,-2.213,-2.2526,-2.2812,-2.2877,-2.2955,-2.2974,-2.3101,-2.3101,-2.3101,-2.3047,-2.2511,-2.2015,-2.1579,-2.0952,-2.0266,-1.9683,-1.905,-1.8958,-1.892,-1.8866,-1.8866,-1.8827,-1.8781,-1.8781,-1.8635,-1.8496,-1.8488,-1.8581,-1.7645,-1.6669,-1.6574,-1.6581,-1.6622,-1.6622,-1.6487,-1.6251,-1.5967,-1.5825,-1.5825,-1.5825,-1.4088,-1.4088,-1.4088,-1.4255,-1.4476,-1.4355,-1.4613,-1.4948,-1.4519,-1.4609,-1.5068,-1.519,-1.5184,-1.5129,-1.5283,-1.5337,-1.5398,-1.5471,-1.5545,-1.5638,-1.5812,-1.5825,-1.5872,-1.5985,-1.6106,-1.6179,-1.6246,-1.6346,-1.6422,-1.6402,-1.6393,-1.6466,-1.6593,-1.66,-1.662,-1.7197,-1.7537,-1.7936,-1.7959,-1.8067,-1.8393,-1.8441,-1.8343,-1.8534,-1.9073,-1.9366,-2.0011,-2.0718,-2.1069,-2.1456,-2.1815,-2.2083,-2.2438,-2.1951,-2.1768,-2.1602,-2.1104,-2.082,-2.0479,-2.0068,-1.9734,-1.9253,-1.8767,-1.8207,-1.7813,-1.7578,-1.7538,-1.7659,-1.7848,-1.8106,-1.8538,-1.9388,-2.0218,-2.1081,-2.193,-2.2432,-2.2886,-2.2984,-2.3091,-2.3101,-2.3101,-2.3101,-2.3101,-2.3047,-2.3003,-2.2731,-2.228,-2.1793,-2.1132,-2.0501,-2.0019,-1.9479,-1.9188,-1.9096,-1.9004,-1.8912,-1.8827,-1.8735,-1.8735,-1.8504,-1.8218,-1.7792,-1.7419,-1.6998,-1.644,-1.6298,-1.6204,-1.6062,-1.6015,-1.6069,-1.6069,-1.5825,-1.5825,-1.5825,-1.5825,-1.4088,-1.4088,-1.4088,-1.4255,-1.4392,-1.4208,-1.4355,-1.4623,-1.4282,-1.4342,-1.4736,-1.4923,-1.4983,-1.5035,-1.5271,-1.5504,-1.5551,-1.5591,-1.5678,-1.5785,-1.5825,-1.5825,-1.5919,-1.6032,-1.6132,-1.6281,-1.6616,-1.6744,-1.665,-1.6717,-1.6774,-1.6767,-1.68,-1.6907,-1.6998,-1.7271,-1.7581,-1.795,-1.7839,-1.7832,-1.7965,-1.8101,-1.8215,-1.8647,-1.8965,-1.9311,-1.9845,-2.0546,-2.106,-2.1535,-2.2095,-2.2476,-2.2691,-2.2402,-2.2197,-2.1992,-2.1592,-2.1104,-2.0769,-2.0356,-1.9874,-1.9381,-1.8496,-1.791,-1.7772,-1.7578,-1.7578,-1.7765,-1.7919,-1.8194,-1.8773,-1.9549,-2.0226,-2.0967,-2.2026,-2.2843,-2.2994,-2.3052,-2.3101,-2.3101,-2.3101,-2.3101,-2.3101,-2.3101,-2.2872,-2.1891,-2.1615,-2.1347,-2.0817,-2.0555,-2.0164,-1.9808,-1.9471,-1.9142,-1.8912,-1.8866,-1.8827,-1.8735,-1.8643,-1.8226,-1.7753,-1.6864,-1.6211,-1.6298,-1.6204,-1.5967,-1.5825,-1.5825,-1.5825,-1.592,-1.5872,-1.5825,-1.5825,-1.5825,-1.5825,-1.4041,-1.4082,-1.4088,-1.4229,-1.4409,-1.4195,-1.4229,-1.4402,-1.4249,-1.4282,-1.4563,-1.4663,-1.4796,-1.5037,-1.5324,-1.5578,-1.5738,-1.5738,-1.5758,-1.5771,-1.5825,-1.5825,-1.5852,-1.5919,-1.6106,-1.6462,-1.6824,-1.6958,-1.6978,-1.7032,-1.7012,-1.6881,-1.7014,-1.7253,-1.7333,-1.746,-1.7699,-1.7679,-1.7679,-1.7608,-1.7757,-1.7883,-1.8002,-1.8222,-1.847,-1.8832,-1.9273,-1.9795,-2.0616,-2.1427,-2.2101,-2.2532,-2.266,-2.2442,-2.2425,-2.2243,-2.1982,-2.1582,-2.1275,-2.0886,-2.0363,-1.9684,-1.8556,-1.8051,-1.7987,-1.7782,-1.7782,-1.7787,-1.7979,-1.8347,-1.893,-1.9555,-2.0199,-2.1069,-2.2151,-2.3071,-2.3081,-2.3101,-2.3091,-2.3091,-2.3091,-2.3091,-2.3091,-2.3091,-2.2422,-2.1445,-2.0772,-2.0374,-2.011,-2.0155,-1.9982,-1.9762,-1.9571,-1.9242,-1.9012,-1.8781,-1.8735,-1.855,-1.8319,-1.7846,-1.7286,-1.6541,-1.6116,-1.6211,-1.6109,-1.5872,-1.5825,-1.5825,-1.5825,-1.5825,-1.5825,-1.5825,-1.5825,-1.5825,-1.5825,-1.3868,-1.4088,-1.4088,-1.4122,-1.4162,-1.4108,-1.4122,-1.4195,-1.4369,-1.4476,-1.4636,-1.5037,-1.5284,-1.5324,-1.5611,-1.5751,-1.5751,-1.5845,-1.5838,-1.5825,-1.5885,-1.5858,-1.5919,-1.6106,-1.6248,-1.6549,-1.6884,-1.7018,-1.7146,-1.7199,-1.7306,-1.7361,-1.7388,-1.7482,-1.7495,-1.7589,-1.7589,-1.7589,-1.7589,-1.7589,-1.7508,-1.7643,-1.767,-1.7759,-1.7832,-1.8035,-1.8273,-1.846,-1.922,-2.0224,-2.1347,-2.2078,-2.2328,-2.2284,-2.2284,-2.232,-2.2104,-2.1953,-2.1625,-2.1513,-2.1125,-2.062,-1.9725,-1.9126,-1.8819,-1.8114,-1.8027,-1.7796,-1.7968,-1.8251,-1.881,-1.9505,-2.0193,-2.1297,-2.2403,-2.2818,-2.3057,-2.3003,-2.3003,-2.3003,-2.3003,-2.3047,-2.3091,-2.2872,-2.2432,-2.1535,-2.0817,-2.0464,-2.0374,-2.011,-1.9799,-1.9708,-1.9617,-1.9579,-1.9442,-1.8827,-1.8643,-1.8365,-1.8032,-1.752,-1.6958,-1.6305,-1.6021,-1.6062,-1.6015,-1.5825,-1.5825,-1.5825,-1.5825,-1.5825,-1.5825,-1.5825,-1.5825,-1.5825,-1.5825]},{"header":{"parameterUnit":"m.s-1","parameterCategory":1,"la1":31.0,"la2":29.5877,"lo1":-88.7671,"lo2":-86.6584,"dy":0.0162,"dx":0.0185,"nx":115,"ny":88,"refTime":"2024-02-13T18:00:00:Z","depth":0,"parameterNumber":3,"parameterNumberName":"V-component_of_WINDS"},"data":[0.0,0.0,0.0,0.0,0.0,0.0,0.0,0.0,0.0,0.0,0.0,0.0,0.0,0.0,0.0,0.0,0.0,0.0,0.0,0.0,0.0,0.0,0.0,0.0,0.0,0.0,0.0,0.0,0.0,0.0,0.0,0.0,0.0,0.0,0.0,0.0,0.0,0.0,0.0,0.0,0.0,0.0,0.0,0.0,0.0,0.0,0.0,0.0,0.0,0.0,0.0,0.0,0.0,0.0,0.0,0.0,0.0,0.0,0.0,0.0,0.0,0.0,0.0,0.0,0.0,0.0,0.0,0.0,0.0,0.0,0.0,0.0,0.0,0.0,0.0,0.0,0.0,0.0,0.0,0.0,0.0,0.0,0.0,0.0,0.0,0.0,0.0,0.0,0.0,0.0,0.0,0.0,0.0,0.0,0.0,0.0,0.0,0.0,0.0,0.0,0.0,0.0,0.0,0.0,0.0,0.0,0.0,0.0,0.0,0.0,0.0,0.0,0.0,0.0,0.0,0.0,0.0,0.0,0.0,0.0,0.0,0.0,0.0,0.0,0.0,0.0,0.0,0.0,0.0,0.0,0.0,0.0,0.0,0.0,0.0,0.0,0.0,0.0,0.0,0.0,0.0,0.0,0.0,0.0,0.0,0.0,0.0,0.0,0.0,0.0,0.0,0.0,0.0,0.0,0.0,0.0,0.0,0.0,0.0,0.0,0.0,0.0,0.0,0.0,0.0,0.0,0.0,0.0,0.0,0.0,0.0,0.0,0.0,0.0,0.0,0.0,0.0,0.0,0.0,0.0,0.0,0.0,0.0,0.0,0.0,0.0,0.0,0.0,0.0,0.0,0.0,0.0,0.0,0.0,0.0,0.0,0.0,0.0,0.0,0.0,0.0,0.0,0.0,0.0,0.0,0.0,0.0,0.0,0.0,0.0,0.0,0.0,0.0,0.0,0.0,0.0,0.0,0.0,0.0,0.0,0.0,0.0,0.0,0.0,0.0,0.0,0.0,0.0,0.0,0.0,0.0,0.0,0.0,0.0,0.0,0.0,0.0,0.0,0.0,0.0,0.0,0.0,0.0,0.0,0.0,0.0,0.0,0.0,0.0,0.0,0.0,0.0,0.0,0.0,0.0,0.0,0.0,0.0,0.0,0.0,0.0,0.0,0.0,0.0,0.0,0.0,0.0,0.0,0.0,0.0,0.0,0.0,0.0,0.0,0.0,0.0,0.0,0.0,0.0,0.0,0.0,0.0,0.0,0.0,0.0,0.0,0.0,0.0,0.0,0.0,0.0,0.0,0.0,0.0,0.0,0.0,0.0,0.0,0.0,0.0,0.0,0.0,0.0,0.0,0.0,0.0,0.0,0.0,0.0,0.0,0.0,0.0,0.0,0.0,0.0,0.0,0.0,0.0,0.0,0.0,0.0,0.0,0.0,0.0,0.0,0.0,0.0,0.0,0.0,0.0,0.0,0.0,0.0,0.0,0.0,0.0,0.0,0.0,0.0,0.0,0.0,0.0,0.0,0.0,0.0,0.0,0.0,0.0,0.0,0.0,0.0,0.0,0.0,0.0,0.0,0.0,0.0,0.0,0.0,0.0,0.0,0.0,0.0,0.0,0.0,0.0,0.0,0.0,0.0,0.0,0.0,0.0,0.0,0.0,0.0,0.0,0.0,0.0,0.0,0.0,0.0,0.0,0.0,0.0,0.0,0.0,0.0,0.0,0.0,0.0,0.0,0.0,0.0,0.0,0.0,0.0,0.0,0.0,0.0,0.0,0.0,0.0,0.0,0.0,0.0,0.0,0.0,0.0,0.0,0.0,0.0,0.0,0.0,0.0,0.0,0.0,0.0,0.0,0.0,0.0,0.0,0.0,0.0,0.0,0.0,0.0,0.0,0.0,0.0,0.0,0.0,0.0,0.0,0.0,0.0,0.0,0.0,0.0,0.0,0.0,0.0,0.0,0.0,0.0,0.0,0.0,0.0,0.0,0.0,0.0,0.0,0.0,0.0,0.0,0.0,0.0,0.0,0.0,0.0,0.0,0.0,0.0,0.0,0.0,0.0,0.0,0.0,0.0,0.0,0.0,0.0,0.0,0.0,0.0,0.0,0.0,0.0,0.0,0.0,0.0,0.0,0.0,0.0,0.0,0.0,0.0,0.0,0.0,0.0,0.0,0.0,0.0,0.0,0.0,0.0,0.0,0.0,0.0,0.0,0.0,0.0,0.0,0.0,0.0,0.0,0.0,0.0,0.0,0.0,0.0,0.0,0.0,0.0,0.0,0.0,0.0,0.0,0.0,0.0,0.0,0.0,0.0,0.0,0.0,0.0,0.0,0.0,0.0,0.0,0.0,0.0,0.0,0.0,0.0,0.0,0.0,0.0,0.0,0.0,0.0,0.0,0.0,0.0,0.0,0.0,0.0,0.0,0.0,0.0,0.0,0.0,0.0,0.0,0.0,0.0,0.0,0.0,0.0,0.0,0.0,0.0,0.0,0.0,0.0,0.0,0.0,0.0,0.0,0.0,0.0,0.0,0.0,0.0,0.0,0.0,0.0,0.0,0.0,0.0,0.0,0.0,0.0,0.0,0.0,0.0,0.0,0.0,0.0,0.0,0.0,0.0,0.0,0.0,0.0,0.0,0.0,0.0,0.0,0.0,0.0,0.0,0.0,0.0,0.0,0.0,0.0,0.0,0.0,0.0,0.0,0.0,0.0,0.0,0.0,0.0,0.0,0.0,0.0,0.0,0.0,0.0,0.0,0.0,0.0,0.0,0.0,0.0,0.0,0.0,0.0,0.0,0.0,0.0,0.0,0.0,0.0,0.0,0.0,0.0,0.0,0.0,0.0,0.0,0.0,0.0,0.0,0.0,0.0,0.0,0.0,0.0,0.0,0.0,0.0,0.0,0.0,0.0,0.0,0.0,0.0,0.0,0.0,0.0,0.0,0.0,0.0,0.0,0.0,0.0,0.0,0.0,0.0,0.0,0.0,0.0,0.0,0.0,0.0,0.0,0.0,0.0,0.0,0.0,0.0,0.0,0.0,0.0,0.0,0.0,0.0,0.0,0.0,0.0,0.0,0.0,0.0,0.0,0.0,0.0,0.0,0.0,0.0,0.0,0.0,0.0,0.0,0.0,0.0,0.0,0.0,0.0,0.0,0.0,0.0,0.0,0.0,0.0,0.0,0.0,0.0,0.0,0.0,0.0,0.0,0.0,0.0,0.0,0.0,0.0,0.0,0.0,0.0,0.0,0.0,0.0,0.0,0.0,0.0,0.0,0.0,0.0,0.0,0.0,0.0,0.0,0.0,0.0,0.0,0.0,0.0,0.0,0.0,0.0,0.0,0.0,0.0,0.0,0.0,0.0,0.0,0.0,0.0,0.0,0.0,0.0,0.0,0.0,0.0,0.0,0.0,0.0,0.0,0.0,0.0,0.0,0.0,0.0,0.0,0.0,0.0,0.0,0.0,0.0,0.0,0.0,0.0,0.0,0.0,0.0,0.0,0.0,0.0,0.0,0.0,0.0,0.0,0.0,0.0,0.0,0.0,0.0,0.0,0.0,0.0,0.0,0.0,0.0,0.0,0.0,0.0,0.0,0.0,0.0,0.0,0.0,0.0,0.0,0.0,0.0,0.0,0.0,0.0,0.0,0.0,0.0,0.0,0.0,0.0,0.0,0.0,0.0,0.0,0.0,0.0,0.0,0.0,0.0,0.0,0.0,0.0,0.0,0.0,0.0,0.0,0.0,0.0,0.0,0.0,0.0,0.0,0.0,0.0,0.0,0.0,0.0,0.0,0.0,0.0,0.0,0.0,0.0,0.0,0.0,0.0,0.0,0.0,0.0,0.0,0.0,0.0,0.0,0.0,0.0,0.0,0.0,0.0,0.0,0.0,0.0,0.0,0.0,0.0,0.0,0.0,0.0,0.0,0.0,0.0,0.0,0.0,0.0,0.0,0.0,0.0,0.0,0.0,0.0,0.0,0.0,0.0,0.0,0.0,0.0,0.0,0.0,0.0,0.0,0.0,0.0,0.0,0.0,0.0,0.0,0.0,0.0,0.0,0.0,0.0,0.0,0.0,0.0,0.0,0.0,0.0,0.0,0.0,0.0,0.0,0.0,0.0,0.0,0.0,0.0,0.0,0.0,0.0,0.0,0.0,0.0,0.0,0.0,0.0,0.0,0.0,0.0,0.0,0.0,0.0,0.0,0.0,0.0,0.0,0.0,0.0,0.0,0.0,0.0,0.0,0.0,0.0,0.0,0.0,0.0,0.0,0.0,0.0,0.6825,0.0,0.0,0.0,0.0,0.0,0.0,0.0,0.0,0.0,0.0,0.0,0.0,0.0,0.0,0.0,0.0,0.0,0.0,0.0,0.0,0.0,0.0,0.0,0.0,0.0,0.0,0.0,0.0,0.0,0.0,0.0,0.0,0.0,0.0,0.0,0.0,0.0,0.0,0.0,0.0,0.0,0.0,0.0,0.0,0.0,0.0,0.0,0.0,0.0,0.0,0.0,0.0,0.0,0.0,0.0,0.0,0.0,0.0,0.0,0.0,0.0,0.0,0.0,0.0,0.0,0.0,0.0,0.0,0.0,0.0,0.0,0.0,0.0,0.0,0.0,0.0,0.0,0.0,0.0,0.0,0.0,0.0,0.0,0.0,0.0,0.0,0.0,0.0,0.0,0.0,0.0,0.0,0.0,0.0,0.0,0.0,0.0,0.0,0.0,0.0,0.0,0.0,0.0,0.0,0.0,0.0,0.0,0.0,0.0,0.0,0.7327,0.73,0.7413,0.7413,0.7252,0.0,0.0,0.0,0.0,0.0,0.0,0.0,0.0,0.0,0.0,0.0,0.0,0.0,0.0,0.0,0.0,0.0,0.0,0.0,0.0,0.0,0.0,0.0,0.0,0.0,0.0,0.0,0.0,0.0,0.0,0.0,0.0,0.0,0.0,0.0,0.0,0.0,0.0,0.0,0.0,0.0,0.0,0.0,0.0,0.0,0.0,0.0,0.0,0.0,0.0,0.0,0.0,0.0,0.0,0.0,0.0,0.0,0.0,0.0,0.0,0.0,0.0,0.0,0.0,0.0,0.0,0.0,0.0,0.0,0.0,0.0,0.0,0.0,0.0,0.0,0.0,0.0,0.0,0.0,0.0,0.0,0.0,0.0,0.0,0.0,0.0,0.0,0.0,0.0,0.0,0.0,0.0,0.0,0.0,0.0,0.0,0.0,0.0,0.0,0.0,0.0,0.0,0.0,0.0,0.0,0.0,0.0,0.0,0.0,0.0,0.0,0.0,0.7812,0.7735,0.7655,0.0,0.0,0.0,0.0,0.0,0.0,0.0,0.0,0.0,0.0,0.0,0.0,0.0,0.0,0.0,0.0,0.0,0.0,0.0,0.0,0.0,0.0,0.0,0.0,0.0,0.0,0.0,0.0,0.0,0.0,0.0,0.0,0.0,0.0,0.0,0.0,0.0,0.0,0.0,0.0,0.0,0.0,0.0,0.0,0.0,0.0,0.0,0.0,0.0,0.0,0.0,0.0,0.0,0.0,0.0,0.0,0.0,0.0,0.0,0.0,0.0,0.0,0.0,0.0,0.0,0.0,0.0,0.0,0.0,0.0,0.0,0.0,0.0,0.0,0.0,0.0,0.0,0.0,0.0,0.0,0.0,0.0,0.0,0.0,0.0,0.0,0.0,0.0,0.0,0.0,0.0,0.0,0.0,0.0,0.0,0.0,0.0,0.0,0.0,0.0,0.0,0.0,0.0,0.0,0.0,0.0,0.0,0.0,0.0,0.0,0.8797,0.9047,0.881,0.0,0.8135,0.0,0.0,0.0,0.0,0.0,0.0,0.0,0.0,0.0,0.0,0.0,0.0,0.0,0.0,0.0,0.0,0.0,0.0,0.0,0.0,0.0,0.0,0.0,0.0,0.0,0.0,0.0,0.0,0.0,0.0,0.0,0.0,0.0,0.0,0.0,0.0,0.0,0.0,0.0,0.0,0.0,0.0,0.0,0.0,0.0,0.0,0.0,0.0,0.0,0.0,0.0,0.0,0.0,0.0,0.0,0.0,0.0,0.0,0.0,0.0,0.0,0.0,0.0,0.0,0.0,0.0,0.0,0.0,0.0,0.0,0.0,0.0,0.0,0.0,0.0,0.0,0.0,0.0,0.0,0.0,0.0,0.0,0.0,0.0,0.0,0.0,0.0,0.0,0.0,0.0,0.0,0.0,0.0,0.0,0.0,0.0,0.0,0.0,0.0,0.0,0.0,0.0,0.0,0.0,0.0,0.0,0.0,0.0,0.0,0.0,0.8918,0.9176,0.9098,0.8877,0.0,0.0,0.0,0.0,0.0,0.0,0.0,0.0,0.0,0.0,0.0,0.0,0.0,0.0,0.0,0.0,0.0,0.0,0.0,0.0,0.0,0.0,0.0,0.0,0.0,0.0,0.0,0.0,0.0,0.0,0.0,0.0,0.0,0.0,0.0,0.0,0.0,0.0,0.0,0.0,0.0,0.0,0.0,0.0,0.0,0.0,0.0,0.0,0.0,0.0,0.0,0.0,0.0,0.0,0.0,0.0,0.0,0.0,0.0,0.0,0.0,0.0,0.0,0.0,0.0,0.0,0.0,0.0,0.0,0.0,0.0,0.0,0.0,0.0,0.0,0.0,0.0,0.0,0.0,0.0,0.0,0.0,0.0,0.0,0.0,0.0,0.0,0.0,0.0,0.0,0.0,0.0,0.0,0.0,0.0,0.0,0.0,0.0,0.0,0.0,0.0,0.0,0.0,0.0,0.0,0.0,0.0,0.0,0.0,0.0,0.8965,0.8998,0.9191,0.9131,0.8991,0.8785,0.0,0.0,0.0,0.0,0.0,0.0,0.0,0.0,0.0,0.0,0.0,0.0,0.0,0.0,0.0,0.0,0.0,0.0,0.0,0.0,0.0,0.0,0.0,0.0,0.0,0.0,0.0,0.0,0.0,0.0,0.0,0.0,0.0,0.0,0.0,0.0,0.0,0.0,0.0,0.0,0.0,0.0,0.0,0.0,0.0,0.0,0.0,0.0,0.0,0.0,0.0,0.0,0.0,0.0,0.0,0.0,0.0,0.0,0.0,0.0,0.0,0.0,0.0,0.0,0.0,0.0,0.0,0.0,0.0,0.0,0.0,0.0,0.0,0.0,0.0,0.0,0.0,0.0,0.0,0.0,0.0,0.0,0.0,0.0,0.0,0.0,0.0,0.0,0.0,0.0,0.0,0.0,0.0,0.0,0.0,0.0,0.0,0.0,0.0,0.0,0.0,0.0,0.0,0.0,0.0,0.0,0.0,0.0,0.9599,0.9324,0.9163,0.9198,0.8944,0.8818,0.0,0.0,0.0,0.0,0.0,0.0,0.0,0.0,0.0,0.0,0.0,0.0,0.0,0.0,0.0,0.0,0.0,0.0,0.0,0.0,0.0,0.0,0.0,0.0,0.0,0.0,0.0,0.0,0.0,0.0,0.0,0.0,0.0,0.0,0.0,0.0,0.0,0.0,0.0,0.0,0.0,0.0,0.0,0.0,0.0,0.0,0.0,0.0,0.0,0.0,0.0,0.0,0.0,0.0,0.0,0.0,0.0,0.0,0.0,0.0,0.0,0.0,0.0,0.0,0.0,0.0,0.0,0.0,0.0,0.0,0.0,0.0,0.0,0.0,0.0,0.0,0.0,0.0,0.0,0.0,0.0,0.0,0.0,0.0,0.0,0.0,0.0,0.0,0.0,0.0,0.0,0.0,0.0,0.0,0.0,0.0,0.0,0.0,0.0,0.0,0.0,0.0,0.0,0.0,0.0,0.0,0.0,0.0,0.0,0.9112,0.9164,0.9172,0.9179,0.9113,0.8991,0.0,0.0,0.0,0.0,0.0,0.0,0.0,0.0,0.0,0.0,0.0,0.0,0.0,0.0,0.0,0.0,0.0,0.0,0.0,0.0,0.0,0.0,0.0,0.0,0.0,0.0,0.0,0.0,0.0,0.0,0.0,0.0,0.0,0.0,0.0,0.0,0.0,0.0,0.0,0.0,0.0,0.0,0.0,0.0,0.0,0.0,0.0,0.0,0.0,0.0,0.0,0.0,0.0,0.0,0.0,0.0,0.0,0.0,0.0,0.0,0.0,0.0,0.0,0.0,0.0,0.0,0.0,0.0,0.0,0.0,0.0,0.0,0.0,0.0,0.0,0.0,0.0,0.0,0.0,0.0,0.0,0.0,0.0,0.0,0.0,0.0,0.0,0.0,0.0,0.0,0.0,0.0,0.0,0.0,0.0,0.0,0.0,0.0,0.0,0.0,0.0,0.0,0.0,0.0,0.0,0.0,0.0,0.0,0.0,0.9297,0.0,0.9782,0.9565,0.9461,0.9228,0.0,0.0,0.0,0.0,0.0,0.0,0.0,0.0,0.0,0.0,0.0,0.0,0.0,0.0,0.0,0.0,0.0,0.0,0.0,0.0,0.0,0.0,0.0,0.0,0.0,0.0,0.0,0.0,0.0,0.0,0.0,0.0,0.0,0.0,0.0,0.0,0.0,0.0,0.0,0.0,0.0,0.0,0.0,0.0,0.0,0.0,0.0,0.0,0.0,0.0,0.0,0.0,0.0,0.0,0.0,0.0,0.0,0.0,0.0,0.0,0.0,0.0,0.0,0.0,0.0,0.0,0.0,0.0,0.0,0.0,0.0,0.0,0.0,0.0,0.0,0.0,0.0,0.0,0.0,0.0,0.0,0.0,0.0,0.0,0.0,0.0,0.0,0.0,0.0,0.0,0.0,0.0,0.0,0.0,0.0,0.0,0.0,0.0,0.0,0.0,0.0,0.0,0.0,0.0,0.0,0.0,0.0,0.0,0.9389,1.0269,1.0906,1.0888,1.0318,0.9984,0.9526,0.0,0.0,0.0,0.0,0.0,0.0,0.0,0.0,0.0,0.0,0.0,0.0,0.0,0.0,0.0,0.0,0.0,0.0,0.0,0.0,0.0,0.0,0.0,0.0,0.0,0.0,0.0,0.0,0.0,0.0,0.0,0.0,0.0,0.0,0.0,0.0,0.0,0.0,0.0,0.0,0.0,0.0,0.0,0.0,0.0,0.0,0.0,0.0,0.0,0.0,0.0,0.0,0.0,0.0,0.0,0.0,0.0,0.0,0.0,0.0,0.0,0.0,0.0,0.0,0.0,0.0,0.0,0.0,0.0,0.0,0.0,0.0,0.0,0.0,0.0,0.0,0.0,0.0,0.0,0.0,0.0,0.0,0.0,0.0,0.0,0.0,0.0,0.0,0.0,0.0,0.0,0.0,0.0,0.0,0.0,0.0,0.0,0.0,0.0,0.0,0.0,0.0,0.0,0.0,0.0,0.0,0.0,0.0,0.0,1.0072,1.0628,1.0937,1.0897,1.02,0.9715,0.0,0.0,0.0,0.0,0.0,0.0,0.0,0.0,0.0,0.0,0.0,0.0,0.0,0.0,0.0,0.0,0.0,0.0,0.0,0.0,0.0,0.0,0.0,0.0,0.0,0.0,0.0,0.0,0.0,0.0,0.0,0.0,0.0,0.0,0.0,0.0,0.0,0.0,0.0,0.0,0.0,0.0,0.0,0.0,0.0,0.0,0.0,0.0,0.0,0.0,0.0,0.0,0.0,0.0,0.0,0.0,0.0,0.0,0.0,0.0,0.0,0.0,0.0,0.0,0.0,0.0,0.0,0.0,0.0,0.0,0.0,0.0,0.0,0.0,0.0,0.0,0.0,0.0,0.0,0.0,0.0,0.0,0.0,0.0,0.0,0.0,0.0,0.0,0.0,0.0,0.0,0.0,0.0,0.0,0.0,0.0,0.0,0.0,0.0,0.0,0.0,0.0,0.0,0.0,0.0,0.0,0.0,0.0,0.0,1.0941,1.1476,1.1759,1.1692,1.0855,1.025,0.9843,0.0,0.0,0.0,0.0,0.0,0.0,0.0,0.0,0.0,0.0,0.0,0.0,0.0,0.0,0.0,0.0,0.0,0.0,0.0,0.0,0.0,0.0,0.0,0.0,0.0,0.0,0.0,0.0,0.0,0.0,0.0,0.0,0.0,0.0,0.0,0.0,0.0,0.0,0.0,0.0,0.0,0.0,0.0,0.0,0.0,0.0,0.0,0.0,0.0,0.0,0.0,0.0,0.0,0.0,0.0,0.0,0.0,0.0,0.0,0.0,0.0,0.0,0.0,0.0,0.0,0.0,0.0,0.0,0.0,0.0,0.0,0.0,0.0,0.0,0.0,0.0,0.0,0.0,0.0,0.0,0.0,0.0,0.0,0.0,0.0,0.0,0.0,0.0,0.0,0.0,0.0,0.0,0.0,0.0,0.0,0.0,0.0,0.0,0.0,0.0,0.0,0.0,0.0,0.0,0.0,0.0,0.0,0.0,1.2582,1.3219,1.3239,1.262,1.1911,1.1056,0.0,0.0,0.0,0.0,0.0,0.0,0.0,0.0,0.0,0.0,0.0,0.0,0.0,0.0,0.0,0.0,0.0,0.0,0.0,0.0,0.0,0.0,0.0,0.0,0.0,0.0,0.0,0.0,0.0,0.0,0.0,0.0,0.0,0.0,0.0,0.0,0.0,0.0,0.0,0.0,0.0,0.0,0.0,0.0,0.0,0.0,0.0,0.0,0.0,0.0,0.0,0.0,0.0,0.0,0.0,0.0,0.0,0.0,0.0,0.0,0.0,0.0,0.0,0.0,0.0,0.0,0.0,0.0,0.0,0.0,0.0,0.0,0.0,0.0,0.0,0.0,0.0,0.0,0.0,0.0,0.0,0.0,0.0,0.0,0.0,0.0,0.0,0.0,0.0,0.0,0.0,0.0,0.0,0.0,0.0,0.0,0.0,0.0,0.0,0.0,0.0,0.0,0.0,0.0,0.0,0.0,0.0,0.0,0.0,1.3675,1.3854,1.3863,1.3659,1.2757,1.1877,0.0,0.0,0.0,0.0,0.0,0.0,0.0,0.0,0.0,0.0,0.0,0.0,0.0,0.0,0.0,0.0,0.0,0.0,0.0,0.0,0.0,0.0,0.0,0.0,0.0,0.0,0.0,0.0,0.0,0.0,0.0,0.0,0.0,0.0,0.0,0.0,0.0,0.0,0.0,0.0,0.0,0.0,0.0,0.0,0.0,0.0,0.0,0.0,0.0,0.0,0.0,0.0,0.0,0.0,0.0,0.0,0.0,0.0,0.0,0.0,0.0,0.0,0.0,0.0,0.0,0.0,0.0,0.0,0.0,0.0,0.0,0.0,0.0,0.0,0.0,0.0,0.0,0.0,0.0,0.0,0.0,0.0,0.0,0.0,0.0,0.0,0.0,0.0,0.0,0.0,0.0,0.0,0.0,0.0,0.0,0.0,0.0,0.0,0.0,0.0,0.0,0.0,0.0,0.0,0.0,0.0,0.0,0.0,1.4059,1.4232,1.4757,1.5047,1.5037,1.3211,1.2065,0.0,0.0,0.0,0.0,0.0,0.0,0.0,0.0,0.0,0.0,0.0,0.0,0.0,0.0,0.0,0.0,0.0,0.0,0.0,0.0,0.0,0.0,0.0,0.0,0.0,0.0,0.0,0.0,0.0,0.0,0.0,0.0,0.0,0.0,0.0,0.0,0.0,0.0,0.0,0.0,0.0,0.0,0.0,0.0,0.0,0.0,0.0,0.0,0.0,0.0,0.0,0.0,0.0,0.0,0.0,0.0,0.0,0.0,0.0,0.0,0.0,0.0,0.0,0.0,0.0,0.0,0.0,0.0,0.0,0.0,0.0,0.0,0.0,0.0,0.0,0.0,0.0,0.0,0.0,0.0,0.0,0.0,0.0,0.0,0.0,0.0,0.0,0.0,0.0,0.0,0.0,0.0,0.0,0.0,0.0,0.0,0.0,0.0,0.0,0.0,0.0,0.0,0.0,0.0,0.0,0.0,0.0,0.0,1.4542,1.456,1.5666,1.6221,1.61,1.3585,1.2144,0.0,0.0,0.0,0.0,0.0,0.0,0.0,0.0,0.0,0.0,0.0,0.0,0.0,0.0,0.0,0.0,0.0,0.0,0.0,0.0,0.0,0.0,0.0,0.0,0.0,0.0,0.0,0.0,0.0,0.0,0.0,0.0,0.0,0.0,0.0,0.0,0.0,0.0,0.0,0.0,0.0,0.0,0.0,0.0,0.0,0.0,0.0,0.0,0.0,0.0,0.0,0.0,0.0,0.0,0.0,0.0,0.0,0.0,0.0,0.0,0.0,0.0,0.0,0.0,0.0,0.0,0.0,0.0,0.0,0.0,0.0,0.0,0.0,0.0,0.0,0.0,0.0,0.0,0.0,0.0,0.0,0.0,0.0,0.0,0.0,0.0,0.0,0.0,0.0,0.0,0.0,0.0,0.0,0.0,0.0,0.0,0.0,0.0,0.0,0.0,0.0,0.0,0.0,0.0,0.0,0.0,0.0,0.0,1.4764,1.5403,1.5693,1.5721,1.5441,1.4515,1.3779,0.0,0.0,0.0,0.0,0.0,0.0,0.0,0.0,0.0,0.0,0.0,0.0,0.0,0.0,0.0,0.0,0.0,0.0,0.0,0.0,0.0,0.0,0.0,0.0,0.0,0.0,0.0,0.0,0.0,0.0,0.0,0.0,0.0,0.0,0.0,0.0,0.0,0.0,0.0,0.0,0.0,0.0,0.0,0.0,0.0,0.0,0.0,0.0,1.5001,0.0,0.0,0.0,0.0,0.0,0.0,0.0,0.0,0.0,0.0,0.0,0.0,0.0,0.0,0.0,0.0,0.0,0.0,0.0,0.0,0.0,0.0,0.0,0.0,0.0,0.0,0.0,0.0,0.0,0.0,0.0,0.0,0.0,0.0,0.0,0.0,0.0,0.0,0.0,0.0,0.0,0.0,0.0,0.0,0.0,0.0,0.0,0.0,0.0,0.0,0.0,0.0,0.0,0.0,0.0,0.0,0.0,0.0,0.0,1.5027,1.5807,1.6266,1.6373,1.6165,1.5479,1.4588,0.0,0.0,0.0,0.0,0.0,0.0,0.0,0.0,0.0,0.0,0.0,0.0,0.0,0.0,0.0,0.0,0.0,0.0,0.0,0.0,0.0,0.0,0.0,0.0,0.0,0.0,0.0,0.0,0.0,0.0,0.0,0.0,0.0,0.0,0.0,0.0,0.0,0.0,0.0,0.0,0.0,0.0,0.0,0.0,0.0,0.0,0.0,0.0,0.0,0.0,0.0,0.0,0.0,0.0,0.0,0.0,0.0,0.0,0.0,0.0,0.0,0.0,0.0,0.0,0.0,0.0,0.0,0.0,0.0,0.0,0.0,0.0,0.0,0.0,0.0,0.0,0.0,0.0,0.0,0.0,0.0,0.0,0.0,0.0,0.0,0.0,0.0,0.0,0.0,0.0,0.0,0.0,0.0,0.0,0.0,0.0,0.0,0.0,0.0,0.0,0.0,0.0,0.0,0.0,0.0,0.0,0.0,1.465,1.5483,1.6365,1.7046,1.7368,1.7396,1.6297,1.5049,1.3745,0.0,0.0,0.0,0.0,0.0,0.0,0.0,0.0,0.0,0.0,0.0,0.0,0.0,0.0,0.0,0.0,0.0,0.0,0.0,0.0,0.0,0.0,0.0,0.0,0.0,0.0,0.0,0.0,0.0,0.0,0.0,0.0,0.0,0.0,0.0,0.0,0.0,0.0,1.5028,1.5273,0.0,0.0,0.0,0.0,0.0,0.0,0.0,0.0,1.62,0.0,0.0,0.0,0.0,0.0,0.0,0.0,0.0,0.0,0.0,0.0,0.0,0.0,0.0,0.0,0.0,0.0,0.0,0.0,0.0,0.0,0.0,0.0,0.0,0.0,0.0,0.0,0.0,0.0,0.0,0.0,0.0,0.0,0.0,0.0,0.0,0.0,0.0,0.0,0.0,0.0,0.0,0.0,0.0,0.0,0.0,0.0,0.0,0.0,0.0,0.0,0.0,0.0,0.0,0.0,0.0,1.5496,1.5487,1.6348,1.8122,1.7821,1.7708,1.7852,1.6668,1.5672,1.4914,0.0,0.0,0.0,0.0,0.0,0.0,0.0,0.0,0.0,0.0,0.0,0.0,0.0,0.0,0.0,0.0,0.0,0.0,0.0,0.0,0.0,0.0,0.0,0.0,0.0,0.0,0.0,0.0,0.0,0.0,0.0,0.0,0.0,0.0,0.0,0.0,0.0,0.0,0.0,1.584,1.5713,0.0,0.0,0.0,0.0,0.0,0.0,0.0,0.0,1.6872,0.0,0.0,0.0,0.0,0.0,0.0,0.0,0.0,0.0,0.0,0.0,0.0,0.0,0.0,0.0,0.0,0.0,0.0,0.0,0.0,0.0,0.0,0.0,0.0,0.0,0.0,0.0,0.0,0.0,0.0,0.0,0.0,0.0,0.0,0.0,0.0,0.0,0.0,0.0,0.0,0.0,0.0,0.0,0.0,0.0,0.0,0.0,0.0,0.0,0.0,0.0,0.0,0.0,0.0,0.0,1.6127,1.6373,1.7156,1.8543,1.8313,1.8198,1.8291,1.7234,1.6293,0.0,0.0,0.0,0.0,0.0,0.0,0.0,0.0,0.0,0.0,0.0,0.0,0.0,0.0,0.0,0.0,0.0,0.0,0.0,0.0,0.0,0.0,0.0,0.0,0.0,0.0,0.0,0.0,0.0,0.0,0.0,0.0,0.0,0.0,0.0,0.0,0.0,0.0,0.0,0.0,1.6406,1.6592,1.7012,0.0,0.0,0.0,0.0,0.0,0.0,1.7096,1.6911,0.0,0.0,0.0,0.0,0.0,0.0,0.0,0.0,0.0,0.0,0.0,0.0,0.0,0.0,0.0,0.0,0.0,0.0,0.0,0.0,0.0,0.0,0.0,0.0,0.0,0.0,0.0,0.0,0.0,0.0,0.0,0.0,0.0,0.0,0.0,0.0,0.0,0.0,0.0,0.0,0.0,0.0,0.0,0.0,0.0,0.0,0.0,0.0,0.0,0.0,0.0,0.0,0.0,0.0,0.0,1.6633,1.7195,1.7929,1.8782,1.872,1.8747,1.8818,1.777,1.6794,0.0,0.0,0.0,0.0,0.0,0.0,0.0,0.0,0.0,0.0,0.0,0.0,0.0,0.0,0.0,0.0,0.0,0.0,0.0,0.0,0.0,0.0,0.0,0.0,0.0,0.0,0.0,0.0,0.0,0.0,0.0,0.0,0.0,0.0,0.0,0.0,0.0,0.0,0.0,0.0,0.0,1.7753,1.782,1.7783,0.0,0.0,0.0,0.0,1.7735,1.8167,0.0,0.0,0.0,0.0,0.0,0.0,0.0,0.0,0.0,0.0,0.0,0.0,0.0,0.0,0.0,0.0,0.0,0.0,0.0,0.0,0.0,0.0,0.0,0.0,0.0,0.0,0.0,0.0,0.0,0.0,0.0,0.0,0.0,0.0,0.0,0.0,0.0,0.0,0.0,0.0,0.0,0.0,0.0,0.0,0.0,0.0,0.0,0.0,0.0,0.0,0.0,0.0,0.0,0.0,0.0,0.0,1.746,1.7869,1.8597,1.9569,1.9207,1.9195,1.9606,1.8017,1.7001,0.0,0.0,0.0,0.0,0.0,0.0,0.0,0.0,0.0,0.0,0.0,0.0,0.0,0.0,0.0,0.0,0.0,0.0,0.0,0.0,0.0,0.0,0.0,0.0,0.0,0.0,0.0,0.0,0.0,0.0,0.0,0.0,0.0,0.0,0.0,0.0,0.0,0.0,0.0,0.0,0.0,1.8945,1.9206,1.8997,1.8867,0.0,0.0,2.0767,2.1326,2.312,0.0,0.0,0.0,0.0,0.0,0.0,0.0,0.0,0.0,0.0,0.0,0.0,0.0,0.0,0.0,0.0,0.0,0.0,0.0,0.0,0.0,0.0,0.0,0.0,0.0,0.0,0.0,0.0,0.0,0.0,0.0,0.0,0.0,0.0,0.0,0.0,0.0,0.0,0.0,0.0,0.0,0.0,0.0,0.0,0.0,0.0,0.0,0.0,0.0,0.0,0.0,0.0,0.0,0.0,0.0,1.7992,1.7979,1.9046,1.9673,1.9786,1.9585,1.9572,1.9798,1.8445,1.7528,0.0,0.0,0.0,0.0,0.0,0.0,0.0,0.0,0.0,0.0,0.0,0.0,0.0,0.0,0.0,0.0,0.0,0.0,0.0,0.0,0.0,0.0,0.0,0.0,0.0,0.0,0.0,0.0,0.0,0.0,0.0,0.0,0.0,0.0,0.0,0.0,0.0,0.0,0.0,0.0,0.0,0.0,2.0599,2.0654,0.0,0.0,0.0,2.164,2.1406,0.0,0.0,0.0,0.0,0.0,0.0,0.0,0.0,0.0,0.0,0.0,0.0,0.0,0.0,0.0,0.0,0.0,0.0,0.0,0.0,0.0,0.0,0.0,0.0,0.0,0.0,0.0,0.0,0.0,0.0,0.0,0.0,0.0,0.0,0.0,0.0,0.0,0.0,0.0,0.0,0.0,0.0,0.0,0.0,0.0,0.0,0.0,0.0,0.0,0.0,0.0,0.0,0.0,0.0,0.0,0.0,0.0,1.836,2.0016,2.0587,1.9926,1.9888,1.9862,1.9786,1.8894,0.0,0.0,0.0,0.0,0.0,0.0,0.0,0.0,0.0,0.0,0.0,0.0,0.0,0.0,0.0,0.0,0.0,0.0,0.0,0.0,0.0,0.0,0.0,0.0,0.0,0.0,0.0,1.485,0.0,0.0,0.0,0.0,0.0,0.0,0.0,0.0,0.0,0.0,0.0,0.0,0.0,0.0,2.2274,2.1817,2.2274,2.2777,0.0,0.0,2.2902,2.2552,2.4355,2.467,0.0,0.0,0.0,0.0,0.0,0.0,0.0,0.0,0.0,0.0,0.0,0.0,0.0,0.0,0.0,0.0,0.0,0.0,0.0,0.0,0.0,0.0,0.0,0.0,0.0,0.0,0.0,0.0,0.0,0.0,0.0,0.0,0.0,0.0,0.0,0.0,0.0,0.0,0.0,0.0,0.0,0.0,0.0,0.0,0.0,0.0,0.0,0.0,0.0,0.0,0.0,0.0,0.0,0.0,1.9166,1.8654,2.0472,2.1043,2.0233,2.0156,2.0042,1.9798,1.9233,1.8572,0.0,0.0,0.0,0.0,0.0,0.0,0.0,0.0,0.0,0.0,0.0,0.0,0.0,0.0,0.0,0.0,0.0,0.0,0.0,0.0,0.0,0.0,0.0,0.0,0.0,0.0,0.0,0.0,0.0,0.0,0.0,0.0,0.0,0.0,0.0,0.0,0.0,0.0,0.0,0.0,0.0,2.3386,2.2871,2.3661,2.4774,0.0,2.5624,2.5583,2.6694,2.9087,2.9134,2.3994,0.0,0.0,0.0,0.0,0.0,0.0,0.0,0.0,0.0,0.0,0.0,0.0,0.0,0.0,0.0,0.0,0.0,0.0,0.0,0.0,0.0,0.0,0.0,0.0,0.0,0.0,0.0,0.0,0.0,0.0,0.0,0.0,0.0,0.0,0.0,0.0,0.0,0.0,0.0,0.0,0.0,0.0,0.0,0.0,0.0,0.0,0.0,0.0,0.0,0.0,0.0,0.0,0.0,2.0028,1.9256,2.1587,2.217,2.0898,2.082,2.066,2.0295,1.9767,1.9048,0.0,0.0,0.0,0.0,0.0,0.0,0.0,0.0,0.0,0.0,0.0,0.0,0.0,0.0,0.0,0.0,0.0,0.0,0.0,0.0,0.0,0.0,0.0,0.0,0.0,0.0,0.0,0.0,1.7626,1.7652,1.7865,0.0,0.0,0.0,0.0,0.0,0.0,0.0,0.0,0.0,0.0,2.4666,2.549,2.5961,0.0,0.0,2.7541,2.7381,2.6892,2.8272,2.811,2.4364,2.3648,0.0,0.0,0.0,0.0,0.0,0.0,0.0,0.0,0.0,0.0,0.0,0.0,0.0,0.0,0.0,0.0,0.0,0.0,0.0,0.0,0.0,0.0,0.0,0.0,0.0,0.0,0.0,0.0,0.0,0.0,0.0,0.0,0.0,0.0,0.0,0.0,0.0,0.0,0.0,0.0,0.0,0.0,0.0,0.0,0.0,0.0,0.0,0.0,0.0,0.0,0.0,0.0,2.087,2.0033,2.2759,2.3386,2.18,2.1786,2.1496,2.0917,2.058,1.989,0.0,0.0,0.0,0.0,0.0,0.0,0.0,0.0,0.0,0.0,0.0,0.0,0.0,0.0,0.0,0.0,0.0,0.0,0.0,0.0,0.0,0.0,0.0,0.0,0.0,0.0,0.0,0.0,1.8342,1.8267,1.8442,0.0,0.0,0.0,0.0,0.0,0.0,0.0,0.0,0.0,0.0,2.585,2.6666,2.6917,2.7253,2.7783,2.7734,2.7469,2.6839,2.7356,2.7092,2.4845,0.0,0.0,0.0,0.0,0.0,0.0,0.0,0.0,0.0,0.0,0.0,0.0,0.0,0.0,0.0,0.0,0.0,0.0,0.0,0.0,0.0,0.0,0.0,0.0,0.0,0.0,0.0,1.6565,0.0,0.0,1.7034,0.0,0.0,0.0,0.0,0.0,0.0,0.0,0.0,0.0,0.0,0.0,0.0,0.0,0.0,0.0,0.0,0.0,0.0,0.0,0.0,0.0,0.0,2.1592,2.1027,2.3879,2.4622,2.3118,2.3076,2.2608,2.17,2.1659,2.1252,2.0377,0.0,0.0,0.0,0.0,0.0,0.0,0.0,0.0,0.0,0.0,0.0,0.0,0.0,0.0,0.0,0.0,0.0,0.0,0.0,0.0,0.0,0.0,0.0,0.0,0.0,0.0,1.7556,1.7926,1.8441,0.0,0.0,0.0,0.0,0.0,0.0,0.0,0.0,0.0,0.0,2.5179,2.6851,2.5833,2.6194,2.6832,2.7339,2.6072,2.5556,2.71,2.7304,2.6892,0.0,0.0,0.0,0.0,0.0,0.0,0.0,0.0,0.0,0.0,0.0,0.0,0.0,0.0,0.0,0.0,0.0,0.0,0.0,0.0,0.0,0.0,0.0,0.0,0.0,0.0,0.0,1.821,1.8259,0.0,0.0,0.0,0.0,0.0,0.0,0.0,0.0,0.0,0.0,0.0,2.3068,2.3598,0.0,0.0,0.0,0.0,0.0,0.0,0.0,0.0,0.0,0.0,0.0,0.0,2.2347,2.2091,2.4758,2.5399,2.3826,2.3782,2.3286,2.2267,2.223,2.1856,2.1027,0.0,0.0,0.0,0.0,0.0,0.0,0.0,0.0,0.0,0.0,0.0,0.0,0.0,0.0,0.0,0.0,0.0,0.0,0.0,0.0,0.0,0.0,0.0,0.0,0.0,1.9244,0.0,0.0,0.0,0.0,0.0,0.0,0.0,0.0,0.0,0.0,0.0,2.4309,2.5408,2.6163,2.668,2.6958,2.7946,2.8972,0.0,0.0,0.0,0.0,0.0,0.0,0.0,0.0,0.0,0.0,0.0,0.0,0.0,0.0,2.8702,2.5818,2.5839,2.6411,2.6821,0.0,0.0,0.0,0.0,0.0,0.0,0.0,0.0,0.0,0.0,0.0,0.0,0.0,0.0,2.015,2.0137,2.0133,0.0,0.0,0.0,0.0,0.0,0.0,0.0,0.0,2.4582,2.5025,2.4948,2.5364,2.5484,0.0,2.5218,2.3945,0.0,0.0,0.0,0.0,0.0,0.0,0.0,0.0,2.2944,2.2824,2.5267,2.5944,2.4684,2.4381,2.3825,2.2926,2.2762,2.2577,2.2277,2.1298,2.055,0.0,0.0,0.0,0.0,0.0,0.0,0.0,0.0,0.0,0.0,0.0,0.0,0.0,0.0,0.0,0.0,0.0,0.0,0.0,0.0,0.0,0.0,0.0,2.083,0.0,0.0,0.0,0.0,0.0,0.0,0.0,0.0,0.0,2.4736,2.5409,2.6328,2.7419,2.7657,2.7742,2.78,0.0,0.0,0.0,0.0,0.0,0.0,0.0,2.7917,2.7584,2.7777,2.8593,3.0554,3.1718,3.2325,3.2129,0.0,0.0,2.9304,2.9315,3.0007,3.0395,3.0337,3.0143,3.0072,3.006,3.0075,0.0,0.0,0.0,0.0,0.0,0.0,0.0,0.0,2.2523,2.2457,0.0,2.2192,0.0,0.0,0.0,0.0,2.2029,2.3799,0.0,0.0,2.738,2.8035,2.7427,2.7411,2.7427,2.7435,2.7396,2.6756,2.5453,2.4392,0.0,0.0,0.0,0.0,0.0,0.0,2.3334,2.3452,2.5535,2.6288,2.5591,2.4993,2.435,2.3708,2.3312,2.3413,2.4048,2.3238,2.2678,2.2351,2.1283,0.0,0.0,0.0,0.0,0.0,0.0,0.0,0.0,0.0,0.0,0.0,0.0,0.0,0.0,0.0,0.0,0.0,0.0,0.0,0.0,2.1583,0.0,0.0,0.0,0.0,0.0,0.0,0.0,0.0,0.0,0.0,2.5198,2.6803,2.8232,2.8232,0.0,0.0,0.0,0.0,2.9678,2.868,2.7957,2.7875,2.8455,2.9473,3.0411,3.0954,0.0,0.0,3.3971,3.3485,3.3052,3.2484,3.4164,3.4955,3.3388,3.2702,3.2434,3.244,3.2148,3.1537,3.1301,3.1647,3.1546,2.719,0.0,0.0,0.0,0.0,2.3573,2.3858,2.4985,2.4359,2.4119,2.4186,2.4375,0.0,0.0,0.0,0.0,0.0,0.0,2.5782,2.6826,2.7427,2.7835,2.8128,2.8088,2.8231,2.8459,2.8365,2.8163,2.7904,2.7473,2.556,2.2218,0.0,0.0,0.0,0.0,2.4235,2.5007,2.6503,2.6776,2.5606,2.5899,2.5719,2.5046,2.4,2.3993,2.5123,2.4,2.3489,2.3689,2.2687,0.0,0.0,0.0,0.0,0.0,0.0,0.0,0.0,0.0,0.0,0.0,0.0,0.0,0.0,0.0,0.0,0.0,0.0,0.0,2.2695,2.3421,2.3684,0.0,0.0,0.0,0.0,0.0,0.0,0.0,0.0,0.0,2.882,2.8607,2.8655,0.0,0.0,2.8442,2.8424,2.9944,3.1452,3.254,3.2954,0.0,3.3572,3.2951,3.2569,3.2966,3.502,3.6523,3.6397,3.7005,3.7496,3.7311,3.7817,3.8068,3.7657,3.7099,3.6816,3.7189,3.7184,3.7057,3.698,3.6956,3.6911,2.959,2.7585,2.714,2.6974,2.6908,2.6102,2.6396,2.7425,2.6553,2.6237,2.6337,2.6219,2.5749,2.4986,2.4862,0.0,0.0,0.0,2.7246,2.8519,2.8503,2.8733,2.9106,2.9121,2.922,2.9441,2.9628,2.9573,2.9409,2.9061,2.7364,2.4434,0.0,0.0,2.3043,2.4234,2.5144,2.5778,2.672,2.6846,2.6184,2.6171,2.6019,2.56,2.4822,2.4896,2.5929,2.5211,2.4783,2.4802,2.3948,2.3025,0.0,0.0,0.0,0.0,0.0,0.0,0.0,0.0,0.0,0.0,0.0,2.0181,1.9575,0.0,0.0,0.0,2.204,2.2928,2.4276,2.4515,0.0,0.0,0.0,0.0,0.0,0.0,0.0,2.6796,2.8873,3.047,3.0834,3.0482,3.0389,3.1057,3.046,2.9996,3.0133,0.0,3.3455,3.4384,3.5055,3.5526,3.5666,3.5307,3.523,3.5925,3.7203,3.8133,3.8242,3.8916,3.9358,3.9388,3.9388,3.9388,3.9388,3.9083,3.8936,3.9316,3.9388,3.9388,3.9388,3.9388,3.9313,3.1175,3.138,2.9988,2.9217,2.8902,2.8602,2.8805,2.9329,2.8697,2.842,2.8359,2.7837,2.7233,2.6658,2.6075,0.0,2.7571,2.8169,2.907,3.0227,3.0227,3.0156,3.0091,3.0107,3.0074,3.0004,3.0691,3.0691,3.0091,2.9535,2.8788,2.7899,2.7024,2.6092,2.5101,2.5575,2.5955,2.6039,2.6389,2.6775,2.7081,2.6148,2.5691,2.5826,2.573,2.6,2.6705,2.6606,2.6336,2.5803,2.5091,2.4418,2.3766,0.0,0.0,0.0,0.0,0.0,0.0,0.0,0.0,0.0,0.0,0.0,0.0,0.0,0.0,0.0,2.4373,0.0,2.5681,2.5232,0.0,0.0,0.0,2.6531,2.8385,2.8991,2.9496,3.0066,0.0,0.0,3.1765,3.228,3.297,3.3728,3.3577,3.3186,3.2662,3.4113,3.5205,3.4683,3.5205,3.5669,3.5845,3.6604,3.7649,3.8715,3.9298,3.9164,3.911,3.9119,3.9194,3.917,3.9209,3.9215,3.9281,3.9242,3.9331,3.9307,3.937,3.9358,3.9305,3.9239,3.908,3.0602,3.0612,3.0613,3.0664,3.0685,2.9551,2.9187,2.9279,2.8828,2.8614,2.8637,2.8939,2.9147,2.9302,2.9108,2.9226,2.9512,2.9675,2.9902,3.0189,3.0227,2.9878,2.93,2.9283,2.8985,2.8523,2.9165,2.9447,2.9316,2.9751,2.9534,2.8735,2.8491,2.7251,2.5073,2.5061,2.548,2.6289,2.6397,2.6972,2.7977,2.6849,2.6704,2.7682,2.675,2.6765,2.7896,2.6792,2.6553,2.7361,2.6137,2.5393,2.5402,2.3393,0.0,0.0,0.0,0.0,0.0,0.0,0.0,0.0,0.0,2.2378,2.1032,0.0,2.3281,0.0,2.5585,2.6971,2.7121,2.7425,0.0,0.0,2.7506,2.7834,2.8528,2.9831,3.0635,3.0505,3.1579,3.2746,3.3794,3.408,3.482,3.6474,3.4224,3.2551,3.3186,3.4068,3.4861,3.5265,3.6193,3.6941,3.6956,3.7629,3.8227,3.8571,3.8631,3.8467,3.7988,3.7849,3.7883,3.7898,3.7883,3.8022,3.8463,3.8485,3.8617,3.8812,3.9148,3.926,3.8766,3.8631,3.8437,3.0339,3.0595,3.0782,3.0854,3.0747,3.0022,2.9688,2.9666,2.9273,2.909,2.9136,2.9633,3.0,3.0205,3.0227,3.0274,3.0422,3.0422,3.0323,3.0148,3.0148,2.9932,2.95,2.948,2.943,2.9397,2.9782,2.9982,2.9998,3.0414,3.0397,2.9982,2.9823,2.8717,2.6713,2.5835,2.5669,2.6162,2.6423,2.7311,2.8744,2.7819,2.7357,2.7481,2.7202,2.6884,2.6663,2.6169,2.5933,2.5976,2.5023,2.4455,2.4371,2.2909,2.2175,0.0,0.0,0.0,0.0,0.0,0.0,0.0,0.0,0.0,0.0,0.0,2.4072,2.485,2.708,2.8424,2.8367,2.8779,2.9064,2.9077,2.9459,3.0071,3.0995,3.218,3.2953,3.303,3.3799,3.4642,3.5408,3.5823,3.6368,3.7412,3.5978,3.482,3.4897,3.5444,3.591,3.5974,3.6776,3.7404,3.7404,3.7704,3.7943,3.7943,3.8097,3.8065,3.7703,3.7916,3.8134,3.8167,3.8317,3.8531,3.8837,3.8917,3.8965,3.9139,3.9394,3.9253,3.8554,3.841,3.8247,3.0338,3.0804,3.0681,3.0421,3.013,3.0165,3.0108,2.9886,2.9522,2.9452,2.9636,3.0075,3.0295,3.0338,3.0338,3.0485,3.0753,3.0753,3.0529,3.0106,3.0209,3.0142,2.9973,3.0074,3.0378,3.0903,3.1004,3.1055,3.1055,3.114,3.114,3.1055,3.0761,2.9995,2.868,2.7157,2.627,2.6075,2.6609,2.7653,2.9124,2.8503,2.7612,2.6525,2.7237,2.6816,2.5045,2.5534,2.5287,2.4092,2.3767,2.3465,2.3063,2.2269,2.2204,0.0,2.2572,0.0,0.0,0.0,0.0,0.0,0.0,0.0,0.0,2.4481,2.5056,2.6698,2.8452,2.9515,2.9571,2.9794,3.0334,3.1146,3.1644,3.256,3.4049,3.4752,3.5373,3.5948,3.6238,3.6408,3.6516,3.7183,3.7482,3.7383,3.7682,3.7496,3.6987,3.714,3.7296,3.6741,3.711,3.7521,3.7607,3.7631,3.7646,3.7661,3.7895,3.7964,3.7892,3.8383,3.8874,3.889,3.9091,3.9414,3.9615,3.9567,3.9614,3.958,3.9614,3.9372,3.8682,3.847,3.8367,3.0838,3.0337,3.0353,3.0292,3.0184,3.0169,2.9502,2.8334,2.8249,2.8747,2.9621,3.0319,3.0753,3.0995,3.1012,3.1035,3.1112,3.1112,3.0743,3.0123,3.0717,3.0345,2.9262,2.982,2.9854,2.9467,3.0023,3.0311,3.0345,3.0903,3.0903,3.0328,3.0253,2.9719,2.8697,0.0,0.0,0.0,2.7312,2.7692,2.7982,2.7304,2.6823,2.6587,2.6824,0.0,2.7215,2.6615,2.6439,2.6727,2.6533,0.0,0.0,0.0,0.0,0.0,0.0,0.0,0.0,0.0,0.0,0.0,2.4478,2.442,2.5132,2.6141,2.7105,2.7992,2.8904,2.9877,3.0974,3.1606,3.2277,3.2985,3.3466,3.3941,3.4489,3.4952,3.5402,3.5649,3.5753,3.6028,3.6616,3.6882,3.717,3.7626,3.7893,3.7877,3.7595,3.7664,3.7689,3.7605,3.7644,3.7925,3.8445,3.8479,3.8386,3.854,3.857,3.8411,3.7968,3.7945,3.8091,3.8123,3.8134,3.8399,3.8715,3.8756,3.895,3.9114,3.9187,3.9048,3.8792,3.8739,3.8547,3.0705,3.0443,3.0472,3.0373,0.0,3.0155,2.927,2.7902,2.8497,2.9145,2.9892,3.0633,3.1032,3.1173,3.0818,3.0666,3.0632,3.0277,2.9924,2.9583,2.9958,2.9905,2.955,2.9922,3.0108,3.011,3.0463,3.0835,3.119,3.1546,3.1715,3.1712,3.1732,3.1486,3.1018,3.0297,2.9348,2.8138,2.8014,2.8233,2.8823,2.8172,2.7313,2.6376,2.6787,0.0,0.0,0.0,0.0,0.0,0.0,0.0,0.0,2.4821,0.0,2.4957,2.4595,2.4711,2.5388,2.5454,2.5951,2.704,2.7585,2.7465,2.6581,2.8257,2.9512,2.9881,3.0767,3.1616,3.2187,3.2984,3.3545,3.3705,3.4403,3.4911,3.4968,3.5241,3.5464,3.5577,3.5616,3.5769,3.6163,3.6575,3.6931,3.7297,3.7686,3.7862,3.7845,3.782,3.7813,3.7815,3.7822,3.7905,3.8224,3.832,3.832,3.832,3.8437,3.8409,3.8116,3.8362,3.8585,3.8629,3.875,3.9038,3.9216,3.9279,3.9348,3.9487,3.9556,3.9534,3.9435,3.9096,3.8776,3.0663,3.0794,3.0794,3.0616,3.0311,3.0294,2.9516,2.8262,2.9133,0.0,0.0,3.0869,3.119,3.1157,3.0565,3.0275,3.0241,2.967,2.9314,2.9213,2.9331,2.9634,3.0108,3.0243,3.0615,3.119,3.1326,3.1718,3.2293,3.2446,3.278,3.3339,3.3389,3.3389,3.3355,3.278,3.1601,2.9801,2.8801,2.8784,2.9798,2.9009,2.777,2.6115,2.6673,2.6195,2.4563,2.5096,2.5129,2.4513,2.4265,2.4001,2.3697,2.4115,2.4497,2.4725,2.5527,2.6522,2.7705,2.7942,2.8398,2.9331,3.0635,3.0529,2.8469,3.0417,3.1757,3.1757,3.2748,3.3355,3.328,3.397,3.4403,3.4143,3.502,3.5509,3.5406,3.5503,3.56,3.5616,3.5616,3.5616,3.565,3.6163,3.6569,3.666,3.7026,3.7584,3.7715,3.7895,3.8091,3.8116,3.8272,3.8306,3.825,3.8339,3.8222,3.8427,3.8551,3.8613,3.8712,3.9109,3.947,3.947,3.9867,3.9995,4.007,4.002,4.0113,4.0113,4.0113,4.0113,4.0045,3.9556,3.9185,3.1648,3.1131,3.1131,3.11,3.1038,3.1038,3.0565,2.9734,2.9293,2.9462,3.0159,3.0869,3.119,3.119,3.1089,3.1038,3.1038,3.0956,3.0548,3.0006,3.0598,3.0615,3.0159,3.0751,3.1089,3.1241,3.1853,3.2192,3.2361,3.2933,3.3322,3.3406,3.3389,3.3406,3.3389,3.3288,3.279,3.1837,2.9727,2.871,2.8875,2.7536,2.6718,2.6434,2.6068,2.6033,2.6286,2.5847,2.5813,2.6286,2.6286,2.6236,2.6202,2.6236,2.6303,2.6387,2.708,2.7587,2.7807,2.8433,2.9433,3.0751,3.1684,3.1725,3.0867,3.2184,3.3111,3.3132,3.3313,3.3656,3.4209,3.4399,3.4721,3.5206,3.547,3.5577,3.5571,3.5577,3.5616,3.5616,3.5616,3.5616,3.5633,3.5718,3.5836,3.5825,3.6079,3.6191,3.6975,3.8036,3.8731,3.8925,3.937,3.9732,3.9627,3.9756,3.9653,3.9799,3.9722,3.9705,3.9696,3.9825,3.9927,3.9995,4.0045,4.007,4.0113,4.0113,4.0113,4.0113,4.0113,4.0113,4.0113,3.9961,3.9893,3.1495,3.1207,3.119,3.119,3.1157,3.0768,3.0649,3.0615,2.9905,2.977,3.0159,3.0869,3.119,3.1157,3.0784,3.0598,3.0581,3.0176,3.0023,3.0125,3.0446,3.0649,3.0734,3.1038,3.119,3.1241,3.1955,3.2513,3.2933,3.3643,3.4201,3.4551,3.4585,3.4585,3.4568,3.4201,3.3643,3.2882,3.1418,3.0266,2.9471,2.8797,2.8056,2.7229,2.6928,2.6759,2.6708,2.637,2.6353,2.6691,2.6708,2.6877,2.7283,2.7283,2.7486,2.7927,2.8247,2.8619,2.9041,3.0142,3.1075,3.1749,3.2852,3.3359,3.3,3.3609,3.3829,3.3474,3.3761,3.3964,3.3931,3.4269,3.4641,3.4979,3.5346,3.56,3.5616,3.5616,3.5616,3.5616,3.5616,3.5616,3.5616,3.5616,3.5616,3.5616,3.5616,3.5774,3.6129,3.7117,3.8108,3.887,3.9597,4.0045,4.0096,4.0113,4.0113,4.0113,4.0113,4.0113,4.0113,4.0096,4.0079,4.0113,4.0096,4.0113,4.0113,4.0113,4.0113,4.0113,4.0113,4.0113,4.0113,4.0113,4.0113,3.1464,3.1444,3.1464,3.1447,3.1396,3.0666,3.0683,3.1123,3.0598,3.0362,3.0446,3.0954,3.119,3.1123,3.0598,3.0362,3.026,2.9771,2.9822,3.0311,3.0362,3.0649,3.114,3.119,3.119,3.1309,3.2124,3.2831,3.3457,3.4303,3.503,3.5549,3.5616,3.5616,3.5583,3.5047,3.4303,3.344,3.2852,3.1836,3.0429,3.0209,2.9531,2.8415,2.8145,2.7791,2.7249,2.7215,2.7215,2.7215,2.7215,2.7469,2.801,2.8078,2.8366,2.8942,2.9162,2.9634,3.0548,3.165,3.2446,3.2801,3.385,3.4573,3.4726,3.4759,3.4539,3.4066,3.4416,3.4523,3.4163,3.4421,3.4742,3.4793,3.525,3.5583,3.5616,3.5616,3.5616,3.5616,3.5616,3.5616,3.5616,3.5616,3.5616,3.5616,3.5616,3.5616,3.5667,3.6282,3.728,3.8268,3.9266,3.9791,3.9876,4.0011,4.0079,4.0096,3.9943,3.9825,3.9774,3.9723,3.9723,3.9723,3.9825,3.991,4.0028,4.0113,4.0113,4.0113,4.0113,4.0113,4.0113,4.0113,4.0113,3.2209,3.2192,3.2192,3.2192,3.209,3.1393,3.1123,3.1173,3.1106,3.1106,3.1072,3.1157,3.1207,3.119,3.1123,3.1055,3.1072,3.1021,3.0987,3.1055,3.1089,3.114,3.1224,3.1207,3.119,3.1393,3.2594,3.322,3.3406,3.4754,3.5515,3.56,3.5616,3.56,3.5566,3.5498,3.4771,3.3423,3.3339,3.2577,3.1157,3.0463,3.004,2.9886,2.9228,2.8874,2.8705,2.8773,2.8773,2.879,2.8739,2.8807,2.8874,2.8891,2.8942,2.9061,2.9634,3.0598,3.1921,3.2209,3.2903,3.4117,3.4409,3.4793,3.538,3.5481,3.5464,3.5329,3.5414,3.5397,3.5414,3.543,3.5414,3.5397,3.5532,3.5616,3.5616,3.5616,3.5616,3.5616,3.5616,3.5616,3.5616,3.5616,3.5616,3.5616,3.5616,3.5616,3.565,3.618,3.6694,3.7202,3.8142,3.8971,3.9123,3.9665,3.9842,3.9926,3.952,3.9174,3.9005,3.8667,3.8294,3.9005,3.9106,3.9292,3.9825,4.0096,4.0062,4.0096,4.0113,4.0113,4.0113,4.0113,4.0113,3.2949,3.297,3.2949,3.2699,3.2226,3.1515,3.119,3.119,3.119,3.119,3.119,3.119,3.1427,3.1802,3.1413,3.1447,3.1819,3.1413,3.119,3.119,3.119,3.143,3.1785,3.1396,3.1393,3.1836,3.2479,3.2767,3.2983,3.4235,3.5182,3.5566,3.5616,3.5397,3.4996,3.4945,3.4218,3.2801,3.275,3.2239,3.1292,3.092,3.0548,3.0106,2.9803,2.9414,2.9044,2.8993,2.8993,2.8993,2.8993,2.9213,2.9617,2.9651,2.9854,3.0296,3.097,3.1667,3.2276,3.3106,3.3867,3.4455,3.4912,3.5278,3.5549,3.5616,3.5616,3.5616,3.5616,3.5616,3.5616,3.5616,3.5616,3.5616,3.5616,3.5616,3.5616,3.5616,3.5616,3.5616,3.5616,3.5616,3.5616,3.5616,3.5616,3.5616,3.5616,3.5616,3.5633,3.5887,3.6045,3.6214,3.7009,3.7804,3.8261,3.8565,3.8802,3.8768,3.8565,3.8362,3.8294,3.8176,3.8058,3.8311,3.8328,3.8616,3.9292,3.9462,3.9537,3.9842,4.0113,4.0113,4.0113,4.0113,4.0113,3.3711,3.3643,3.3288,3.2916,3.253,3.1579,3.119,3.119,3.119,3.119,3.119,3.119,3.1616,3.2158,3.1752,3.1819,3.2209,3.1952,3.1681,3.1529,3.1495,3.1785,3.2209,3.1565,3.1461,3.1955,3.2192,3.2412,3.2716,3.3846,3.4776,3.5228,3.5295,3.5126,3.481,3.4641,3.388,3.2716,3.2429,3.1938,3.1292,3.119,3.0937,3.0463,3.0412,3.0142,2.9653,2.9619,2.9619,2.9619,2.9619,2.9837,3.0362,3.0412,3.0734,3.1444,3.2188,3.2716,3.2903,3.3901,3.4573,3.481,3.5312,3.5616,3.5616,3.5616,3.5616,3.5616,3.5616,3.5616,3.5616,3.5616,3.5616,3.5616,3.5616,3.5616,3.5616,3.5616,3.5616,3.5616,3.5616,3.5616,3.5616,3.5616,3.5616,3.5616,3.5616,3.5616,3.5616,3.5616,3.5633,3.5616,3.6146,3.6721,3.7432,3.7905,3.7855,3.7838,3.7838,3.7601,3.7533,3.7483,3.7499,3.7415,3.7516,3.7889,3.8582,3.8802,3.9249,3.9825,4.0096,4.0096,4.0113,4.0113,4.0113,3.4438,3.4218,3.2936,3.275,3.322,3.1819,3.121,3.121,3.121,3.121,3.121,3.121,3.1616,3.2313,3.2229,3.2259,3.2378,3.2882,3.2767,3.2195,3.2226,3.2276,3.2226,3.1546,3.1241,3.1478,3.2039,3.2682,3.3372,3.4117,3.4527,3.459,3.4675,3.4928,3.5245,3.4793,3.4117,3.3237,3.2594,3.1938,3.1292,3.119,3.1173,3.1089,3.1123,3.1055,3.1021,3.1072,3.1055,3.1055,3.0987,3.1072,3.1123,3.1123,3.1478,3.2226,3.2949,3.3643,3.4201,3.4472,3.481,3.5397,3.5549,3.5616,3.5616,3.5616,3.5616,3.5616,3.5616,3.5616,3.5616,3.5616,3.5616,3.5616,3.5616,3.5616,3.5616,3.5616,3.5616,3.5616,3.5616,3.5616,3.5616,3.5616,3.5616,3.5616,3.5616,3.5616,3.5616,3.5616,3.5616,3.5616,3.5718,3.596,3.6705,3.7127,3.7601,3.7533,3.7043,3.6863,3.6569,3.64,3.6485,3.6569,3.6738,3.7144,3.7838,3.8514,3.9199,3.9706,4.0011,4.0079,4.0096,4.0113,4.0113,3.4928,3.4375,3.3043,3.2661,3.2784,3.1929,3.1519,3.1402,3.1383,3.1402,3.1385,3.1402,3.181,3.2491,3.2633,3.2554,3.233,3.2598,3.2371,3.1944,3.2605,3.2829,3.2454,3.2083,3.1904,3.1955,3.2175,3.2936,3.4015,3.4387,3.4742,3.5126,3.5216,3.5148,3.4895,3.4624,3.3914,3.278,3.2412,3.1938,3.1326,3.119,3.119,3.119,3.119,3.119,3.119,3.119,3.119,3.119,3.119,3.119,3.1241,3.165,3.2242,3.2949,3.3694,3.4218,3.4489,3.4962,3.5295,3.5549,3.5616,3.5616,3.5616,3.5616,3.5616,3.5616,3.5616,3.5616,3.5616,3.5616,3.5616,3.5616,3.5616,3.5616,3.5616,3.5616,3.5616,3.5616,3.5616,3.5616,3.5616,3.5616,3.5616,3.5616,3.5616,3.5616,3.5616,3.5616,3.5616,3.5616,3.5616,3.5684,3.5926,3.6197,3.6417,3.6383,3.6163,3.6113,3.5926,3.5943,3.6028,3.6079,3.6163,3.6485,3.7229,3.8261,3.8937,3.9249,3.9554,4.0062,4.0113,4.0045,4.0062,3.5142,3.4827,3.3813,3.3385,3.3328,3.2519,3.207,3.1901,3.1639,3.1536,3.1574,3.1536,3.1827,3.2316,3.2485,3.2408,3.2258,3.2855,3.2898,3.2449,3.3455,3.3782,3.3439,3.3051,3.2849,3.2836,3.294,3.3461,3.4083,3.4387,3.4776,3.5216,3.5228,3.5148,3.4844,3.4641,3.3969,3.3139,3.2784,3.2408,3.1952,3.1918,3.1901,3.1901,3.1901,3.1647,3.1224,3.119,3.119,3.1207,3.141,3.1684,3.1935,3.2594,3.3224,3.3761,3.4455,3.4861,3.4912,3.5312,3.56,3.56,3.5616,3.5616,3.5616,3.5616,3.5616,3.5616,3.5616,3.5616,3.5616,3.5616,3.5616,3.5616,3.5616,3.5616,3.5616,3.5616,3.5616,3.5616,3.5616,3.5616,3.5616,3.5616,3.5616,3.5616,3.5616,3.5616,3.5616,3.5616,3.5616,3.5616,3.5616,3.5616,3.5718,3.5853,3.5921,3.5853,3.5853,3.5684,3.5616,3.5616,3.5616,3.5616,3.5769,3.6079,3.6772,3.7838,3.8362,3.865,3.936,4.0028,4.0011,3.996,3.9977,3.5081,3.5685,3.5177,3.4792,3.468,3.3425,3.2871,3.2695,3.1974,3.1788,3.1936,3.1682,3.1823,3.1902,3.2028,3.1887,3.2212,3.3818,3.4335,3.3798,3.4691,3.5053,3.4852,3.4298,3.3937,3.3786,3.4224,3.41,3.3744,3.432,3.4658,3.459,3.4709,3.5013,3.5549,3.4912,3.4523,3.4201,3.3694,3.3355,3.3372,3.322,3.3186,3.3237,3.3237,3.2645,3.1376,3.1326,3.1393,3.1444,3.1972,3.2645,3.3288,3.3931,3.4443,3.4556,3.5182,3.5515,3.5549,3.5566,3.5616,3.5616,3.5616,3.5616,3.5616,3.5616,3.5616,3.5616,3.5616,3.5616,3.5616,3.5616,3.5616,3.5616,3.5616,3.5616,3.5616,3.5616,3.5616,3.5616,3.5616,3.5616,3.5616,3.5616,3.5616,3.5616,3.5616,3.5616,3.5616,3.5616,3.5616,3.5616,3.5616,3.5616,3.5616,3.5616,3.5633,3.5633,3.565,3.5616,3.5616,3.5616,3.5616,3.5616,3.5616,3.591,3.6265,3.7229,3.7652,3.8075,3.9029,3.9639,3.9428,3.9326,3.9825,3.4793,3.5143,3.4552,3.4407,3.4517,3.3676,3.3241,3.3094,3.2759,3.2708,3.2746,3.2708,3.2691,3.2644,3.2387,3.2126,3.2123,3.3397,3.3797,3.3823,3.5175,3.5451,3.4842,3.4794,3.4771,3.4558,3.4516,3.4675,3.4912,3.5109,3.5245,3.5267,3.525,3.5346,3.5566,3.5346,3.5064,3.4523,3.4269,3.3931,3.3457,3.3406,3.3406,3.3389,3.3389,3.3152,3.2763,3.2713,3.2713,3.2696,3.2933,3.3389,3.4049,3.4375,3.4726,3.5199,3.5447,3.5616,3.5616,3.5616,3.5616,3.5616,3.5616,3.5616,3.5616,3.5616,3.5616,3.5616,3.5616,3.5616,3.5616,3.5616,3.5616,3.5616,3.5616,3.5616,3.5616,3.5616,3.5616,3.5616,3.5616,3.5616,3.5616,3.5616,3.5616,3.5616,3.5616,3.5616,3.5616,3.5616,3.5616,3.5616,3.5616,3.5616,3.5616,3.5616,3.5616,3.5616,3.5616,3.5616,3.5616,3.5616,3.5616,3.5616,3.5616,3.5735,3.6113,3.6552,3.7077,3.7533,3.8319,3.8514,3.8447,3.8768,3.9292,3.4955,3.5359,3.4786,3.4692,3.4798,3.3913,3.344,3.3314,3.3223,3.3084,3.2947,3.3119,3.3067,3.2878,3.2547,3.2336,3.2354,3.3405,3.3878,3.3977,3.529,3.5762,3.5372,3.5593,3.5649,3.5441,3.5189,3.5237,3.5583,3.5616,3.56,3.56,3.5616,3.56,3.5616,3.56,3.5334,3.4962,3.4912,3.4692,3.4298,3.4218,3.4197,3.4213,3.4213,3.4218,3.4197,3.4218,3.3964,3.3571,3.3643,3.4167,3.4827,3.4928,3.5109,3.5464,3.5616,3.5616,3.5616,3.5616,3.5616,3.5616,3.5616,3.5616,3.5616,3.5616,3.5616,3.5616,3.5616,3.5616,3.5616,3.5616,3.5616,3.5616,3.5616,3.5616,3.5616,3.5616,3.5616,3.5616,3.5616,3.5616,3.5616,3.5616,3.5616,3.5616,3.5616,3.5616,3.5616,3.5616,3.5616,3.5616,3.5616,3.5616,3.5616,3.5616,3.5616,3.5616,3.5616,3.5616,3.5616,3.5616,3.5616,3.5616,3.5616,3.5616,3.5904,3.6434,3.6965,3.7388,3.7533,3.777,3.7922,3.8379,3.8853,3.5513,3.6222,3.5786,3.5669,3.5668,3.4353,3.3792,3.3651,3.3541,3.3227,3.2897,3.3366,3.3157,3.2634,3.2739,3.2704,3.2722,3.3933,3.4653,3.4862,3.5561,3.6052,3.663,3.6554,3.6364,3.6176,3.5981,3.5793,3.5622,3.5616,3.5616,3.5616,3.5616,3.5616,3.5616,3.5616,3.5583,3.5498,3.5532,3.5481,3.5447,3.5498,3.5481,3.5464,3.543,3.5414,3.5363,3.5346,3.4839,3.3825,3.4269,3.4861,3.543,3.56,3.5549,3.5616,3.5616,3.5616,3.5616,3.5616,3.5616,3.5616,3.5616,3.5616,3.5616,3.5616,3.5616,3.5616,3.5616,3.5616,3.5616,3.5616,3.5616,3.5616,3.5616,3.5616,3.5616,3.5616,3.5616,3.5616,3.5616,3.5616,3.5616,3.5616,3.5616,3.5616,3.5616,3.5616,3.5616,3.5616,3.5616,3.5616,3.5616,3.5616,3.5616,3.5616,3.5616,3.5616,3.5616,3.5616,3.5616,3.5616,3.5616,3.5616,3.5616,3.5616,3.5735,3.6214,3.6315,3.6315,3.6637,3.7094,3.7483,3.7804,3.8193,3.6187,3.6568,3.6455,3.6474,3.6531,3.5601,3.5143,3.5161,3.507,3.451,3.4301,3.4825,3.4247,3.3336,3.3793,3.3775,3.36,3.4267,3.5039,3.5495,3.5669,3.6268,3.6825,3.6786,3.6544,3.6301,3.6105,3.5866,3.5622,3.5616,3.5616,3.5616,3.5616,3.5616,3.5616,3.5616,3.5616,3.5616,3.5616,3.5616,3.5616,3.5616,3.5616,3.5616,3.5616,3.5616,3.5616,3.5616,3.5481,3.5109,3.5177,3.5346,3.5566,3.5616,3.5616,3.5616,3.5616,3.5616,3.5616,3.5616,3.5616,3.5616,3.5616,3.5616,3.5616,3.5616,3.5616,3.5616,3.5616,3.5616,3.5616,3.5616,3.5616,3.5616,3.5616,3.5616,3.5616,3.5616,3.5616,3.5616,3.5616,3.5616,3.5616,3.5616,3.5616,3.5616,3.5616,3.5616,3.5616,3.5616,3.5616,3.5616,3.5616,3.5616,3.5616,3.5616,3.5616,3.5616,3.5616,3.5616,3.5616,3.5616,3.5616,3.5616,3.5616,3.5616,3.5616,3.5842,3.5633,3.5616,3.6146,3.6772,3.6721,3.6907,3.733,3.6582,3.6667,3.6437,3.6379,3.6338,3.532,3.5039,3.5232,3.495,3.4617,3.4354,3.4618,3.4337,3.36,3.3968,3.4144,3.4127,3.4811,3.5372,3.5775,3.618,3.6584,3.6898,3.6866,3.6629,3.6301,3.6191,3.5932,3.5667,3.5616,3.5616,3.5616,3.5616,3.5616,3.5616,3.5616,3.5616,3.5616,3.5616,3.5616,3.5616,3.5616,3.5616,3.5616,3.5616,3.5616,3.5616,3.5616,3.56,3.5583,3.56,3.5616,3.5616,3.5616,3.5616,3.5616,3.5616,3.5616,3.5616,3.5616,3.5616,3.5616,3.5616,3.5616,3.5616,3.5616,3.5616,3.5616,3.5616,3.5616,3.5616,3.5616,3.5616,3.5616,3.5616,3.5616,3.5616,3.5616,3.5616,3.5616,3.5616,3.5616,3.5616,3.5616,3.5616,3.5616,3.5616,3.5616,3.5616,3.5616,3.5616,3.5616,3.5616,3.5616,3.5616,3.5616,3.5616,3.5616,3.5616,3.5616,3.5616,3.5616,3.5616,3.5616,3.5616,3.5616,3.5616,3.5616,3.5616,3.5752,3.6146,3.6231,3.618,3.6208,3.6637,3.6742,3.6673,3.6136,3.5934,3.5814,3.4425,3.4426,3.469,3.4179,3.3827,3.381,3.3775,3.3986,3.3652,3.4266,3.4319,3.4864,3.5658,3.594,3.6274,3.6645,3.7032,3.6972,3.6987,3.6731,3.6406,3.6339,3.6045,3.5761,3.5644,3.5616,3.5616,3.5616,3.5616,3.5616,3.5616,3.5616,3.5616,3.5616,3.5616,3.5616,3.5616,3.5616,3.5616,3.5616,3.5616,3.5616,3.5616,3.5616,3.5616,3.5616,3.5616,3.5616,3.5616,3.5616,3.5616,3.5616,3.5616,3.5616,3.5616,3.5616,3.5616,3.5616,3.5616,3.5616,3.5616,3.5616,3.5616,3.5616,3.5616,3.5616,3.5616,3.5616,3.5616,3.5616,3.5616,3.5616,3.5616,3.5616,3.5616,3.5616,3.5616,3.5616,3.5616,3.5616,3.5616,3.5616,3.5616,3.5616,3.5616,3.5616,3.5616,3.5616,3.5616,3.5616,3.5616,3.5616,3.5616,3.5616,3.5616,3.5616,3.5616,3.5616,3.5616,3.5616,3.5616,3.5616,3.5616,3.5616,3.565,3.5893,3.5808,3.5667,3.5802,3.6113,3.6928,3.693,3.6812,3.6879,3.6836,3.5837,3.5557,3.5846,3.4868,3.4408,3.4565,3.5004,3.4898,3.4495,3.5407,3.6039,3.571,3.6533,3.7034,3.7069,3.7176,3.7185,3.7048,3.7007,3.6849,3.6606,3.6381,3.6152,3.5932,3.5734,3.56,3.5622,3.5644,3.5616,3.5616,3.5622,3.5616,3.5616,3.5616,3.5616,3.5616,3.5616,3.5616,3.5616,3.5616,3.5616,3.5616,3.5616,3.5616,3.5616,3.5616,3.5616,3.5616,3.5616,3.5616,3.5616,3.5616,3.5616,3.5616,3.5616,3.5616,3.5616,3.5616,3.5616,3.5616,3.5616,3.5616,3.5616,3.5616,3.5616,3.5616,3.5616,3.5616,3.5616,3.5616,3.5616,3.5616,3.5616,3.5616,3.5616,3.5616,3.5616,3.5616,3.5616,3.5616,3.5616,3.5616,3.5616,3.5616,3.5616,3.5616,3.5616,3.5616,3.5616,3.5616,3.5622,3.5667,3.5667,3.5644,3.5616,3.5616,3.5616,3.5616,3.5616,3.5616,3.5616,3.5616,3.5616,3.5616,3.5616,3.5616,3.5616,3.5616,3.5616,3.5876,3.6989,3.7009,3.7145,3.7261,3.7251,3.6576,3.6452,3.6487,3.5438,3.4992,3.5163,3.5337,3.5249,3.5232,3.5742,3.601,3.6675,3.7218,3.7578,3.7541,3.7486,3.7337,3.7203,3.7029,3.6888,3.6722,3.6582,3.6377,3.6148,3.5932,3.5817,3.5778,3.5783,3.5711,3.5667,3.5694,3.5711,3.5639,3.5616,3.5616,3.5616,3.5616,3.5616,3.5616,3.5616,3.5616,3.5616,3.5616,3.5616,3.5616,3.5616,3.5616,3.5616,3.5616,3.5616,3.5616,3.5616,3.5616,3.5616,3.5616,3.5616,3.5616,3.5616,3.5616,3.5616,3.5616,3.5616,3.5616,3.5616,3.5616,3.5616,3.5616,3.5616,3.5616,3.5616,3.5616,3.5616,3.5616,3.5616,3.5616,3.5616,3.5616,3.5616,3.5616,3.5616,3.5616,3.5616,3.5616,3.5616,3.5616,3.5616,3.5616,3.5616,3.5616,3.5616,3.5644,3.5717,3.5717,3.5734,3.5667,3.5616,3.5616,3.5616,3.5616,3.5616,3.5616,3.5616,3.5616,3.5616,3.5616,3.5616,3.5616,3.5718,3.596,3.6231,3.7009,3.7085,3.7317,3.7449,3.7434,3.6932,3.6879,3.6987,3.574,3.5313,3.5675,3.5146,3.5538,3.5853,3.5628,3.6235,3.7202,3.7703,3.788,3.7739,3.7685,3.7485,3.7317,3.7126,3.6987,3.6783,3.6702,3.6561,3.636,3.6152,3.6041,3.6041,3.6041,3.5937,3.5827,3.591,3.5932,3.5734,3.5711,3.5644,3.5622,3.5616,3.5616,3.5616,3.5616,3.5616,3.5616,3.5616,3.5616,3.5616,3.5616,3.5616,3.5616,3.5616,3.5616,3.5616,3.5616,3.5616,3.5616,3.5616,3.5616,3.5616,3.5616,3.5616,3.5616,3.5616,3.5616,3.5616,3.5616,3.5616,3.5616,3.5616,3.5616,3.5616,3.5616,3.5616,3.5616,3.5616,3.5616,3.5616,3.5616,3.5616,3.5616,3.5616,3.5616,3.5616,3.5616,3.5616,3.5616,3.5616,3.5616,3.5689,3.5717,3.5937,3.598,3.5958,3.5985,3.5832,3.5849,3.5734,3.5644,3.5616,3.5616,3.5616,3.5616,3.5616,3.5616,3.5616,3.5616,3.5616,3.5616,3.5616,3.591,3.6315,3.6654,3.7143,3.7336,3.7392,3.7685,3.7943,3.7137,3.6819,3.6626,3.5703,3.5385,3.5815,3.5985,3.6378,3.6877,3.7274,3.7629,3.7874,3.81,3.8069,3.7966,3.7967,3.7828,3.7298,3.726,3.7164,3.6948,3.6806,3.6684,3.6585,3.6381,3.6276,3.6237,3.6237,3.6195,3.6174,3.6233,3.6131,3.5954,3.591,3.5805,3.5689,3.5639,3.5616,3.5616,3.5616,3.5616,3.5616,3.5616,3.5616,3.5616,3.5616,3.5616,3.5616,3.5616,3.5616,3.5616,3.5616,3.5616,3.5616,3.5616,3.5616,3.5616,3.5616,3.5616,3.5616,3.5616,3.5616,3.5616,3.5616,3.5616,3.5616,3.5616,3.5616,3.5616,3.5616,3.5616,3.5616,3.5616,3.5616,3.5616,3.5616,3.5616,3.5616,3.5616,3.5616,3.5616,3.5616,3.5616,3.5616,3.5616,3.5616,3.5717,3.5854,3.6156,3.643,3.6409,3.6367,3.6075,3.5963,3.5827,3.5717,3.5644,3.5616,3.5616,3.5616,3.5616,3.5616,3.5616,3.5616,3.5616,3.5616,3.5616,3.6079,3.6552,3.7195,3.728,3.7449,3.7721,3.8037,3.8218,3.7921,3.7558,3.7198,3.6718,3.6451,3.6474,3.6616,3.6908,3.7234,3.7059,3.7269,3.7713,3.8323,3.8366,3.8322,3.8272,3.8019,3.7411,3.743,3.7222,3.7029,3.6906,3.6864,3.6846,3.6623,3.6506,3.6502,3.6502,3.6444,3.6381,3.6423,3.6343,3.6195,3.6062,3.5954,3.58,3.5689,3.5622,3.5616,3.5616,3.5616,3.5616,3.5616,3.5616,3.5616,3.5616,3.5616,3.5616,3.5616,3.5616,3.5616,3.5616,3.5616,3.5616,3.5616,3.5616,3.5616,3.5616,3.5616,3.5616,3.5616,3.5616,3.5616,3.5616,3.5616,3.5616,3.5616,3.5616,3.5616,3.5616,3.5616,3.5616,3.5616,3.5616,3.5616,3.5616,3.5616,3.5616,3.5616,3.5616,3.5616,3.5616,3.5622,3.5622,3.5667,3.5689,3.5849,3.6006,3.6284,3.6574,3.6615,3.6492,3.6224,3.6139,3.6006,3.5856,3.5801,3.5695,3.5616,3.5616,3.587,3.5616,3.5616,3.5616,3.5616,3.5667,3.5819,3.6315,3.684,3.755,3.7467,3.7613,3.8087,3.8323,3.8405,3.8614,3.8385,3.7966,3.7861,3.756,3.7222,3.7243,3.7394,3.7416,3.7201,3.7099,3.7507,3.8392,3.8575,3.8533,3.8453,3.8189,3.7757,3.7595,3.7424,3.7396,3.7321,3.713,3.6948,3.6809,3.6766,3.6745,3.6745,3.6667,3.6547,3.6687,3.6568,3.6402,3.6233,3.6144,3.5954,3.58,3.5644,3.5616,3.5616,3.5616,3.5616,3.5616,3.5616,3.5616,3.5616,3.5616,3.5616,3.5616,3.5616,3.5616,3.5616,3.5616,3.5616,3.5616,3.5616,3.5616,3.5616,3.5616,3.5616,3.5616,3.5616,3.5616,3.5616,3.5616,3.5616,3.5616,3.5616,3.5616,3.5616,3.5616,3.5616,3.5616,3.5616,3.5616,3.5616,3.5616,3.5616,3.5616,3.5616,3.5616,3.5616,3.5739,3.5761,3.5805,3.5849,3.6002,3.6178,3.6409,3.6615,3.6753,3.6533,3.6182,3.6266,3.6287,3.6114,3.5992,3.5999,3.6163,3.6383,3.6552,3.609,3.5656,3.5616,3.565,3.5735,3.6045,3.6518,3.733,3.821,3.7721,3.8189,3.8274,3.8437,3.8627,3.8673,3.8533,3.8239,3.8206,3.8053,3.765,3.7949,3.8071,3.81,3.8277,3.8382,3.8499,3.8551,3.8596,3.8485,3.8501,3.8242,3.7667,3.7721,3.7907,3.7945,3.7988,3.7567,3.7374,3.7193,3.7018,3.7033,3.7051,3.6911,3.6849,3.6888,3.6849,3.6684,3.6602,3.6416,3.6101,3.5975,3.5844,3.5711,3.5644,3.5644,3.5667,3.5644,3.5644,3.5616,3.5616,3.5616,3.5616,3.5616,3.5616,3.5616,3.5616,3.5616,3.5616,3.5616,3.5616,3.5616,3.5616,3.5616,3.5616,3.5616,3.5616,3.5616,3.5616,3.5616,3.5616,3.5616,3.5616,3.5616,3.5616,3.5616,3.5616,3.5616,3.5616,3.5616,3.5616,3.5616,3.5616,3.5616,3.5616,3.5616,3.5644,3.5783,3.5898,3.5941,3.6156,3.6367,3.6416,3.6602,3.7047,3.7134,3.7076,3.6559,3.6679,3.6846,3.6839,3.6894,3.6948,3.7142,3.7285,3.7119,3.6644,3.6197,3.5819,3.5938,3.64,3.6569,3.6728,3.7686,3.8768,3.8071,3.8289,3.8453,3.858,3.8692,3.8707,3.8533,3.834,3.829,3.8104,3.7862,3.7949,3.8104,3.834,3.858,3.8673,3.8707,3.8707,3.8661,3.8504,3.8506,3.8425,3.8367,3.831,3.8399,3.8745,3.8757,3.8687,3.8339,3.8234,3.8128,3.7637,3.7602,3.7374,3.7218,3.7025,3.693,3.6849,3.6763,3.6523,3.6276,3.6152,3.611,3.6002,3.598,3.5932,3.5844,3.5822,3.5734,3.5667,3.5616,3.5616,3.5616,3.5616,3.5616,3.5616,3.5616,3.5616,3.5616,3.5616,3.5616,3.5616,3.5616,3.5616,3.5616,3.5616,3.5616,3.5616,3.5616,3.5616,3.5616,3.5616,3.5616,3.5616,3.5616,3.5616,3.5616,3.5616,3.5616,3.5616,3.5616,3.5616,3.5616,3.5616,3.5689,3.5827,3.5844,3.5905,3.6045,3.6135,3.6433,3.6796,3.6803,3.683,3.7414,3.7782,3.8085,3.7833,3.7935,3.8042,3.7974,3.8018,3.8074,3.7983,3.7969,3.7661,3.7222,3.7019,3.6875,3.6998,3.7178,3.7435,3.7702,3.8156,3.9088,3.8405,3.8421,3.8596,3.8707,3.8707,3.8707,3.858,3.8421,3.8421,3.8272,3.8086,3.8069,3.8204,3.8389,3.8596,3.8707,3.8707,3.8707,3.8707,3.8632,3.8658,3.8805,3.8906,3.8955,3.9177,3.9693,3.9607,3.9691,3.9905,3.9863,3.9517,3.8462,3.8427,3.8164,3.776,3.7672,3.769,3.7319,3.6988,3.6684,3.6444,3.6402,3.636,3.6301,3.6262,3.6237,3.6105,3.6084,3.5937,3.5778,3.5734,3.5711,3.5622,3.5616,3.5616,3.5616,3.5616,3.5616,3.5616,3.5616,3.5616,3.5616,3.5616,3.5616,3.5616,3.5616,3.5616,3.5616,3.5616,3.5616,3.5616,3.5616,3.5616,3.5616,3.5616,3.5616,3.5616,3.5616,3.5616,3.5616,3.5616,3.5616,3.5616,3.5616,3.5756,3.5963,3.6062,3.6148,3.6423,3.6741,3.7257,3.7776,3.7972,3.7898,3.8023,3.8497,3.8807,3.908,3.9168,3.9091,3.8951,3.9041,3.9203,3.9037,3.8837,3.8986,3.8986,3.8474,3.7967,3.7902,3.7948,3.8459,3.8833,3.9176,3.9521,3.8658,3.8658,3.8692,3.8707,3.8707,3.8707,3.8692,3.8627,3.8643,3.8627,3.8564,3.8611,3.858,3.8661,3.8661,3.8707,3.8707,3.8707,3.8707,3.8834,3.9077,3.9326,3.9499,3.9728,4.006,4.0656,4.0654,4.0895,4.1274,4.1431,4.0633,3.9487,3.9391,3.9258,3.8989,3.8766,3.848,3.8006,3.7436,3.7006,3.6812,3.6696,3.6564,3.6385,3.6322,3.6301,3.628,3.628,3.6152,3.5954,3.591,3.58,3.5644,3.5639,3.5616,3.5616,3.5616,3.5616,3.5616,3.5616,3.5616,3.5616,3.5616,3.5616,3.5616,3.5616,3.5616,3.5616,3.5616,3.5616,3.5616,3.5616,3.5616,3.5616,3.5616,3.5616,3.5616,3.5616,3.5616,3.5616,3.5633,3.5684,3.591,3.5977,3.6273,3.6517,3.7088,3.723,3.7666,3.8012,3.8546,3.9016,3.9327,3.9292,3.8989,3.9298,3.9746,4.0046,4.0182,3.9982,3.9732,3.9929,4.0288,4.0233,4.0132,4.0464,4.0532,3.9703,3.9037,3.8642,3.8744,3.9373,3.98,4.0094,4.0382,3.8707,3.8707,3.8707,3.8707,3.8707,3.8707,3.8707,3.8707,3.8707,3.8707,3.8707,3.8707,3.8707,3.8707,3.8707,3.8707,3.8707,3.8707,3.8744,3.887,3.9183,3.9705,4.0058,4.0653,4.1158,4.1729,4.1823,4.1854,4.2162,4.2351,4.2134,4.1334,4.0621,3.9987,3.977,3.9535,3.9171,3.8799,3.8149,3.7629,3.7521,3.7079,3.6829,3.6751,3.6731,3.665,3.6585,3.6544,3.6318,3.6105,3.6019,3.5866,3.5667,3.5622,3.5616,3.5616,3.5616,3.5616,3.5616,3.5616,3.5616,3.5616,3.5616,3.5622,3.5644,3.5622,3.56,3.5616,3.5616,3.5616,3.5616,3.5616,3.5616,3.5616,3.5616,3.5616,3.5616,3.5616,3.5752,3.5825,3.5802,3.5819,3.6113,3.64,3.6771,3.7141,3.7767,3.8345,3.8734,3.9105,3.9547,3.9893,4.0168,4.0324,4.0046,4.0338,4.0709,4.0949,4.1169,4.106,4.0893,4.1055,4.1308,4.1315,4.1187,4.1221,4.1039,4.0544,4.013,3.9778,3.9916,4.0383,4.0735,4.0999,4.1193,3.8707,3.8707,3.8707,3.8707,3.8707,3.8707,3.8707,3.8707,3.8707,3.8707,3.8707,3.8707,3.8707,3.8707,3.8707,3.8927,3.9056,3.9148,3.9294,3.9621,4.0113,4.052,4.1052,4.1559,4.2035,4.2616,4.2629,4.2552,4.2532,4.267,4.2581,4.2325,4.1938,4.1266,4.0744,4.004,3.9826,3.9696,3.8737,3.8267,3.8166,3.7451,3.7027,3.6989,3.697,3.6849,3.6745,3.6705,3.6544,3.6276,3.6084,3.5975,3.58,3.5667,3.5622,3.5616,3.5616,3.5616,3.5616,3.5616,3.5667,3.5761,3.5766,3.5766,3.5722,3.5722,3.5783,3.5616,3.5616,3.5616,3.5639,3.5616,3.5616,3.5616,3.5616,3.5616,3.5616,3.5616,3.5876,3.6045,3.6113,3.6332,3.7011,3.7396,3.7672,3.8009,3.8374,3.9041,3.9644,3.9982,4.0342,4.0613,4.0829,4.0961,4.1032,4.1393,4.1724,4.1985,4.2167,4.2291,4.2246,4.2234,4.198,4.1739,4.1674,4.1788,4.1595,4.1209,4.1051,4.0897,4.1071,4.1211,4.1568,4.1803,4.1839,3.8707,3.8707,3.8707,3.8707,3.8781,3.8726,3.8726,3.8707,3.8707,3.8799,3.8927,3.8872,3.8799,3.8817,3.8909,3.9111,3.9441,3.968,4.001,4.0514,4.1095,4.1735,4.2085,4.2395,4.2682,4.2829,4.2844,4.2767,4.2707,4.2901,4.2995,4.3013,4.2757,4.2516,4.2374,4.1375,4.1056,4.1,3.9224,3.8837,3.8667,3.7962,3.7549,3.7224,3.7163,3.7056,3.6783,3.6937,3.6738,3.6293,3.6346,3.6199,3.5905,3.5689,3.5622,3.5616,3.5616,3.5616,3.5616,3.5616,3.5717,3.592,3.5881,3.5946,3.6011,3.6032,3.592,3.5689,3.5644,3.5644,3.5622,3.5616,3.5616,3.5616,3.5616,3.5616,3.5616,3.5893,3.6163,3.6417,3.6688,3.7049,3.7895,3.8523,3.8704,3.895,3.9128,3.9666,4.0432,4.0846,4.1151,4.1299,4.1457,4.1561,4.1759,4.2318,4.2716,4.2957,4.292,4.2768,4.271,4.2516,4.229,4.2097,4.2037,4.2044,4.1998,4.1895,4.1719,4.1547,4.1727,4.1909,4.23,4.2539,4.2539,3.8707,3.8707,3.8707,3.9001,3.9441,3.9478,3.9203,3.8762,3.8762,3.9294,4.0029,3.979,3.9496,3.9496,3.9423,3.9386,3.9239,3.9772,4.0194,4.0471,4.16,4.2055,4.2424,4.2883,4.3196,4.3268,4.3214,4.316,4.3232,4.325,4.3322,4.3339,4.325,4.3032,4.2578,4.1991,4.1859,4.1898,4.0836,4.0071,4.0046,3.9252,3.8439,3.7842,3.7684,3.7385,3.6948,3.7248,3.7057,3.6483,3.6556,3.6476,3.5992,3.5673,3.56,3.5616,3.5616,3.5616,3.5616,3.5622,3.5644,3.5788,3.5989,3.6011,3.5832,3.6241,3.6067,3.5827,3.5827,3.5783,3.565,3.5622,3.5616,3.5616,3.5616,3.5616,3.5701,3.6214,3.6609,3.6846,3.71,3.7811,3.8587,3.9125,3.9395,3.9795,4.0021,4.0648,4.1395,4.1659,4.1928,4.1945,4.2052,4.2162,4.2389,4.2591,4.2709,4.2767,4.2747,4.2631,4.2593,4.2613,4.2554,4.2351,4.2313,4.2292,4.2251,4.2228,4.2187,4.2148,4.2234,4.2398,4.2713,4.2958,4.3105,3.8707,3.8707,3.8707,3.9166,3.9808,3.9882,3.9698,3.9533,3.9551,4.0159,4.0802,4.0506,4.0322,4.0249,3.9974,3.9992,3.9536,4.0029,4.0634,4.0836,4.2066,4.2653,4.2965,4.3167,4.3372,4.3479,4.3479,4.3462,4.3427,4.3462,4.3462,4.3462,4.3479,4.3268,4.2902,4.2656,4.2501,4.2327,4.1484,4.0838,4.0699,4.0174,3.9354,3.898,3.8647,3.826,3.785,3.77,3.7659,3.7087,3.6824,3.6825,3.6231,3.5797,3.569,3.5616,3.5616,3.5616,3.5616,3.5616,3.5622,3.5644,3.6023,3.6199,3.6178,3.6574,3.6326,3.6114,3.6054,3.5876,3.5694,3.5667,3.5639,3.5639,3.591,3.5926,3.6231,3.6745,3.733,3.7533,3.7879,3.8589,3.9165,3.9587,3.9999,4.0456,4.0926,4.1512,4.2023,4.2166,4.2267,4.2308,4.2308,4.2308,4.2348,4.245,4.255,4.2589,4.2589,4.2571,4.2494,4.2496,4.2555,4.2575,4.2454,4.2394,4.2514,4.2532,4.2452,4.2474,4.2613,4.2826,4.3105,4.3268,4.341,3.8707,3.8707,3.8707,3.9166,3.9827,3.9974,4.0396,4.1058,4.104,4.1095,4.1224,4.1277,4.1056,4.0875,4.0304,4.0249,4.0636,4.0857,4.1407,4.2103,4.2855,4.3204,4.3351,4.3442,4.3479,4.3479,4.3479,4.3479,4.3479,4.3479,4.3479,4.3479,4.3479,4.341,4.325,4.3287,4.314,4.2756,4.1995,4.1518,4.1416,4.0524,4.0131,3.9882,3.9638,3.9188,3.8898,3.882,3.8525,3.7995,3.745,3.7212,3.6769,3.6175,3.5831,3.5667,3.5718,3.5616,3.5622,3.5622,3.5689,3.5783,3.6284,3.6658,3.6776,3.6756,3.6594,3.6308,3.6182,3.5963,3.5761,3.5728,3.5718,3.6,3.6383,3.6603,3.6907,3.7432,3.8108,3.8497,3.8809,3.93,3.9706,4.0129,4.0179,4.0385,4.0731,4.1128,4.1618,4.2023,4.2145,4.2308,4.2308,4.2308,4.2348,4.2409,4.243,4.249,4.2591,4.2611,4.2514,4.2436,4.2516,4.2534,4.2472,4.2492,4.2671,4.2728,4.267,4.2767,4.2844,4.305,4.325,4.3339,4.3443,3.8707,3.8707,3.8707,3.9166,3.9918,4.0506,4.1222,4.1846,4.1407,4.1662,4.2782,4.2194,4.1589,4.1077,4.0857,4.0579,4.0616,4.0873,4.1554,4.2323,4.3112,4.3369,4.3479,4.3479,4.3479,4.3515,4.3533,4.3589,4.3534,4.3516,4.3534,4.3479,4.3589,4.3552,4.3701,4.396,4.3725,4.3269,4.2433,4.2228,4.2119,4.1495,4.1118,4.0715,4.0246,3.9773,3.945,3.9271,3.8768,3.7735,3.7704,3.7515,3.6814,3.6598,3.6434,3.6366,3.6028,3.56,3.5644,3.581,3.5941,3.6028,3.6516,3.6371,3.6471,3.6615,3.6776,3.6516,3.6433,3.6266,3.6053,3.5968,3.6106,3.6429,3.6858,3.7286,3.7625,3.821,3.8853,3.9056,3.9385,3.9656,4.0062,4.0096,4.0171,4.0279,4.0507,4.089,4.1265,4.1727,4.2065,4.2228,4.2308,4.2308,4.2308,4.2348,4.2348,4.2389,4.2492,4.2552,4.2414,4.2394,4.2494,4.2593,4.2671,4.2749,4.2863,4.2863,4.2825,4.2882,4.2995,4.3214,4.3375,4.3444,4.3479,3.8707,3.8707,3.8707,3.9166,3.9955,4.0747,4.1407,4.1699,4.1315,4.1882,4.2837,4.2139,4.1717,4.1572,4.126,4.1056,4.1056,4.1442,4.1937,4.2341,4.313,4.3369,4.3479,4.3497,4.3479,4.357,4.3827,4.4066,4.3938,4.392,4.392,4.3533,4.3735,4.3938,4.4178,4.4601,4.4711,4.4142,4.3531,4.3077,4.2808,4.2524,4.1822,4.1476,4.0893,4.0429,4.004,3.991,3.9306,3.8441,3.8642,3.8142,3.7506,3.7235,3.6812,3.6603,3.6045,3.5684,3.5667,3.5915,3.6049,3.6224,3.6597,3.6533,3.6635,3.6836,3.6719,3.6557,3.6678,3.6693,3.6464,3.6293,3.6597,3.6899,3.7403,3.7879,3.843,3.9005,3.9292,3.9478,3.9723,3.996,4.0113,4.0113,4.0196,4.0377,4.0597,4.0907,4.126,4.164,4.198,4.2228,4.2287,4.2308,4.2287,4.2287,4.2308,4.2328,4.2348,4.2371,4.231,4.2333,4.2434,4.2692,4.2995,4.305,4.305,4.2995,4.2976,4.305,4.316,4.3322,4.3427,4.3462,4.3479,3.8707,3.8707,3.8707,3.9166,3.9937,4.0579,4.093,4.1058,4.0875,4.1405,4.1937,4.1554,4.1625,4.1735,4.1517,4.168,4.1791,4.2066,4.2268,4.2415,4.313,4.3479,4.3516,4.3589,4.3809,4.3938,4.414,4.447,4.4617,4.4544,4.4232,4.3735,4.4415,4.4782,4.4893,4.548,4.5643,4.5362,4.4734,4.4211,4.3607,4.2953,4.2314,4.2566,4.2313,4.1919,4.1603,4.1308,4.1024,4.0278,3.9657,3.8977,3.8454,3.7726,3.7168,3.662,3.6129,3.5718,3.5689,3.592,3.6071,3.6203,3.6412,3.6615,3.6836,3.6993,3.6895,3.6816,3.6915,3.7103,3.696,3.6952,3.7173,3.7661,3.8197,3.8621,3.9114,3.9512,3.9723,3.9859,3.9893,4.0113,4.0113,4.0113,4.0121,4.0402,4.0652,4.0907,4.1232,4.1552,4.1852,4.2166,4.2207,4.2246,4.2249,4.2249,4.2287,4.2308,4.2308,4.2351,4.2412,4.2394,4.2353,4.2731,4.3142,4.3178,4.3196,4.316,4.316,4.3232,4.3322,4.3427,4.3479,4.3479,4.3479,3.8707,3.8707,3.8707,3.9166,3.9772,3.9441,4.0013,4.093,3.9756,4.0139,4.126,4.1735,4.1717,4.1425,4.1847,4.2139,4.2304,4.2506,4.2708,4.2965,4.3442,4.3479,4.3608,4.392,4.425,4.4452,4.4635,4.4911,4.4966,4.4911,4.5039,4.5241,4.559,4.5608,4.5663,4.6304,4.6594,4.6421,4.6182,4.5573,4.4957,4.4113,4.3476,4.314,4.2712,4.2129,4.1719,4.1328,4.0689,3.9932,3.9559,3.9231,3.8962,3.8115,3.7702,3.7415,3.6462,3.5971,3.583,3.6017,3.6157,3.6305,3.6536,3.6818,3.7032,3.7166,3.7185,3.7127,3.721,3.7433,3.7591,3.7644,3.7826,3.8425,3.8959,3.9348,3.974,3.991,4.0096,4.0113,4.0113,4.0113,4.0113,4.0121,4.0146,4.0279,4.0507,4.0772,4.114,4.1458,4.1736,4.2012,4.2103,4.2145,4.2187,4.2228,4.2287,4.2328,4.2328,4.243,4.2532,4.2691,4.2844,4.3013,4.325,4.3304,4.3339,4.3392,4.341,4.341,4.341,4.3479,4.3479,4.3479,4.3479,3.8707,3.8707,3.8707,3.9166,3.9677,3.9038,3.9441,4.0175,3.9239,3.9405,4.0487,4.1001,4.1167,4.1168,4.1956,4.2598,4.2727,4.2837,4.3075,4.3369,4.3479,4.3479,4.3736,4.4048,4.4323,4.4581,4.5498,4.5847,4.559,4.5773,4.6085,4.6067,4.6159,4.6452,4.6544,4.713,4.7495,4.7378,4.7398,4.7067,4.6347,4.537,4.4249,4.3665,4.3102,4.2498,4.1841,4.1436,4.0891,4.0289,3.9963,3.9727,3.9402,3.8802,3.8447,3.8091,3.7398,3.6462,3.6339,3.6348,3.6414,3.6546,3.6696,3.7029,3.7052,3.7166,3.7166,3.7142,3.7674,3.7932,3.8173,3.8264,3.875,3.933,3.9532,3.9765,3.9926,4.0028,4.0113,4.0113,4.0113,4.0113,4.0113,4.0113,4.0221,4.0741,4.0866,4.1007,4.13,4.1453,4.1688,4.188,4.1995,4.2124,4.2228,4.2249,4.2287,4.2328,4.2369,4.255,4.2728,4.3087,4.3358,4.3304,4.3339,4.3427,4.3479,4.3479,4.3479,4.3444,4.3462,4.3479,4.3479,4.3479,4.3479,3.8579,3.8689,3.8707,3.9093,3.9588,3.9001,3.9093,3.957,3.9148,3.9239,4.001,4.0286,4.0653,4.1313,4.2103,4.28,4.324,4.324,4.3441,4.3478,4.3479,4.3479,4.3552,4.3736,4.425,4.5076,4.6067,4.6434,4.6489,4.6636,4.6581,4.6379,4.6746,4.7241,4.7461,4.781,4.8138,4.8083,4.8083,4.8213,4.7492,4.6588,4.5409,4.4542,4.391,4.3309,4.2537,4.1972,4.1576,4.0943,4.0494,4.0234,3.9848,3.9365,3.9037,3.8623,3.8075,3.7381,3.713,3.7104,3.6925,3.6827,3.7015,3.7112,3.7187,3.7177,3.7177,3.7607,3.8121,3.8466,3.8705,3.9114,3.9643,3.994,4.0065,4.0062,4.0079,4.0113,4.0096,4.0096,4.0096,4.0096,4.0096,4.0096,4.0451,4.0977,4.1323,4.1542,4.1692,4.167,4.1776,4.1902,4.197,4.21,4.2205,4.2308,4.2328,4.2409,4.251,4.2689,4.2919,4.3233,4.3393,4.3358,4.3375,4.3462,4.3479,4.3479,4.3479,4.3479,4.3479,4.3479,4.3479,4.3479,4.3479,3.8102,3.8707,3.8707,3.8799,3.8909,3.8762,3.8799,3.9001,3.9478,3.9772,4.0212,4.1313,4.1992,4.2103,4.2892,4.3423,4.3423,4.3534,4.3516,4.3479,4.3644,4.3571,4.3736,4.425,4.4489,4.5315,4.6232,4.6599,4.6947,4.7094,4.7388,4.77,4.7774,4.8031,4.8067,4.8324,4.8324,4.8324,4.8324,4.8324,4.8104,4.7347,4.6794,4.6113,4.556,4.4639,4.3844,4.349,4.2668,4.1811,4.1007,4.0662,4.028,3.979,3.9387,3.9052,3.8478,3.8024,3.774,3.7736,3.7529,3.7586,3.769,3.7537,3.7539,3.7451,3.7688,3.8272,3.8752,3.9029,3.9326,3.988,4.039,4.0372,4.0417,4.0229,4.0138,4.0146,4.0146,4.0146,4.0146,4.0121,4.0096,4.0221,4.0468,4.0931,4.13,4.1498,4.1542,4.1692,4.1862,4.1905,4.1948,4.1987,4.2051,4.2287,4.2369,4.249,4.2611,4.2824,4.305,4.3322,4.3428,4.3392,4.341,4.3479,4.3479,4.3479,4.3479,4.3479,4.3479,4.3479,4.3479,4.3479,4.3479]}]]